[[{"header":{"parameterUnit":"m.s-1","parameterCategory":1,"la1":30.6,"la2":28.766,"lo1":-90.7593,"lo2":-88.6598,"dy":0.0162,"dx":0.0183,"nx":116,"ny":114,"refTime":"2023-09-25T12:00:00:Z","depth":0,"parameterNumber":2,"parameterNumberName":"U-component_of_WINDS"},"data":[0.0,0.0,0.0,0.0,0.0,0.0,0.0,0.0,0.0,0.0,0.0,0.0,0.0,0.0,0.0,0.0,0.0,0.0,0.0,0.0,0.0,0.0,0.0,0.0,0.0,0.0,0.0,0.0,0.0,0.0,0.0,0.0,0.0,0.0,0.0,0.0,0.0,0.0,0.0,0.0,0.0,0.0,0.0,0.0,0.0,0.0,0.0,0.0,0.0,0.0,0.0,0.0,0.0,0.0,0.0,0.0,0.0,0.0,0.0,0.0,0.0,0.0,0.0,0.0,0.0,0.0,0.0,0.0,0.0,0.0,0.0,0.0,0.0,0.0,0.0,0.0,0.0,0.0,0.0,0.0,0.0,0.0,0.0,0.0,0.0,0.0,0.0,0.0,0.0,0.0,0.0,0.0,0.0,0.0,0.0,0.0,0.0,0.0,0.0,0.0,0.0,0.0,0.0,0.0,0.0,0.0,0.0,0.0,0.0,0.0,0.0,0.0,0.0,0.0,0.0,0.0,0.0,0.0,0.0,0.0,0.0,0.0,0.0,0.0,0.0,0.0,0.0,0.0,0.0,0.0,0.0,0.0,0.0,0.0,0.0,0.0,0.0,0.0,0.0,0.0,0.0,0.0,0.0,0.0,0.0,0.0,0.0,0.0,0.0,0.0,0.0,0.0,0.0,0.0,0.0,0.0,0.0,0.0,0.0,0.0,0.0,0.0,0.0,0.0,0.0,0.0,0.0,0.0,0.0,0.0,0.0,0.0,0.0,0.0,0.0,0.0,0.0,0.0,0.0,0.0,0.0,0.0,0.0,0.0,0.0,0.0,0.0,0.0,0.0,0.0,0.0,0.0,0.0,0.0,0.0,0.0,0.0,0.0,0.0,0.0,0.0,0.0,0.0,0.0,0.0,0.0,0.0,0.0,0.0,0.0,0.0,0.0,0.0,0.0,0.0,0.0,0.0,0.0,0.0,0.0,0.0,0.0,0.0,0.0,0.0,0.0,0.0,0.0,0.0,0.0,0.0,0.0,0.0,0.0,0.0,0.0,0.0,0.0,0.0,0.0,0.0,0.0,0.0,0.0,0.0,0.0,0.0,0.0,0.0,0.0,0.0,0.0,0.0,0.0,0.0,0.0,0.0,0.0,0.0,0.0,0.0,0.0,0.0,0.0,0.0,0.0,0.0,0.0,0.0,0.0,0.0,0.0,0.0,0.0,0.0,0.0,0.0,0.0,0.0,0.0,0.0,0.0,0.0,0.0,0.0,0.0,0.0,0.0,0.0,0.0,0.0,0.0,0.0,0.0,0.0,0.0,0.0,0.0,0.0,0.0,0.0,0.0,0.0,0.0,0.0,0.0,0.0,0.0,0.0,0.0,0.0,0.0,0.0,0.0,0.0,0.0,0.0,0.0,0.0,0.0,0.0,0.0,0.0,0.0,0.0,0.0,0.0,0.0,0.0,0.0,0.0,0.0,0.0,0.0,0.0,0.0,0.0,0.0,0.0,0.0,0.0,0.0,0.0,0.0,0.0,0.0,0.0,0.0,0.0,0.0,0.0,0.0,0.0,0.0,0.0,0.0,0.0,0.0,0.0,0.0,0.0,0.0,0.0,0.0,0.0,0.0,0.0,0.0,0.0,0.0,0.0,0.0,0.0,0.0,0.0,0.0,0.0,0.0,0.0,0.0,0.0,0.0,0.0,0.0,0.0,0.0,0.0,0.0,0.0,0.0,0.0,0.0,0.0,0.0,0.0,0.0,0.0,0.0,0.0,0.0,0.0,0.0,0.0,0.0,0.0,0.0,0.0,0.0,0.0,0.0,0.0,0.0,0.0,0.0,0.0,0.0,0.0,0.0,0.0,0.0,0.0,0.0,0.0,0.0,0.0,0.0,0.0,0.0,0.0,0.0,0.0,0.0,0.0,0.0,0.0,0.0,0.0,0.0,0.0,0.0,0.0,0.0,0.0,0.0,0.0,0.0,0.0,0.0,0.0,0.0,0.0,0.0,0.0,0.0,0.0,0.0,0.0,0.0,0.0,0.0,0.0,0.0,0.0,0.0,0.0,0.0,0.0,0.0,0.0,0.0,0.0,0.0,0.0,0.0,0.0,0.0,0.0,0.0,0.0,0.0,0.0,0.0,0.0,0.0,0.0,0.0,0.0,0.0,0.0,0.0,0.0,0.0,0.0,0.0,0.0,0.0,0.0,0.0,0.0,0.0,0.0,0.0,0.0,0.0,0.0,0.0,0.0,0.0,0.0,0.0,0.0,0.0,0.0,0.0,0.0,0.0,0.0,0.0,0.0,0.0,0.0,0.0,0.0,0.0,0.0,0.0,0.0,0.0,0.0,0.0,0.0,0.0,0.0,0.0,0.0,0.0,0.0,0.0,0.0,0.0,0.0,0.0,0.0,0.0,0.0,0.0,0.0,0.0,0.0,0.0,0.0,0.0,0.0,0.0,0.0,0.0,0.0,0.0,0.0,0.0,0.0,0.0,0.0,0.0,0.0,0.0,0.0,0.0,0.0,0.0,0.0,0.0,0.0,0.0,0.0,0.0,0.0,0.0,0.0,0.0,0.0,0.0,0.0,0.0,0.0,0.0,0.0,0.0,0.0,0.0,0.0,0.0,0.0,0.0,0.0,0.0,0.0,0.0,0.0,0.0,0.0,0.0,0.0,0.0,0.0,0.0,0.0,0.0,0.0,0.0,0.0,0.0,0.0,0.0,0.0,0.0,0.0,0.0,0.0,0.0,0.0,0.0,0.0,0.0,0.0,0.0,0.0,0.0,0.0,0.0,0.0,0.0,0.0,0.0,0.0,0.0,0.0,0.0,0.0,0.0,0.0,0.0,0.0,0.0,0.0,0.0,0.0,0.0,0.0,0.0,0.0,0.0,0.0,0.0,0.0,0.0,0.0,0.0,0.0,0.0,0.0,0.0,0.0,0.0,0.0,0.0,0.0,0.0,0.0,0.0,0.0,0.0,0.0,0.0,0.0,0.0,0.0,0.0,0.0,0.0,0.0,0.0,0.0,0.0,0.0,0.0,0.0,0.0,0.0,0.0,0.0,0.0,0.0,0.0,0.0,0.0,0.0,0.0,0.0,0.0,0.0,0.0,0.0,0.0,0.0,0.0,0.0,0.0,0.0,0.0,0.0,0.0,0.0,0.0,0.0,0.0,0.0,0.0,0.0,0.0,0.0,0.0,0.0,0.0,0.0,0.0,0.0,0.0,0.0,0.0,0.0,0.0,0.0,0.0,0.0,0.0,0.0,0.0,0.0,0.0,0.0,0.0,0.0,0.0,0.0,0.0,0.0,0.0,0.0,0.0,0.0,0.0,0.0,0.0,0.0,0.0,0.0,0.0,0.0,0.0,0.0,0.0,0.0,0.0,0.0,0.0,0.0,0.0,0.0,0.0,0.0,0.0,0.0,0.0,0.0,0.0,0.0,0.0,0.0,0.0,0.0,0.0,0.0,0.0,0.0,0.0,0.0,0.0,0.0,0.0,0.0,0.0,0.0,0.0,0.0,0.0,0.0,0.0,0.0,0.0,0.0,0.0,0.0,0.0,0.0,0.0,0.0,0.0,0.0,0.0,0.0,0.0,0.0,0.0,0.0,0.0,0.0,0.0,0.0,0.0,0.0,0.0,0.0,0.0,0.0,0.0,0.0,0.0,0.0,0.0,0.0,0.0,0.0,0.0,0.0,0.0,0.0,0.0,0.0,0.0,0.0,0.0,0.0,0.0,0.0,0.0,0.0,0.0,0.0,0.0,0.0,0.0,0.0,0.0,0.0,0.0,0.0,0.0,0.0,0.0,0.0,0.0,0.0,0.0,0.0,0.0,0.0,0.0,0.0,0.0,0.0,0.0,0.0,0.0,0.0,0.0,0.0,0.0,0.0,0.0,0.0,0.0,0.0,0.0,0.0,0.0,0.0,0.0,0.0,0.0,0.0,0.0,0.0,0.0,0.0,0.0,0.0,0.0,0.0,0.0,0.0,0.0,0.0,0.0,0.0,0.0,0.0,0.0,0.0,0.0,0.0,0.0,0.0,0.0,0.0,0.0,0.0,0.0,0.0,0.0,0.0,0.0,0.0,0.0,0.0,0.0,0.0,0.0,0.0,0.0,0.0,0.0,0.0,0.0,0.0,0.0,0.0,0.0,0.0,0.0,0.0,0.0,0.0,0.0,0.0,0.0,0.0,0.0,0.0,0.0,0.0,0.0,0.0,0.0,0.0,0.0,0.0,0.0,0.0,0.0,0.0,0.0,0.0,0.0,0.0,0.0,0.0,0.0,0.0,0.0,0.0,0.0,0.0,0.0,0.0,0.0,0.0,0.0,0.0,0.0,0.0,0.0,0.0,0.0,0.0,0.0,0.0,0.0,0.0,0.0,0.0,0.0,0.0,0.0,0.0,0.0,0.0,0.0,0.0,0.0,0.0,0.0,0.0,0.0,0.0,0.0,0.0,0.0,0.0,0.0,0.0,0.0,0.0,0.0,0.0,0.0,0.0,0.0,0.0,0.0,0.0,0.0,0.0,0.0,0.0,0.0,0.0,0.0,0.0,0.0,0.0,0.0,0.0,0.0,0.0,0.0,0.0,0.0,0.0,0.0,0.0,0.0,0.0,0.0,0.0,0.0,0.0,0.0,0.0,0.0,0.0,0.0,0.0,0.0,0.0,0.0,0.0,0.0,0.0,0.0,0.0,0.0,0.0,0.0,0.0,0.0,0.0,0.0,0.0,0.0,0.0,0.0,0.0,0.0,0.0,0.0,0.0,0.0,0.0,0.0,0.0,0.0,0.0,0.0,0.0,0.0,0.0,0.0,0.0,0.0,0.0,0.0,0.0,0.0,0.0,0.0,0.0,0.0,0.0,0.0,0.0,0.0,0.0,0.0,0.0,0.0,0.0,0.0,0.0,0.0,0.0,0.0,0.0,0.0,0.0,0.0,0.0,0.0,0.0,0.0,0.0,0.0,0.0,0.0,0.0,0.0,0.0,0.0,0.0,0.0,0.0,0.0,0.0,0.0,0.0,0.0,0.0,0.0,0.0,0.0,0.0,0.0,0.0,0.0,0.0,0.0,0.0,0.0,0.0,0.0,0.0,0.0,0.0,0.0,0.0,0.0,0.0,0.0,0.0,0.0,0.0,0.0,0.0,0.0,0.0,0.0,0.0,0.0,0.0,0.0,0.0,0.0,0.0,0.0,0.0,0.0,0.0,0.0,0.0,0.0,0.0,0.0,0.0,0.0,0.0,0.0,0.0,0.0,0.0,0.0,0.0,0.0,0.0,0.0,0.0,0.0,0.0,0.0,0.0,0.0,0.0,0.0,0.0,0.0,0.0,0.0,0.0,0.0,0.0,0.0,0.0,0.0,0.0,0.0,0.0,0.0,0.0,0.0,0.0,0.0,0.0,0.0,0.0,0.0,0.0,0.0,0.0,0.0,0.0,0.0,0.0,0.0,0.0,0.0,0.0,0.0,0.0,0.0,0.0,0.0,0.0,0.0,0.0,0.0,0.0,0.0,0.0,0.0,0.0,0.0,0.0,0.0,0.0,0.0,0.0,0.0,0.0,0.0,0.0,0.0,0.0,0.0,0.0,0.0,0.0,0.0,0.0,0.0,0.0,0.0,0.0,0.0,0.0,0.0,0.0,0.0,0.0,0.0,0.0,0.0,0.0,0.0,0.0,0.0,0.0,0.0,0.0,0.0,0.0,0.0,0.0,0.0,0.0,0.0,0.0,0.0,0.0,0.0,0.0,0.0,0.0,0.0,0.0,0.0,0.0,0.0,0.0,0.0,0.0,0.0,0.0,0.0,0.0,0.0,0.0,0.0,0.0,0.0,0.0,0.0,0.0,0.0,0.0,0.0,0.0,0.0,0.0,0.0,0.0,0.0,0.0,0.0,0.0,0.0,0.0,0.0,0.0,0.0,0.0,0.0,0.0,0.0,0.0,0.0,0.0,0.0,0.0,0.0,0.0,0.0,0.0,0.0,0.0,0.0,0.0,0.0,0.0,0.0,0.0,0.0,0.0,0.0,0.0,0.0,0.0,0.0,0.0,0.0,0.0,0.0,0.0,0.0,0.0,0.0,0.0,0.0,0.0,0.0,0.0,0.0,1.7475,0.0,0.0,0.0,0.0,0.0,0.0,0.0,0.0,0.0,0.0,0.0,0.0,0.0,0.0,0.0,0.0,0.0,0.0,0.0,0.0,0.0,0.0,0.0,0.0,0.0,0.0,0.0,0.0,0.0,0.0,0.0,0.0,0.0,0.0,0.0,0.0,0.0,0.0,1.1787,1.1787,1.1787,1.1813,1.1595,1.1491,1.1491,0.0,0.0,0.0,0.0,0.0,0.0,0.0,0.0,0.0,0.0,0.0,0.0,0.0,0.0,0.0,0.0,0.0,0.0,0.0,0.0,0.0,0.0,0.0,0.0,0.0,0.0,0.0,0.0,0.0,0.0,0.0,0.0,0.0,0.0,0.0,0.0,0.0,0.0,0.0,0.0,0.0,0.0,0.0,0.0,0.0,0.0,0.0,0.0,0.0,0.0,0.0,0.0,0.0,0.0,0.0,0.0,0.0,0.0,0.0,0.0,0.0,0.0,0.0,0.0,0.0,0.0,0.0,0.0,0.0,0.0,0.0,1.8196,0.0,0.0,0.0,0.0,0.0,0.0,0.0,0.0,0.0,0.0,0.0,0.0,0.0,0.0,0.0,0.0,0.0,0.0,0.0,0.0,0.0,0.0,0.0,0.322,0.3675,0.4822,0.5167,0.6059,0.0,0.0,0.0,0.0,0.0,0.0,1.1447,1.1613,1.1691,1.1691,1.1885,1.2002,1.2039,1.2039,1.2039,1.203,1.1879,0.0,0.0,0.0,0.0,0.0,0.0,0.0,0.0,0.0,0.0,0.0,0.0,0.0,0.0,0.0,0.0,0.0,0.0,0.0,0.0,0.0,0.0,0.0,0.0,0.0,0.0,0.0,0.0,0.0,0.0,0.0,0.0,0.0,0.0,0.0,0.0,0.0,0.0,0.0,0.0,0.0,0.0,0.0,0.0,0.0,0.0,0.0,0.0,0.0,0.0,0.0,0.0,0.0,0.0,0.0,0.0,0.0,0.0,0.0,0.0,0.0,0.0,0.0,1.8753,1.9016,1.9016,1.9342,1.9784,2.0212,1.9203,1.8793,1.878,1.867,0.0,0.0,0.0,0.0,0.0,0.0,0.0,0.0,0.0,0.0,0.0,0.0,0.0,0.0,0.0,0.0,0.0,0.0,0.0,0.0,0.0,0.3285,0.3745,0.4887,0.5233,0.6106,0.7784,0.0,0.0,0.0,0.0,0.0,1.0062,1.0805,1.1186,1.1186,1.2192,1.2757,1.2928,1.2928,1.2928,1.2899,1.2143,1.19,1.206,0.0,0.0,0.0,0.0,0.0,0.0,0.0,0.0,0.0,0.0,0.0,0.0,0.0,0.0,0.0,0.0,0.0,0.0,0.0,0.0,0.0,0.0,0.0,0.0,0.0,0.0,0.0,0.0,0.0,0.0,0.0,0.0,0.0,0.0,0.0,0.0,0.0,0.0,0.0,0.0,0.0,1.5873,1.6103,0.0,0.0,0.0,0.0,0.0,0.0,0.0,0.0,0.0,0.0,0.0,0.0,0.0,1.7871,1.8143,1.8643,1.9013,1.9292,1.9676,1.9846,1.9846,1.9909,2.0136,2.0535,2.0067,0.0,1.9946,1.9339,0.0,0.0,0.0,0.0,0.0,0.0,0.0,0.0,0.0,0.0,0.0,0.0,0.0,0.0,0.0,0.0,0.0,0.0,0.0,0.0,0.0,0.3719,0.4193,0.4726,0.5213,0.5959,0.6979,0.7784,0.0,0.0,0.0,1.0021,1.0021,1.0924,1.1716,1.2406,1.301,1.3363,1.3448,1.3448,1.3448,1.3429,1.3032,1.2729,1.2484,1.223,0.0,0.0,0.0,0.0,0.0,0.0,0.0,0.0,0.0,0.0,0.0,0.0,0.0,0.0,0.0,0.0,0.0,0.0,0.0,0.0,0.0,0.0,0.0,0.0,0.0,0.0,0.0,0.0,0.0,0.0,0.0,0.0,0.0,0.0,0.0,0.0,0.0,0.0,0.0,1.6199,1.6392,1.6501,1.6622,1.6706,0.0,0.0,0.0,0.0,0.0,0.0,0.0,0.0,0.0,1.8234,1.8608,1.8862,1.8983,1.9492,1.9752,1.974,2.0203,2.0355,2.0251,2.0434,2.0686,2.0958,2.0633,2.0517,2.0486,1.9978,1.9797,1.9787,0.0,0.0,0.0,0.0,2.0096,2.0103,0.0,0.0,0.0,0.0,0.0,0.0,0.0,0.0,0.0,0.0,0.0,0.0,0.3722,0.4354,0.4825,0.4928,0.5397,0.5925,0.6474,0.7185,0.7812,0.8362,0.9111,0.9519,0.9519,1.0715,1.2049,1.3466,1.3674,1.3797,1.3844,1.3844,1.3844,1.3844,1.3844,1.359,1.3098,1.2767,1.2874,1.3158,0.0,0.0,0.0,0.0,0.0,0.0,0.0,0.0,0.0,0.0,0.0,0.0,0.0,0.0,0.0,0.0,0.0,0.0,0.0,0.0,0.0,0.0,0.0,0.0,0.0,0.0,0.0,0.0,0.0,0.0,0.0,0.0,0.0,0.0,0.0,0.0,0.0,1.6803,1.6827,1.6887,1.696,1.6996,0.0,0.0,0.0,0.0,0.0,0.0,1.8886,1.8951,1.914,1.9406,1.9733,1.9902,1.9902,2.0386,2.0519,2.0291,2.0759,2.0884,2.07,2.0925,2.1157,2.1351,2.1037,2.0907,2.0893,2.0336,2.0115,2.0129,2.0064,1.9976,2.0002,2.0491,2.0623,2.0648,0.0,0.0,0.0,0.0,0.0,0.0,0.0,0.0,0.0,0.0,0.0,0.4959,0.4592,0.5128,0.5623,0.5805,0.5855,0.6129,0.6756,0.6695,0.693,0.7537,0.7601,0.7635,0.7635,0.9628,1.1646,1.3674,1.3892,1.409,1.4279,1.4279,1.4279,1.4279,1.4279,1.4156,1.392,1.3514,1.3477,1.363,1.3222,0.0,0.0,0.0,0.0,0.0,0.0,0.0,0.0,0.0,0.0,0.0,0.0,0.0,0.0,0.0,0.0,0.0,0.0,0.0,0.0,0.0,0.0,0.0,0.0,0.0,0.0,0.0,0.0,0.0,0.0,0.0,0.0,0.0,0.0,0.0,0.0,0.0,0.0,1.7448,1.7689,0.0,0.0,0.0,0.0,1.8633,1.8638,1.8911,1.9431,1.9709,1.9941,2.0241,2.0749,2.1015,2.1015,2.1305,2.145,2.1438,2.145,2.145,2.1438,2.1474,2.1507,2.1554,2.1306,2.1218,2.1213,2.0297,1.9915,1.9873,1.9626,1.996,2.0563,2.0576,2.1014,2.1542,0.0,0.0,0.0,0.0,0.0,0.0,0.0,0.0,0.5531,0.4997,0.5237,0.5414,0.5303,0.6033,0.6573,0.6711,0.7127,0.7448,0.7624,0.7582,0.7616,0.7747,0.7747,0.8081,0.8769,1.0313,1.1814,1.3255,1.4147,1.4606,1.4682,1.4682,1.4682,1.4682,1.4682,1.4644,1.454,1.4024,1.3884,1.3967,1.348,1.3538,0.0,0.0,0.0,0.0,0.0,0.0,0.0,0.0,0.0,0.0,0.0,0.0,0.0,0.0,0.0,0.0,0.0,0.0,0.0,0.0,0.0,0.0,0.0,0.0,0.0,0.0,0.0,0.0,0.0,0.0,0.0,0.0,0.0,0.0,0.0,0.0,0.0,1.8234,1.8367,0.0,1.8899,1.9019,1.9261,1.9709,1.9745,1.9975,2.0495,2.0628,2.0809,2.1075,2.1438,2.1704,2.1873,2.2139,2.2272,2.2272,2.2272,2.2187,2.2018,2.1849,2.1789,2.1776,2.152,2.142,2.1393,2.1049,2.0791,2.055,2.0449,2.0444,2.0535,2.0897,2.1071,2.1173,0.0,0.0,0.0,0.0,0.0,0.0,0.0,0.0,0.6208,0.5718,0.5948,0.6162,0.6092,0.6881,0.7462,0.7645,0.8081,0.8301,0.8214,0.8132,0.8028,0.7908,0.7941,0.8459,0.9473,1.0798,1.1795,1.2491,1.3754,1.4206,1.3906,1.431,1.4512,1.4533,1.494,1.5101,1.4974,1.4568,1.4361,1.429,1.3805,1.3788,1.4025,0.0,0.0,0.0,0.0,0.0,0.0,0.0,0.0,0.0,0.0,0.0,0.0,0.0,0.0,0.0,0.0,0.0,0.0,0.0,0.0,0.0,0.0,0.0,0.0,0.0,0.0,0.0,0.0,0.0,0.0,0.0,0.0,0.0,0.0,1.8197,1.8439,1.8802,1.906,1.9394,1.9745,1.9854,2.0096,2.0543,2.0579,2.0845,2.1474,2.1498,2.1667,2.203,2.2212,2.2345,2.2429,2.2695,2.278,2.2695,2.2695,2.2598,2.2429,2.2248,2.2127,2.203,2.1946,2.1861,2.1776,2.1776,2.1603,2.1346,2.1171,2.1028,2.0984,2.1399,2.1462,2.1499,0.0,0.0,0.0,0.0,0.0,0.0,0.6997,0.7018,0.6838,0.6389,0.6896,0.7177,0.6876,0.7656,0.8302,0.8573,0.8595,0.8546,0.8426,0.8225,0.8033,0.7913,0.8023,0.8526,0.9461,1.0849,1.1531,1.1481,1.2653,1.2789,1.1914,1.31,1.3697,1.3865,1.501,1.5408,1.521,1.521,1.4983,1.4597,1.4172,1.4137,1.4263,0.0,0.0,0.0,0.0,0.0,0.0,0.0,0.0,0.0,0.0,0.0,0.0,0.0,0.0,0.0,0.0,0.0,0.0,0.0,0.0,0.0,0.0,0.0,0.0,0.0,0.0,0.0,0.0,0.0,0.0,0.0,0.0,0.0,1.8408,1.8814,1.9152,1.9165,1.9854,2.035,2.0362,2.0603,2.0857,2.1123,2.1148,2.1498,2.2284,2.232,2.2562,2.3082,2.3094,2.2985,2.2744,2.2997,2.2997,2.2679,2.2705,2.2744,2.2655,2.2681,2.2574,2.2345,2.2598,2.2562,2.232,2.232,2.232,2.2272,2.174,2.1679,2.1919,2.1919,2.2134,2.2386,0.0,0.0,0.0,0.0,0.0,0.0,0.7117,0.7133,0.7094,0.6955,0.7254,0.7536,0.7736,0.8108,0.8465,0.8732,0.8754,0.8633,0.8432,0.8274,0.8133,0.8039,0.8066,0.8335,0.8824,0.9978,1.0651,1.0771,1.1893,1.2312,1.205,1.2365,1.2996,1.3797,1.4139,1.4726,1.5504,1.5504,1.5437,1.5262,1.4685,1.4286,1.4071,0.0,0.0,0.0,0.0,0.0,0.0,0.0,0.0,0.0,0.0,0.0,0.0,0.0,0.0,0.0,0.0,0.0,0.0,0.0,0.0,0.0,0.0,0.0,0.0,0.0,0.0,0.0,0.0,0.0,0.0,0.0,1.9418,1.9576,1.9225,1.9636,2.012,2.0507,2.0749,2.1039,2.1426,2.1704,2.197,2.2236,2.2429,2.2635,2.2852,2.2864,2.3022,2.3294,2.3306,2.349,2.3792,2.3876,2.3316,2.2152,2.3234,2.3112,2.1874,2.2804,2.3149,2.3077,2.3034,2.2937,2.2864,2.2864,2.2864,2.2816,2.2284,2.1314,2.0251,2.0251,1.9719,1.8962,0.0,0.0,0.0,0.0,0.0,0.0,0.7199,0.721,0.721,0.721,0.741,0.7693,0.7979,0.8285,0.8562,0.8787,0.8759,0.8617,0.8399,0.8253,0.8149,0.8133,0.8257,0.8432,0.8694,0.9756,1.0166,0.9816,1.0917,1.1227,1.0835,1.1316,1.2186,1.3362,1.385,1.4717,1.5721,1.5721,1.5674,1.556,1.5167,1.4818,1.4474,1.4336,1.438,1.4563,1.4791,1.5094,1.5458,1.6213,0.0,0.0,0.0,0.0,0.0,0.0,0.0,0.0,0.0,0.0,0.0,0.0,0.0,0.0,0.0,0.0,0.0,0.0,0.0,0.0,0.0,0.0,0.0,0.0,2.0096,2.0434,2.0495,2.0688,2.0966,2.1389,2.1631,2.1933,2.2357,2.2538,2.2695,2.284,2.3106,2.3261,2.3369,2.3478,2.3671,2.3897,2.3909,2.4005,2.4186,2.4306,2.3874,2.2868,2.3768,2.3656,2.2653,2.339,2.3328,2.2596,2.259,2.2168,2.1435,2.1435,2.1435,2.153,0.0,0.0,0.0,0.0,2.0102,1.875,0.0,0.0,0.0,0.0,0.0,0.0,0.721,0.7193,0.7204,0.7204,0.752,0.7763,0.7908,0.8328,0.8617,0.8776,0.8672,0.8519,0.8372,0.8193,0.8164,0.8237,0.8486,0.8705,0.8841,0.9808,0.9874,0.8957,0.9922,0.9994,0.9177,1.0185,1.136,1.2589,1.3658,1.4672,1.5577,1.5752,1.5674,1.5487,1.5634,1.5479,1.5125,1.4766,1.5054,1.5611,1.5471,1.5887,1.6507,1.658,0.0,0.0,0.0,0.0,0.0,0.0,0.0,0.0,0.0,0.0,0.0,0.0,0.0,0.0,0.0,0.0,0.0,0.0,0.0,0.0,0.0,0.0,0.0,0.0,2.0712,2.1414,2.1921,2.1825,2.1776,2.2006,2.2453,2.2828,2.3097,2.313,2.3167,2.3167,2.3418,2.3643,2.3884,2.4113,0.0,0.0,0.0,2.4246,2.4044,2.4051,2.3844,2.3405,2.3587,2.3575,2.3359,2.354,2.274,2.1219,2.1462,2.0626,1.9114,1.9114,1.9114,1.9332,2.1486,2.2342,2.2342,2.2146,2.1037,1.9648,0.0,0.0,0.0,0.0,0.0,0.0,0.721,0.7236,0.7273,0.7273,0.7616,0.7913,0.8033,0.8274,0.8497,0.8611,0.8519,0.8367,0.8248,0.8193,0.8296,0.8508,0.8694,0.884,0.9022,0.9261,0.9321,0.9237,0.9652,0.9713,0.9421,0.9798,1.0591,1.1663,1.1915,1.2602,1.3712,1.4737,1.5035,1.4863,1.5909,1.5772,1.4946,1.487,1.5041,1.5451,1.5939,1.6538,1.7218,1.7753,1.7919,1.7949,1.8072,1.8103,0.0,0.0,0.0,0.0,0.0,0.0,0.0,0.0,0.0,0.0,0.0,0.0,0.0,0.0,0.0,0.0,0.0,0.0,0.0,2.0785,2.1534,2.2175,2.249,2.2683,2.2792,2.2852,2.2949,2.3022,2.307,2.343,2.3655,2.3655,2.4089,2.4379,2.4427,2.4475,2.4632,2.4909,2.3511,2.2818,2.2919,2.1496,2.0034,1.8485,1.9813,0.0,1.8186,1.9512,1.9896,1.9561,1.96,1.9451,1.9114,1.9114,1.9114,1.9011,1.8109,1.7763,1.7596,1.6131,1.5375,1.5088,0.0,0.0,0.0,0.0,0.0,0.0,0.721,0.7258,0.7305,0.7305,0.7649,0.7924,0.7984,0.8182,0.8318,0.8405,0.8329,0.8296,0.8296,0.8345,0.8519,0.8724,0.8889,0.9035,0.9179,0.9184,0.9275,0.9394,0.9519,0.9616,0.9616,0.9699,1.0355,1.1406,1.1406,1.204,1.3156,1.3786,1.433,1.4827,1.536,1.5539,1.5536,1.5328,1.5472,1.5814,1.6053,1.6804,1.7688,1.8046,1.8391,1.8686,1.8686,1.877,1.8911,0.0,0.0,0.0,0.0,0.0,0.0,0.0,0.0,0.0,0.0,0.0,0.0,0.0,0.0,1.983,2.0241,0.0,2.1087,2.1607,2.2151,2.2635,2.2995,2.3273,2.3393,2.3261,2.3369,2.349,2.3623,2.3997,2.4198,2.4198,2.4571,2.48,2.48,2.4027,2.3679,2.3815,2.2054,2.115,2.1262,2.0351,1.9438,1.8523,1.9328,1.9195,1.833,1.9127,1.9005,1.8103,1.8103,1.7587,1.669,1.669,1.669,1.6604,1.5747,1.6371,1.7688,1.6798,1.5914,1.5155,0.0,0.0,0.0,0.0,0.0,0.0,0.0,0.7308,0.7343,0.7343,0.7682,0.793,0.7903,0.8068,0.8166,0.8166,0.8188,0.8264,0.8443,0.8557,0.8731,0.8941,0.9071,0.9174,0.9302,0.9302,0.9362,0.9487,0.9557,0.9639,0.9774,0.9824,1.0323,1.1158,1.1126,1.164,1.2541,1.3028,1.3797,1.4716,1.4979,1.5578,1.6254,1.5873,1.5992,1.6338,1.6166,1.6957,1.8092,1.8138,1.8612,1.9189,1.9249,1.9406,1.9576,1.9576,1.9576,0.0,0.0,0.0,0.0,0.0,0.0,0.0,0.0,2.0071,2.0083,2.011,2.0398,2.0688,2.0894,2.1377,2.1885,2.2308,2.2683,2.3031,2.3427,2.3764,2.3884,2.3668,2.3824,2.4041,2.4246,2.4511,2.4668,2.4668,2.4921,2.4909,2.4559,2.3328,2.2428,2.2083,2.0308,1.9351,1.9351,1.9003,1.8828,1.8828,1.8828,1.8828,1.8828,1.8828,1.8007,1.6569,1.6569,1.5697,1.4299,1.4299,1.4299,1.4299,1.4299,1.5874,1.8175,1.8175,1.7289,1.6066,0.0,0.0,0.0,0.0,0.0,0.0,0.0,0.0,0.7468,0.7468,0.7842,0.8023,0.7913,0.8023,0.8104,0.8104,0.8171,0.8296,0.8552,0.8716,0.8856,0.9071,0.9226,0.9291,0.9302,0.9302,0.9362,0.9487,0.9807,0.9965,0.9987,1.0204,1.0327,1.0336,1.0219,1.0247,1.0479,1.271,1.3626,1.3755,1.5955,1.6805,1.6689,1.6273,1.6317,1.6557,1.6537,1.7307,1.8389,1.8572,1.8989,1.9503,1.9757,1.982,1.9866,1.9866,1.9866,1.9845,1.9881,1.9878,1.9857,2.0156,2.0038,2.0002,0.0,2.0616,2.0676,2.0918,2.1365,2.174,2.1764,2.2199,2.2574,2.2635,2.3225,2.3692,2.3752,2.4186,2.4487,2.4463,2.4475,2.4511,2.4535,2.48,2.4957,2.4957,2.5198,2.4617,2.2955,2.2772,2.191,2.0264,1.8392,1.7395,1.7395,1.5741,1.4911,1.4911,1.4911,1.4911,1.4911,1.4911,1.4822,1.4608,1.4608,1.4476,1.4299,1.4299,1.4299,1.4299,1.4299,1.4543,1.4861,1.4861,1.4729,1.4553,0.0,0.0,0.0,0.0,0.0,0.0,0.0,0.0,0.0,0.7616,0.7842,0.7957,0.7908,0.7946,0.8033,0.8149,0.8172,0.8361,0.874,0.8811,0.8946,0.922,0.928,0.9302,0.9302,0.9302,0.9362,0.9487,0.9639,0.9748,0.9818,0.9987,1.0002,0.9953,0.9975,0.998,1.0058,1.1101,1.2338,1.3656,1.4581,1.5679,1.6774,1.6471,1.6381,1.6317,1.5938,1.6645,0.0,1.7907,1.8634,1.9551,1.983,2.0023,2.011,2.011,2.011,2.012,1.9929,2.0144,2.0362,2.0325,2.0458,2.0664,2.0882,2.1172,2.1438,2.1547,2.1994,2.2369,2.2369,2.2754,2.3164,2.3321,2.3716,2.3713,2.2821,2.3026,2.3196,2.3049,2.2349,2.2638,2.4628,2.4125,2.3636,2.3625,2.2805,2.1959,2.1045,2.0188,1.9238,1.8313,1.6531,1.5572,1.5477,1.469,1.4299,1.4299,1.4299,1.4299,1.4299,1.4299,1.4299,1.4299,1.4299,1.4299,1.4299,1.4299,1.4299,1.4299,1.4299,1.4299,1.4299,1.4299,1.4299,1.4299,0.0,0.0,0.0,0.0,0.0,0.0,0.0,0.0,0.0,0.0,0.7862,0.7903,0.7903,0.7903,0.797,0.8183,0.8204,0.8394,0.8838,0.8897,0.9006,0.9247,0.9285,0.9302,0.9302,0.9302,0.9362,0.9487,0.9519,0.9601,0.972,0.9835,0.985,0.9856,0.9943,0.998,1.0019,1.0369,1.1566,1.3252,1.3786,1.496,1.6416,1.676,1.6623,1.6197,1.5678,1.6197,1.7186,1.7537,1.8394,1.9409,1.9956,2.0265,2.0422,2.0422,2.0422,2.0374,2.0158,2.047,2.0761,2.0579,2.093,2.1317,2.1317,2.174,2.2127,2.2127,2.249,2.2792,2.2792,2.308,2.3414,2.3752,2.3613,2.3106,2.2164,2.1768,2.1492,2.1378,2.0452,2.0829,2.3353,2.26,2.191,2.1867,2.0754,1.9818,1.9143,1.8091,1.7163,1.6427,1.5163,1.4462,1.436,1.4319,1.4299,1.4299,1.4299,1.4299,1.4299,1.4299,1.4299,1.4299,1.4299,1.4326,1.436,1.436,1.438,1.4421,1.4421,1.4421,1.4421,1.4421,1.4373,1.4299,0.0,0.0,0.0,0.0,0.0,0.0,0.0,0.0,0.0,0.0,0.0,0.0,0.0,0.7903,0.797,0.8183,0.8204,0.8356,0.8787,0.8854,0.8973,0.9098,0.9242,0.9302,0.9302,0.9302,0.9362,0.9487,0.9643,0.972,0.9796,0.9915,0.9975,0.9975,0.998,0.998,1.0097,1.134,1.1882,1.2153,1.456,1.5447,1.5532,1.7237,1.7279,1.6443,1.6261,1.6372,1.6794,1.7986,1.8559,1.9047,2.0266,2.0688,2.0688,2.0688,2.0688,2.0688,2.0676,2.0882,2.1087,2.1075,2.1486,2.1885,2.1885,2.2284,2.2671,2.2671,2.2889,2.3109,2.3109,2.3082,2.3263,2.3716,2.2547,2.1749,2.2234,2.079,1.9757,1.9956,1.9761,1.9723,2.0019,2.0004,1.996,1.996,2.0053,1.9246,1.7271,1.7376,1.6588,1.4644,1.4509,1.4509,1.4502,1.4367,1.4299,1.4299,1.4299,1.4299,1.4299,1.4299,1.4299,1.4299,1.4299,1.438,1.4502,1.4502,1.459,1.4681,1.4681,1.4681,1.4681,1.4681,1.4498,1.4299,0.0,0.0,0.0,0.0,0.0,0.0,0.0,0.0,0.0,0.0,0.0,0.0,0.0,0.0,0.0,0.0,0.8204,0.8388,0.8781,0.8807,0.8889,0.8973,0.9092,0.9157,0.9157,0.9264,0.9323,0.9367,0.9405,0.9487,0.9606,0.9731,0.9829,0.9861,0.9943,1.0486,1.1301,1.1727,1.2842,1.4406,1.5134,1.6066,1.6952,1.6159,1.5876,1.5827,0.0,1.612,1.7457,1.6877,1.8078,1.972,1.9299,1.9889,2.07,2.07,2.0833,2.0966,2.0966,2.1293,2.1631,2.1631,2.203,2.2429,2.2429,2.2802,2.3128,2.2985,2.2237,2.1528,2.1331,2.045,1.9865,2.039,2.0109,1.9629,1.8961,1.8339,1.7879,1.7776,1.6784,1.6538,1.7681,1.793,1.8042,1.8042,1.7029,1.6084,1.5416,1.5521,1.53,1.4516,1.4509,1.4468,1.4373,1.4326,1.4299,1.4299,1.4299,1.4346,1.4441,1.4441,1.4496,1.459,1.459,1.4572,1.462,1.462,1.4647,1.4694,1.4694,1.4694,1.4694,1.4694,1.4633,1.459,0.0,0.0,0.0,0.0,0.0,0.0,0.0,0.0,0.0,0.0,0.0,0.0,0.0,0.0,0.0,0.0,0.0,0.8529,0.8884,0.8945,0.8938,0.8883,0.9108,0.9174,0.9033,0.9103,0.9141,0.9141,0.9141,0.9242,0.9362,0.9481,0.9601,0.9715,0.984,1.0579,1.1727,1.1727,1.2637,1.4143,1.4418,1.4935,1.5446,1.4815,1.4582,0.0,1.4485,1.5775,1.7378,1.631,1.7717,1.9735,1.872,1.9471,2.0724,2.0809,2.0966,2.1135,2.1329,2.1704,2.2066,2.2163,2.2586,2.2935,2.2935,2.3273,2.3317,2.2522,2.1497,2.0457,1.9632,1.8498,1.7903,1.8495,1.8043,1.751,1.7101,1.6364,1.5864,1.5899,1.4913,1.4636,1.5751,1.6024,1.6086,1.6086,1.509,1.4509,1.4509,1.4613,1.4647,1.4552,1.4536,1.4468,1.4373,1.4373,1.4407,1.4455,1.4455,1.4502,1.459,1.459,1.4599,1.4694,1.4694,1.4728,1.4821,1.4821,1.4848,1.4896,1.4896,1.4896,1.4896,1.4896,1.4896,1.4836,0.0,0.0,0.0,0.0,0.0,0.0,0.0,0.0,0.0,0.0,0.0,0.0,0.0,0.0,0.0,0.0,0.0,0.0,0.9099,0.9266,0.9166,0.8866,0.9291,0.9325,0.8943,0.8948,0.8948,0.8914,0.8914,0.8984,0.9109,0.9253,0.9372,0.9503,0.9654,1.0335,1.1406,1.1406,1.1444,1.1593,1.274,1.2469,1.153,1.3369,1.3486,1.2853,1.3907,1.5283,1.6564,1.615,1.7356,1.8981,1.8615,1.9506,2.0749,2.0909,2.104,2.1256,2.1667,2.2065,2.2417,2.2671,2.3002,2.3269,2.3269,2.3409,2.3013,2.1239,2.0555,1.9753,1.7961,1.7256,1.7161,1.7848,1.6342,1.5514,1.6612,1.4949,1.3842,1.4455,1.4278,1.4156,1.4299,1.4312,1.4306,1.4299,1.4428,1.4509,1.4523,1.4599,1.4681,1.4694,1.459,1.4509,1.4509,1.4516,1.4552,1.4694,1.4694,1.4701,1.4708,1.4708,1.4708,1.4714,1.4714,1.4848,1.503,1.503,1.5105,1.5181,1.5181,1.5181,1.5181,1.5181,1.5181,1.514,0.0,0.0,0.0,0.0,0.0,0.0,0.0,0.0,0.0,0.0,0.0,0.0,0.0,0.0,0.0,0.0,0.0,0.0,0.9543,0.9591,0.9543,0.9476,0.9635,0.9667,0.9564,0.9659,0.9608,0.933,0.933,0.9303,0.9264,0.9291,0.9416,0.966,0.9693,1.0372,1.1481,1.1481,1.201,1.2896,1.3066,1.324,1.3369,1.2561,1.2452,1.2702,1.2738,1.4121,1.5637,1.4164,1.5088,1.7257,1.9448,2.0388,2.0505,1.9543,2.0396,2.1509,2.0594,2.1708,2.3125,2.3198,2.2491,2.1738,2.1738,2.0718,1.9574,1.8917,1.7561,1.6295,1.5607,1.4446,1.3761,1.4376,1.415,1.4166,1.4985,1.4643,1.4342,1.4606,1.4572,1.4536,1.4468,1.4455,1.4414,1.4306,1.4333,1.4448,1.4626,1.4509,1.4471,1.4687,1.459,1.4509,1.4509,1.4579,1.4654,1.4694,1.4694,1.4801,1.4909,1.4909,1.497,1.5072,1.5072,1.5092,1.5126,1.5126,1.5147,1.5181,1.5181,1.5181,1.5181,1.5181,1.5181,1.5174,0.0,0.0,0.0,0.0,0.0,0.0,0.0,0.0,0.0,0.0,0.0,0.0,0.0,0.0,0.0,0.0,0.0,0.0,0.0,0.9927,0.9861,0.9694,0.9862,0.9899,0.9765,0.9844,0.9809,0.9658,0.9604,0.9607,0.9641,0.9407,0.9448,0.9688,0.9505,1.012,1.1263,1.1263,1.1813,0.0,0.0,1.2518,1.2467,1.1489,1.1384,1.1736,1.1678,1.3024,1.5017,1.6067,1.6806,1.7693,2.0122,2.0966,2.0805,1.9438,1.9918,2.0811,2.0348,2.124,2.2467,2.3349,2.239,2.119,2.1133,1.9724,1.81,1.7023,1.5935,1.4893,1.3923,1.2934,1.2461,1.3037,1.3091,1.341,1.4292,1.436,1.4448,1.4801,1.4735,1.466,1.4618,1.455,1.4509,1.4496,1.4373,1.4401,1.4579,1.4482,1.4496,1.4687,1.4613,1.4645,1.4713,1.4801,1.4875,1.4936,1.4936,1.4977,1.5112,1.5112,1.5106,1.5181,1.5181,1.5181,1.5181,1.5181,1.5181,1.5181,1.5181,1.5181,1.5181,1.5181,1.5181,1.5181,0.0,0.0,0.0,0.0,0.0,0.0,0.0,0.0,0.0,0.0,0.0,0.0,0.0,0.0,0.0,0.0,0.0,0.0,0.0,0.0,1.0127,0.9861,1.0127,1.0127,0.9827,0.9827,0.9883,0.9928,0.9816,0.9857,1.0062,0.9564,0.9521,0.9735,0.9417,0.987,1.0917,1.0917,1.1132,1.1462,1.1462,1.1204,1.0809,0.0,1.0881,1.0953,1.1462,1.2888,1.5177,1.9569,2.0061,1.9088,2.0663,2.1317,2.1245,2.0008,1.9634,1.9804,2.0605,2.0859,2.1333,2.33,2.2298,2.0793,2.0682,1.9105,1.7132,1.5347,1.4953,1.4431,1.2793,1.24,1.2474,1.2982,1.2908,1.318,1.4211,1.4245,1.4367,1.4976,1.4882,1.4748,1.4728,1.4665,1.4638,1.4687,1.4523,1.4441,1.4563,1.4557,1.4611,1.4721,1.4721,1.4841,1.4997,1.5044,1.5059,1.5181,1.5181,1.5181,1.5181,1.5181,1.5181,1.5181,1.5181,1.5181,1.5181,1.5181,1.5181,1.5181,1.5181,1.5181,1.5181,1.5181,1.5181,1.5181,0.0,0.0,0.0,0.0,0.0,0.0,0.0,0.0,0.0,0.0,0.9792,0.9792,0.0,0.0,0.0,0.0,0.0,0.0,0.0,0.0,0.0,1.0518,1.0585,1.0585,1.0518,1.0518,1.0399,1.0159,1.0106,1.0002,0.9853,0.9761,0.9859,1.0119,1.0048,1.0226,1.0599,1.0599,1.0635,1.0707,1.0707,1.1348,1.2337,1.2702,0.0,0.0,1.4645,1.6247,1.7956,2.0052,1.9876,1.9121,2.0852,2.1474,2.1281,2.0094,1.9837,2.0067,2.0777,2.1057,2.1581,2.3348,2.1322,1.8873,1.8875,1.6188,1.3576,1.3244,1.3053,1.2877,1.2547,1.2481,1.2651,1.3234,1.3302,1.3607,1.4491,1.4593,1.4753,1.5106,1.512,1.5059,1.4943,1.5011,1.4977,1.4708,1.4814,1.4908,1.4889,1.4774,1.4774,1.493,1.493,1.4997,1.5147,1.5194,1.516,1.5181,1.5181,1.5181,1.5181,1.5181,1.5181,1.5181,1.5181,0.0,1.5181,1.5181,1.5181,1.5181,1.5181,1.5181,1.5181,1.5181,1.5181,1.5181,0.0,0.0,0.0,0.0,0.0,0.0,0.0,0.9792,0.9792,0.9792,0.9792,0.9792,0.9792,0.9792,0.9852,0.0,0.0,0.0,0.0,0.0,0.0,1.0684,1.0684,1.0684,1.0684,1.0684,1.0658,1.0571,0.0,1.0464,1.0502,1.0255,1.0272,1.0507,1.0331,1.0333,1.0491,1.0491,1.1061,1.1879,1.1067,1.2237,1.4397,1.3836,0.0,0.0,1.6705,1.777,1.8679,2.0332,2.0486,2.0165,2.1174,2.1704,2.1662,2.0287,1.9388,1.913,2.0543,1.9715,1.9146,2.1797,1.9715,1.7043,1.6938,1.4734,1.2665,1.263,1.2556,1.2501,1.2501,1.2501,1.2651,1.3098,1.3173,1.3458,1.4278,1.4462,1.4652,1.5025,1.514,1.5153,1.5086,1.5119,1.5045,1.4977,1.497,1.4936,1.4855,1.4855,1.493,1.5079,1.5079,1.5113,1.5181,1.5181,1.5181,1.5181,1.5181,1.5181,1.5181,1.5181,1.5181,1.5181,1.5181,1.5181,1.5181,1.5181,1.5228,1.5303,1.5303,1.535,1.5411,1.533,1.535,1.5411,0.0,0.0,0.0,0.0,0.0,0.0,0.0,1.021,1.0119,0.9852,0.9792,0.9792,0.9792,0.9792,0.9839,0.0,0.0,0.0,0.0,0.0,0.0,0.0,0.0,0.0,1.0684,0.0,0.0,1.0867,1.0745,0.0,0.0,0.0,0.0,0.0,1.0636,1.0618,1.0743,1.1103,1.2094,0.0,0.0,1.3907,1.6449,0.0,0.0,0.0,0.0,1.8622,1.911,2.0509,2.1051,2.1135,2.1353,2.1752,2.1927,2.0825,1.9141,1.8123,2.0216,1.8428,1.6695,1.9866,1.8186,1.5739,1.5632,1.4065,1.2651,1.2528,1.2501,1.2501,1.2501,1.2501,1.2603,1.2955,1.3023,1.3295,1.4016,1.4231,1.4502,1.4969,1.5146,1.5194,1.5228,1.5133,1.5113,1.5221,1.5099,1.4964,1.4841,1.495,1.5065,1.5181,1.5181,1.5181,1.5181,1.5181,1.5181,1.5181,1.5181,1.5181,1.5181,1.5181,1.5181,1.5181,1.5181,1.5201,1.5228,1.5228,1.5323,1.5459,1.5459,1.5533,1.558,1.5506,1.5485,1.5573,0.0,0.0,0.0,0.0,0.0,0.0,0.0,1.1541,1.1118,0.9943,0.9792,0.9792,0.9792,0.9792,0.9798,0.0,0.0,0.0,0.0,0.0,0.0,0.0,0.0,0.0,0.0,0.0,0.0,1.0711,1.0691,0.0,0.0,0.0,0.0,0.0,0.0,1.1371,1.1584,1.2996,0.0,0.0,0.0,0.0,0.0,0.0,0.0,0.0,0.0,1.9297,2.0492,2.0702,2.0894,2.1099,2.1123,2.1341,2.1643,2.2001,1.979,1.7769,2.0132,1.8364,1.6299,1.8335,1.7199,1.5623,1.5599,1.4014,1.2522,1.2508,1.2501,1.2501,1.2501,1.2501,1.2603,1.2955,1.3111,1.3411,1.403,1.4312,1.4611,1.4976,1.5146,1.5235,1.5377,1.5377,1.5377,1.5391,1.5248,1.5153,1.514,1.5153,1.5167,1.5181,1.5181,1.5181,1.5181,1.5181,1.5181,1.5181,1.5181,1.5181,1.5181,1.5181,1.5181,1.5181,1.5181,1.5262,0.0,1.5391,1.5479,1.5566,1.5566,1.558,1.5587,1.5573,1.558,1.5587,0.0,0.0,0.0,0.0,0.0,0.0,1.1903,1.1057,1.0634,1.0906,1.0936,1.1239,1.2075,1.2165,1.1503,0.9943,0.0,0.0,0.0,0.0,0.0,0.0,0.0,0.0,0.0,0.0,1.1115,1.1967,1.1967,0.0,0.0,0.0,0.0,0.0,0.0,1.2935,1.3031,1.3638,0.0,0.0,0.0,0.0,0.0,0.0,0.0,0.0,0.0,0.0,2.07,2.07,2.0773,2.0857,2.0857,2.0942,2.116,2.1861,1.917,1.6647,1.9722,1.7512,1.4788,1.6606,1.5505,1.4029,1.4029,1.3229,1.2501,1.2501,1.2501,1.2501,1.2501,1.2501,1.2569,1.2786,1.2793,1.2983,1.358,1.377,1.4021,1.4509,1.4774,1.5011,1.5248,1.5357,1.5411,1.5411,1.5357,1.5282,1.5187,1.5181,1.5181,1.5181,1.5181,1.5181,1.5181,1.5181,1.5181,1.5181,1.5181,1.5181,1.5181,1.5181,1.5181,1.5187,1.5282,1.5357,0.0,1.5513,1.5635,1.5771,1.5771,1.5825,1.5893,1.5805,1.5825,1.5893,0.0,0.0,0.0,0.0,0.0,1.4381,1.3066,1.2105,1.1714,1.2225,1.2286,1.2646,1.3605,1.4053,1.3366,1.114,1.1736,0.0,0.0,0.0,0.0,0.0,0.0,0.0,0.0,0.0,1.1802,1.2816,1.2816,1.3565,0.0,0.0,1.4685,1.3477,0.0,0.0,0.0,0.0,0.0,0.0,0.0,0.0,0.0,0.0,0.0,0.0,0.0,0.0,0.0,0.0,0.0,2.07,2.07,2.0388,2.0239,2.1426,1.8891,1.6237,1.8925,1.6544,1.3672,1.4897,1.4102,1.3003,1.3003,1.2725,1.2501,1.2501,1.2535,1.2556,1.2508,1.2535,1.2603,1.2672,1.2678,1.2813,1.3329,1.3478,1.3709,1.4177,1.4496,1.4787,1.5092,1.5296,1.5411,1.5411,1.5371,1.5296,1.5187,1.5181,1.5181,1.5181,1.5181,1.5181,1.5181,1.5181,1.5181,1.5181,1.5181,1.5181,1.5181,1.5181,1.5181,1.5194,1.5343,1.5438,0.0,1.5642,1.5791,1.5969,1.5969,1.6037,1.6069,1.601,1.6037,1.6069,0.0,0.0,0.0,0.0,0.0,0.0,1.5747,1.554,1.5095,1.3844,1.3665,1.3695,1.3695,1.4827,1.5065,1.3784,1.2749,0.0,0.0,0.0,0.0,0.0,0.0,0.0,0.0,0.0,1.2783,1.2816,1.2816,1.3538,1.4912,1.5045,1.4446,1.3352,0.0,0.0,0.0,0.0,0.0,0.0,0.0,0.0,0.0,0.0,0.0,0.0,0.0,0.0,0.0,0.0,0.0,0.0,0.0,1.9645,1.8825,2.0887,1.9247,1.6945,1.7628,1.557,1.3254,1.3404,1.322,1.3003,1.3003,1.2725,1.2501,1.2501,1.2623,1.2638,1.2528,1.2623,1.2686,1.2693,1.2861,1.3098,1.3356,1.3612,1.3856,1.4098,1.4333,1.4638,1.4989,1.5235,1.5411,1.5411,1.5269,1.5181,1.5181,1.5181,1.5181,1.5181,1.5181,1.5181,1.5181,1.5181,1.5181,1.5181,1.5181,1.5181,1.5181,1.5181,1.5181,1.5194,1.5343,1.5499,0.0,1.5791,1.599,1.6083,1.6083,1.6083,1.6083,1.6083,1.6083,1.6083,0.0,0.0,0.0,0.0,0.0,0.0,0.0,1.4857,1.447,1.4946,1.5006,1.5332,1.6201,1.6644,1.6378,1.5095,1.4962,0.0,0.0,0.0,0.0,0.0,0.0,0.0,0.0,0.0,1.4707,1.5674,1.5674,1.6398,1.7776,1.798,1.742,1.6273,1.697,1.716,0.0,0.0,0.0,0.0,0.0,0.0,2.07,0.0,0.0,0.0,0.0,0.0,0.0,0.0,0.0,0.0,0.0,0.0,0.0,1.9867,1.7618,1.5597,1.7237,1.5391,1.3077,1.3125,1.2949,1.28,1.28,1.2644,1.2528,1.2637,1.2659,1.2745,1.2807,1.2894,1.2922,1.3017,1.303,1.3105,1.3356,1.3485,1.3675,1.4027,1.4604,1.5004,1.5106,1.5391,1.552,1.5418,1.5364,1.5296,1.5187,1.5181,1.5181,1.5181,1.5181,1.5181,1.5181,1.5181,1.5181,1.5181,1.5181,1.5181,1.5181,1.5181,1.5242,1.535,1.5499,1.5649,1.5798,1.5947,1.6035,1.6083,1.6083,1.6083,1.6083,1.6083,1.6083,1.6083,0.0,0.0,0.0,0.0,0.0,0.0,0.0,1.5628,1.5421,1.6201,1.6319,1.6614,1.742,1.7508,1.7221,1.6533,1.6796,0.0,0.0,0.0,0.0,0.0,0.0,0.0,0.0,1.6138,1.6106,1.7012,1.7012,1.7732,1.9116,1.937,1.8833,1.7634,1.8483,1.8704,0.0,0.0,0.0,0.0,0.0,0.0,2.07,0.0,0.0,0.0,0.0,0.0,0.0,0.0,0.0,0.0,0.0,0.0,0.0,0.0,1.7322,1.5627,1.6469,1.4885,1.3003,1.3003,1.284,1.2693,1.2693,1.261,1.2549,1.2659,1.2779,1.2847,1.2982,1.3043,1.3111,1.32,1.3139,1.3186,1.3444,1.3485,1.3654,1.4102,1.4765,1.5126,1.5174,1.5404,1.5513,1.5418,1.5357,1.5282,1.5187,1.5181,1.5181,1.5181,1.5181,1.5181,1.5181,1.5181,1.5181,1.5181,1.5181,1.5181,1.5181,1.5181,1.5269,1.5418,1.5526,1.5723,0.0,1.6015,1.6083,1.6083,1.6083,1.6083,1.6083,1.6083,1.6083,1.6083,0.0,0.0,0.0,0.0,0.0,0.0,0.0,1.7508,1.7537,1.7508,1.7508,1.7508,1.7508,1.7532,1.7641,1.7883,0.0,0.0,0.0,0.0,0.0,0.0,0.0,0.0,1.7173,1.7141,1.7141,1.7141,1.7141,1.7829,1.9116,1.937,1.8866,1.7836,1.9537,1.9657,0.0,0.0,0.0,0.0,0.0,0.0,0.0,0.0,0.0,0.0,0.0,0.0,0.0,0.0,0.0,0.0,0.0,0.0,0.0,0.0,0.0,0.0,0.0,1.3993,1.2969,1.2969,1.282,1.2672,1.2672,1.261,0.0,1.2672,1.2868,1.3016,1.303,1.3139,1.3227,1.3227,1.3227,1.3295,1.3545,1.3612,1.3788,1.4251,1.4699,1.5018,1.514,1.5296,1.5398,1.5398,1.5262,1.5181,1.5181,1.5181,1.5181,1.5181,1.5181,1.5181,1.5181,1.5181,1.5181,1.5181,1.5181,1.5181,1.5181,1.5181,1.5269,0.0,1.5533,1.5723,1.5928,1.6071,1.6083,1.6083,1.6083,1.6083,1.6083,1.6083,1.6083,1.6083,0.0,0.0,0.0,0.0,0.0,0.0,0.0,0.0,0.0,0.0,1.7508,1.7508,1.7508,1.7689,1.7835,0.0,0.0,0.0,0.0,0.0,0.0,0.0,0.0,0.0,1.8612,1.8612,1.8612,1.8612,1.8612,1.8784,1.9116,1.937,1.9451,1.938,2.0023,2.0253,0.0,0.0,0.0,0.0,0.0,0.0,0.0,0.0,0.0,0.0,2.07,2.07,0.0,0.0,0.0,0.0,0.0,0.0,0.0,0.0,1.7252,1.6686,1.3875,0.0,1.261,1.261,1.2583,1.2556,0.0,1.2617,1.2718,1.2874,1.3064,1.32,1.3275,1.3322,1.3349,1.3349,1.3349,1.341,1.3558,1.3926,1.4183,1.4285,1.4699,1.4936,1.4848,1.5079,1.5235,1.5235,1.5201,1.5181,1.5181,1.5181,1.5181,1.5181,1.5181,1.5181,1.5181,1.5181,1.5181,1.5181,1.5181,1.5181,1.5181,1.5181,1.533,1.5539,1.5573,1.5784,1.6078,1.6069,1.6083,1.6083,1.6083,1.6083,1.6083,1.6083,1.6083,1.6083,0.0,0.0,0.0,0.0,0.0,0.0,0.0,0.0,0.0,0.0,0.0,0.0,0.0,0.0,0.0,0.0,0.0,0.0,0.0,0.0,0.0,0.0,0.0,1.9104,1.9104,1.9104,1.9104,1.9104,1.9104,1.9165,1.9298,1.9564,1.9842,2.0108,2.0374,2.0567,0.0,0.0,0.0,0.0,2.07,0.0,0.0,0.0,0.0,0.0,2.07,2.07,0.0,2.07,2.07,2.0724,0.0,0.0,0.0,0.0,1.7095,1.6694,1.3382,1.2501,1.2501,1.2501,1.2501,1.2501,1.2501,1.2617,1.2773,1.2969,1.3111,1.322,1.337,1.3403,1.3403,1.3403,1.3458,1.358,1.3804,1.4102,1.4326,1.4387,1.4794,1.5011,1.4862,1.5113,1.5255,1.5187,1.5181,1.5181,1.5181,1.5181,1.5181,1.5181,1.5181,1.5181,1.5181,1.5181,1.5181,1.5181,1.5181,1.5181,1.5181,1.5181,1.5309,1.5492,1.556,1.5764,1.603,1.6056,1.6083,1.6083,1.6083,1.6083,1.6083,1.6083,1.6083,1.6083,0.0,0.0,0.0,0.0,0.0,0.0,0.0,0.0,0.0,0.0,0.0,0.0,0.0,0.0,0.0,0.0,0.0,0.0,0.0,0.0,0.0,0.0,1.9104,1.9104,1.9104,1.9104,1.9104,1.9104,1.9152,1.9285,1.9503,1.983,2.0086,2.0386,2.0603,2.07,0.0,0.0,0.0,0.0,2.07,0.0,0.0,0.0,0.0,0.0,0.0,0.0,0.0,2.07,2.07,2.0749,2.1015,0.0,0.0,0.0,0.0,0.0,1.3382,1.2501,1.2501,1.2501,1.2501,1.2501,1.2501,1.2637,1.28,1.2975,1.3132,1.3288,1.3376,1.3403,1.3403,1.3403,1.3546,1.3756,1.4078,1.4204,1.4346,1.4468,1.4855,1.5065,1.495,1.5201,1.5323,1.5194,1.5181,1.5181,1.5181,1.5181,1.5181,1.5181,1.5181,1.5181,1.5181,1.5181,1.5181,1.5181,1.5181,1.5181,1.5181,1.5181,1.5269,1.5418,1.5526,0.0,1.5915,1.6015,1.6083,1.6083,1.6083,1.6083,1.6083,1.6083,1.6083,1.6083,0.0,0.0,0.0,0.0,0.0,0.0,0.0,0.0,0.0,0.0,0.0,0.0,0.0,0.0,0.0,0.0,0.0,0.0,0.0,0.0,0.0,1.9104,1.9104,1.9104,1.9104,1.9104,1.9104,1.9104,1.9334,1.9455,1.9503,2.0011,2.0398,2.064,2.0688,2.07,2.07,0.0,0.0,0.0,2.07,0.0,0.0,0.0,0.0,0.0,0.0,0.0,0.0,2.07,2.07,2.0749,2.1015,0.0,0.0,0.0,0.0,0.0,1.3382,1.2501,1.2501,1.2501,1.2501,1.2501,1.2501,1.2725,1.2975,1.2996,1.322,1.337,1.3397,1.3403,1.3403,1.3403,1.3627,1.3871,1.4091,1.4204,1.4306,1.4333,1.4566,1.4755,1.4735,1.5045,1.5208,1.5181,1.5181,1.5181,1.5181,1.5181,1.5181,1.5181,1.5181,1.5181,1.5181,1.5181,1.5181,1.5181,1.5181,1.5181,1.5181,1.5181,1.5269,1.5418,0.0,1.5723,1.5915,1.6015,1.6083,1.6083,1.6083,1.6083,1.6083,1.6083,1.6083,1.6083,0.0,0.0,0.0,0.0,0.0,0.0,0.0,0.0,0.0,0.0,0.0,0.0,0.0,0.0,0.0,0.0,0.0,0.0,0.0,0.0,1.9104,1.9104,1.9104,1.9104,1.9104,1.9104,1.9177,1.9322,1.9443,1.9648,1.995,2.0337,2.0591,2.07,2.07,2.07,2.07,2.07,2.07,0.0,0.0,0.0,0.0,0.0,0.0,0.0,0.0,0.0,0.0,0.0,2.0797,2.0966,2.1232,0.0,0.0,0.0,0.0,0.0,1.3151,1.2501,1.2501,1.2501,1.2501,1.2522,1.261,1.28,1.3023,1.3098,1.3247,1.3403,1.3403,1.3464,1.358,1.3736,1.3804,1.3883,1.4163,1.4183,1.4204,1.4292,1.4563,1.4694,1.4694,1.5011,1.5181,1.5181,1.5181,1.5181,1.5181,1.5181,1.5181,1.5181,1.5181,1.5181,1.5181,1.5181,1.5181,1.5181,1.5181,1.5181,1.5181,1.5181,1.5269,1.5418,0.0,1.5723,1.5915,1.6015,1.6083,1.6083,1.6083,1.6083,1.6083,1.6083,1.6083,1.6083,0.0,0.0,0.0,0.0,0.0,0.0,0.0,0.0,0.0,0.0,0.0,0.0,0.0,0.0,0.0,0.0,0.0,0.0,0.0,0.0,1.9104,1.9104,1.9165,1.9201,1.9201,1.9201,1.9334,1.96,1.966,1.9938,2.041,2.0603,2.07,2.07,2.07,2.07,2.07,2.07,2.07,0.0,0.0,0.0,0.0,0.0,0.0,0.0,0.0,0.0,0.0,0.0,0.0,0.0,0.0,0.0,0.0,1.8343,1.6808,1.5135,1.3491,1.2811,1.2508,1.2549,1.2556,1.2583,1.2665,1.2901,1.3132,1.3248,1.3349,1.3451,1.3451,1.3553,1.3673,1.3973,1.3946,1.3987,1.4258,1.4197,1.417,1.4285,1.4563,1.4694,1.4694,1.5011,1.5181,1.5181,1.5181,1.5181,1.5181,1.5181,1.5181,1.5181,1.5181,1.5181,1.5181,1.5181,1.5181,1.5181,1.5181,1.5181,1.5181,1.5181,1.5269,1.5418,1.5526,1.5723,1.5915,1.6015,1.6083,1.6083,1.6083,1.6083,1.6083,1.6083,1.6083,1.6083,0.0,0.0,0.0,0.0,0.0,0.0,0.0,0.0,0.0,0.0,0.0,0.0,0.0,0.0,0.0,0.0,0.0,0.0,0.0,0.0,1.9104,1.9104,1.9346,1.9467,1.9467,1.9467,1.9612,1.9857,2.0132,2.0398,2.0676,2.0688,2.07,2.07,2.07,2.07,2.07,2.07,2.07,2.07,0.0,0.0,0.0,0.0,0.0,0.0,0.0,0.0,0.0,0.0,0.0,0.0,0.0,0.0,2.143,2.0047,1.8479,1.6846,1.5165,1.3645,1.2535,1.2638,1.2672,1.2679,1.2686,1.3064,1.337,1.3383,1.3505,1.3572,1.3572,1.3578,1.3639,1.3788,1.3966,1.4109,1.4278,1.4292,1.4285,1.4299,1.4563,1.4694,1.4694,1.5011,1.5181,1.5181,1.5181,1.5181,1.5181,1.5181,1.5181,1.5181,1.5181,1.5181,1.5181,1.5181,1.5181,1.5181,1.5181,1.5181,1.5181,1.5181,1.5269,1.5418,1.5526,1.5723,1.5915,1.6015,1.6083,1.6083,1.6083,1.6083,1.6083,1.6083,1.6083,1.6083,0.0,0.0,0.0,0.0,0.0,0.0,0.0,0.0,0.0,0.0,0.0,0.0,0.0,0.0,0.0,0.0,0.0,0.0,0.0,1.9104,1.9177,1.9346,1.9443,1.966,1.9999,1.9842,1.989,2.0168,2.0422,2.0603,2.07,2.07,2.07,2.07,2.07,2.0804,2.1012,2.0804,2.0804,2.0977,2.077,0.0,0.0,0.0,0.0,0.0,0.0,0.0,0.0,0.0,2.1135,2.1401,2.1667,2.1222,2.0501,1.994,1.791,1.5701,1.5059,1.3722,1.2535,1.2652,1.28,1.2922,1.3105,1.3281,1.3424,1.3526,1.3619,1.372,1.372,1.3838,1.3919,1.3973,1.4116,1.4265,1.4414,1.4353,1.4333,1.4421,1.4566,1.4694,1.4694,1.5011,1.5181,1.5181,1.5181,1.5181,1.5181,1.5181,1.5181,1.5181,1.5181,1.5181,1.5181,1.5181,1.5181,1.5181,1.5181,1.5181,1.5181,1.5181,1.5316,1.5506,1.5566,1.5771,1.6051,1.6056,1.6083,1.6083,1.6083,1.6083,1.6083,1.6083,1.6083,1.6083,0.0,0.0,0.0,0.0,0.0,0.0,0.0,0.0,0.0,0.0,0.0,0.0,0.0,0.0,0.0,0.0,0.0,0.0,1.9092,1.9189,1.931,1.9491,1.9588,1.9842,2.0301,2.0132,2.0168,2.0434,2.0616,2.07,2.07,2.07,2.07,2.07,2.07,2.0839,2.1047,2.0804,2.0908,2.1173,2.0943,2.0873,0.0,0.0,0.0,0.0,0.0,0.0,0.0,0.0,2.1341,2.1667,2.1849,2.1289,2.05,1.9962,1.7834,1.5586,1.5059,1.3759,1.261,1.2766,1.2915,1.3159,1.3458,1.3539,1.3587,1.3736,1.3768,1.3795,1.3795,1.3926,1.4014,1.4105,1.4197,1.4333,1.4428,1.436,1.4333,1.4434,1.4577,1.464,1.4687,1.497,1.5133,1.5181,1.5181,1.5181,1.5181,1.5181,1.5181,1.5181,1.5181,1.5181,1.5181,1.5181,1.5181,1.5181,1.5181,1.5181,1.5181,1.5181,1.535,1.5593,1.5593,1.5805,1.6083,1.6083,1.6083,1.6083,1.6083,1.6083,1.6083,1.6083,1.6083,1.6083,0.0,0.0,0.0,0.0,0.0,0.0,0.0,0.0,0.0,0.0,0.0,0.0,0.0,0.0,0.0,0.0,0.0,0.0,1.9116,1.9358,1.9503,1.9503,1.9769,2.0014,2.0313,2.0313,2.0446,2.07,2.07,2.07,2.07,2.07,2.07,2.07,2.07,2.07,2.07,2.07,2.0908,2.1207,2.1207,2.1207,0.0,0.0,0.0,0.0,0.0,0.0,0.0,0.0,2.1462,2.1909,2.1873,2.2054,2.1948,2.0274,1.863,1.6998,1.5365,1.381,1.2766,1.2962,1.3111,1.3295,1.3693,1.3795,1.3842,1.4041,1.3953,1.3802,1.3802,1.3802,1.3856,1.4091,1.4197,1.4299,1.4299,1.4299,1.4299,1.4299,1.4428,1.457,1.4674,1.4875,1.5078,1.5167,1.5181,1.5181,1.5181,1.5181,1.5181,1.5181,1.5181,1.5181,1.5181,1.5181,1.5181,1.5181,1.5181,1.5181,1.5181,1.5181,1.535,1.5593,1.5593,1.5805,1.6083,1.6083,1.6083,1.6083,1.6083,1.6083,1.6083,1.6083,1.6083,1.6083,0.0,0.0,0.0,0.0,0.0,0.0,0.0,0.0,0.0,0.0,0.0,0.0,0.0,0.0,0.0,0.0,0.0,0.0,1.9358,1.9455,1.9672,2.0059,2.0156,2.0313,2.0579,2.0591,2.0628,2.07,2.07,2.07,2.07,2.0943,2.0943,2.07,2.0943,2.1047,2.1047,2.1047,2.1116,2.1207,2.1207,2.1047,2.0908,0.0,0.0,0.0,0.0,0.0,0.0,0.0,0.0,0.0,2.0754,2.0482,2.0237,1.8592,1.6922,1.5544,1.5214,1.3938,1.2753,1.3084,1.322,1.3424,1.372,1.372,1.3754,1.4156,1.4278,1.4278,1.4183,1.4245,1.4258,1.4139,1.4197,1.4333,1.4434,1.4367,1.434,1.4434,1.4482,1.4529,1.4577,1.4814,1.5037,1.5078,1.5173,1.5181,1.5181,1.5181,1.5181,1.5181,1.5181,1.5181,1.5181,1.5181,1.5181,1.5181,1.5181,1.5181,1.5181,1.5181,1.535,1.5593,1.5593,1.5805,1.6083,1.6083,1.6083,1.6083,1.6083,1.6083,1.6083,1.6083,1.6083,1.6083,0.0,0.0,0.0,0.0,0.0,0.0,0.0,0.0,0.0,0.0,1.7605,1.7786,0.0,0.0,0.0,0.0,0.0,0.0,0.0,1.9829,2.0163,2.0459,2.0505,2.0522,2.0543,2.0652,2.077,2.0908,2.0908,2.0977,2.1151,2.1173,2.1069,2.0908,2.1116,2.1151,2.1012,2.1323,2.1449,2.1449,2.1587,2.1449,2.1185,0.0,0.0,0.0,0.0,0.0,0.0,0.0,0.0,0.0,2.1066,2.0349,1.9472,1.7872,1.6198,1.4792,1.4314,1.3515,1.2895,1.3186,1.3376,1.3553,1.3747,1.3869,1.4055,1.4326,1.4407,1.4421,1.4387,1.436,1.4299,1.4183,1.4238,1.4333,1.4414,1.4353,1.4333,1.4421,1.4428,1.4448,1.4509,1.4679,1.4841,1.501,1.5052,1.512,1.5181,1.5181,1.5181,1.5181,1.5181,1.5181,1.5181,1.5181,1.5181,1.5181,1.5181,1.5181,1.5181,1.5181,1.5316,1.5506,1.5676,1.5859,1.6083,1.6083,1.6083,1.6083,1.6083,1.6083,1.6083,1.6083,1.6083,1.6076,0.0,0.0,0.0,0.0,0.0,0.0,0.0,0.0,0.0,0.0,1.7762,1.7919,0.0,0.0,0.0,0.0,0.0,0.0,0.0,0.0,2.0789,2.0848,2.0848,2.0712,2.0452,2.0683,2.0977,2.1311,2.1207,2.138,2.1794,2.1415,2.1242,2.1242,2.1242,2.1081,2.0839,2.1531,2.1772,2.1772,2.2104,2.2082,2.181,2.1763,0.0,0.0,0.0,0.0,0.0,0.0,0.0,0.0,2.196,2.0812,1.9245,1.7483,1.588,1.44,1.3112,1.2874,1.3091,1.3349,1.3546,1.3666,1.3808,1.4173,1.4529,1.4516,1.4421,1.438,1.4509,1.4299,1.415,1.4278,1.4299,1.4299,1.4299,1.4299,1.4299,1.4299,1.4299,1.4353,1.4482,1.4502,1.4631,1.4909,1.5003,1.5025,1.52,1.5174,1.5181,1.5181,1.5181,1.5181,1.5181,1.5181,1.5181,1.5181,1.5181,1.5181,1.5181,1.5181,1.5269,1.5425,1.5772,1.5983,1.6062,1.6076,1.6083,1.6083,1.6083,1.6083,1.6083,1.6069,1.6062,1.6042,0.0,0.0,0.0,0.0,0.0,0.0,0.0,0.0,0.0,0.0,0.0,0.0,0.0,0.0,0.0,0.0,0.0,0.0,0.0,0.0,2.0603,2.1086,2.1121,2.1236,2.1477,2.1527,2.1725,2.207,2.122,2.1151,2.1794,2.1691,2.1656,2.1656,2.1656,2.1634,2.1553,2.1725,2.1622,2.1346,2.176,2.183,2.1705,2.167,2.1951,0.0,0.0,0.0,0.0,0.0,0.0,0.0,1.9283,1.8214,1.7378,1.454,1.3454,1.3165,1.3124,1.3105,1.32,1.3505,1.3783,1.4014,1.417,1.441,1.4613,1.4536,1.4539,1.4613,1.464,1.4543,1.4394,1.4312,1.4299,1.4299,1.4299,1.4299,1.4299,1.4299,1.4299,1.4312,1.434,1.4448,1.4536,1.4604,1.4835,1.503,1.5064,1.512,1.5181,1.5181,1.5181,1.5181,1.5181,1.5181,1.5181,1.5181,1.5181,1.5181,1.5181,1.5181,1.5269,1.5425,1.5772,1.5922,1.5962,1.6085,1.6083,1.6083,1.6083,1.6083,1.6069,1.5996,1.5949,1.5928,0.0,0.0,0.0,0.0,0.0,0.0,0.0,0.0,0.0,0.0,0.0,0.0,0.0,0.0,0.0,0.0,0.0,0.0,0.0,0.0,2.1402,2.1712,2.1725,2.1656,2.1518,2.1691,2.1897,2.207,2.1496,2.1587,2.231,2.2138,2.2035,2.2035,2.2035,2.1932,2.1829,2.2173,2.2181,2.1998,2.2358,2.2492,2.2395,2.2395,2.2454,2.2575,2.2507,0.0,0.0,0.0,0.0,0.0,0.0,0.0,1.7011,1.461,1.3404,1.2888,1.3152,1.3214,1.3261,1.3592,1.396,1.4204,1.4285,1.4421,1.4523,1.4516,1.4692,1.4808,1.4613,1.4563,1.4468,1.4326,1.4299,1.4299,1.4299,1.4299,1.4299,1.4299,1.4299,1.4299,1.4299,1.4367,1.4441,1.4509,1.4658,1.4814,1.501,1.5085,1.5113,1.5181,1.5181,1.5181,1.5181,1.5181,1.5181,1.5181,1.5181,1.5181,1.5181,1.5181,1.5269,1.5418,1.5574,1.5683,1.5757,1.5839,1.5872,1.5872,1.5872,1.5872,1.5859,1.5778,1.575,1.573,0.0,0.0,0.0,0.0,0.0,0.0,0.0,0.0,0.0,0.0,0.0,0.0,0.0,0.0,0.0,0.0,0.0,0.0,0.0,0.0,0.0,2.231,2.231,2.2035,2.1518,2.1829,2.2001,2.2001,2.2001,2.231,2.2893,2.2482,2.2345,2.2413,2.2345,2.2199,2.2112,2.2664,2.287,2.2889,2.3183,2.3298,2.3262,2.3132,2.2975,2.2851,2.2631,2.2596,2.2558,2.2446,0.0,0.0,0.0,0.0,1.6895,1.5332,1.4003,1.3071,1.3214,1.3247,1.3376,1.3707,1.4031,1.4299,1.4299,1.4319,1.4367,1.4455,1.4679,1.4787,1.4557,1.4489,1.4434,1.4319,1.4299,1.4299,1.4299,1.4299,1.4299,1.4299,1.4299,1.4299,1.4299,1.4299,1.4346,1.4468,1.4496,1.4624,1.4875,1.4989,1.5071,1.514,1.5167,1.5181,1.5181,1.5181,1.5181,1.5181,1.5181,1.5181,1.5181,1.5181,1.5248,1.5371,1.5398,1.5486,1.5553,1.558,1.5593,1.5593,1.5593,1.5593,1.5587,1.556,1.5553,1.5533,0.0,0.0,0.0,0.0,0.0,0.0,0.0,0.0,0.0,0.0,1.9392,1.9889,0.0,0.0,0.0,0.0,0.0,0.0,2.2074,0.0,0.0,2.231,2.231,2.2413,2.2654,2.2722,2.2756,2.2756,2.2756,2.2791,2.2893,2.2482,2.2482,2.2791,2.2448,2.2592,2.3086,2.2898,2.2928,2.3132,2.3216,2.335,2.3489,2.2835,2.3305,2.4177,2.3215,2.3227,2.3674,2.3042,2.1861,0.0,0.0,0.0,1.5237,1.3876,1.3328,1.322,1.3329,1.3559,1.372,1.3781,1.4031,1.4299,1.4299,1.4394,1.4455,1.4346,1.436,1.4414,1.4496,1.4414,1.4326,1.4306,1.4299,1.4299,1.4299,1.4299,1.4299,1.4299,1.4299,1.4299,1.4299,1.4299,1.4306,1.4326,1.4441,1.4529,1.457,1.4828,1.5023,1.5044,1.512,1.5181,1.5181,1.5181,1.5181,1.5181,1.5181,1.5181,1.5181,1.5181,1.5194,1.5221,1.535,1.5425,1.5452,1.5539,1.5593,1.5593,1.5593,1.5593,1.5573,1.5493,1.5438,1.5418,0.0,0.0,0.0,0.0,0.0,0.0,0.0,0.0,0.0,0.0,0.0,2.0862,0.0,0.0,0.0,2.2068,2.1991,2.2112,2.2606,2.2413,2.2413,2.2619,2.2654,2.2619,2.2551,2.2791,2.2791,2.2551,2.2791,2.2893,2.2893,2.286,2.294,2.3126,2.2953,2.3112,2.3567,2.3426,2.3527,2.3756,2.3756,2.3928,2.4106,2.3788,2.3927,2.4193,2.3711,2.3451,2.3191,2.1936,2.0929,1.9722,1.7082,0.0,0.0,0.0,1.3152,1.3227,1.3254,1.3431,1.3592,1.3754,1.4007,1.4197,1.4278,1.4346,1.4373,1.4312,1.4299,1.4319,1.438,1.4407,1.4394,1.4312,1.4299,1.4299,1.4299,1.4299,1.4299,1.4299,1.4299,1.4299,1.4299,1.4299,1.4299,1.4299,1.436,1.4428,1.4509,1.4719,1.4841,1.4841,1.5065,1.5147,1.5112,1.514,1.5181,1.5181,1.5181,1.5181,1.5181,1.5181,1.5181,1.5187,1.5255,1.5282,1.5289,1.5357,1.5384,1.5384,1.5384,1.5384,1.5377,1.5309,1.5282,1.5276,0.0,0.0,0.0,0.0,0.0,0.0,0.0,0.0,0.0,0.0,0.0,0.0,0.0,0.0,0.0,0.0,2.2448,2.2585,2.2859,2.2619,2.2585,2.2893,2.2893,2.2756,2.2448,2.2756,2.2756,2.2448,2.2836,2.3014,2.3027,2.33,2.3474,2.3541,2.3474,2.3607,2.391,2.391,2.4048,2.4279,2.3865,2.3799,2.392,2.3426,2.3091,2.2905,2.2831,2.2421,0.0,2.0414,1.9506,1.8512,1.6012,1.5146,0.0,0.0,0.0,1.3159,1.3159,1.3254,1.3451,1.3632,1.3871,1.4055,1.4204,1.4245,1.4251,1.4292,1.4299,1.4299,1.4299,1.4387,1.4421,1.4319,1.4299,1.4299,1.4299,1.4299,1.4299,1.4299,1.4299,1.4299,1.4299,1.4299,1.4299,1.4299,1.4299,1.4346,1.4448,1.4604,1.4633,1.4633,1.497,1.5059,1.4916,1.5018,1.5092,1.5126,1.5086,1.5113,1.5181,1.5147,1.5147,1.5181,1.5181,1.5181,1.5181,1.5181,1.5181,1.5181,1.5181,1.5181,1.5181,1.5181,1.5181,1.5181,0.0,0.0,0.0,0.0,0.0,0.0,0.0,0.0,0.0,0.0,0.0,0.0,2.2351,2.2332,2.2435,2.2825,2.2859,2.2859,2.2893,2.2859,2.2859,2.2893,2.2893,0.0,2.2859,2.2893,2.2893,2.2859,2.3153,2.3265,2.3278,2.3607,2.3888,2.4142,2.391,2.3901,2.4182,2.4182,2.4342,2.4462,2.2918,2.2322,2.2111,2.0199,1.9698,1.9962,1.9596,0.0,0.0,0.0,0.0,0.0,1.5541,1.4446,1.3288,0.0,0.0,0.0,1.3009,1.318,1.3403,1.3417,1.3641,1.3849,1.4048,1.4125,1.4166,1.4272,1.4299,1.4299,1.4299,1.4306,1.4306,1.4299,1.4299,1.4299,1.4299,1.4299,1.4299,1.4299,1.4299,1.4299,1.4299,1.4299,1.4299,1.4299,1.4299,1.4306,1.4312,1.4448,1.4523,1.4523,1.4821,1.4909,1.4708,1.4714,1.4835,1.5023,1.4835,1.4909,1.5174,1.5091,1.5105,1.5181,1.5181,1.5181,1.5181,1.5181,1.5181,1.5181,1.5181,1.5181,1.5181,1.5181,1.5181,1.5181,0.0,0.0,0.0,0.0,0.0,0.0,0.0,0.0,0.0,0.0,0.0,0.0,0.0,2.2553,2.2756,2.2893,2.2893,2.2893,2.2893,2.2893,2.2893,2.2893,2.2893,2.2893,2.2893,2.2893,2.2987,2.3153,2.3238,2.342,2.3621,2.3915,2.4102,2.4195,2.4102,2.4209,2.4439,2.4439,2.4506,2.4451,2.2868,2.2185,2.1999,2.0263,1.9661,0.0,0.0,0.0,0.0,0.0,0.0,0.0,0.0,0.0,1.3372,1.2995,1.2786,1.2751,1.2948,1.3077,1.3227,1.3478,1.3585,1.37,1.3892,1.4,1.4132,1.4143,1.4231,1.4299,1.4299,1.4299,1.4299,1.4299,1.4299,1.4299,1.4299,1.4299,1.4299,1.4299,1.4299,1.4299,1.4299,1.4299,1.4299,1.4299,1.4299,1.4299,1.4299,1.4434,1.4468,1.438,1.4665,1.4748,1.4694,1.4694,1.4721,1.4821,1.4721,1.4748,1.4896,1.495,1.5044,1.5098,1.5147,1.5181,1.5181,1.5181,1.5181,1.5181,1.5181,1.5181,1.5181,1.5181,1.5181,1.5181,0.0,0.0,0.0,0.0,0.0,0.0,0.0,0.0,0.0,2.2091,0.0,0.0,0.0,0.0,2.2893,2.2893,2.2893,2.2893,2.2893,2.2893,2.2893,2.2893,2.2893,2.2947,2.302,2.2947,2.3094,2.3474,2.3474,2.3621,2.3928,2.4209,2.4342,2.4342,2.4342,2.4412,2.4599,2.4599,2.4599,2.4414,2.226,2.1389,2.1164,1.9019,1.8235,0.0,0.0,0.0,0.0,0.0,0.0,0.0,0.0,0.0,0.0,1.2899,1.2698,1.2637,1.2935,1.3037,1.3146,1.3403,1.3512,1.3593,1.3693,1.3851,1.3939,1.3987,1.4116,1.4224,1.4224,1.4265,1.4299,1.4299,1.4299,1.4299,1.4299,1.4299,1.4299,1.4299,1.4299,1.4299,1.4299,1.4299,1.4299,1.4299,1.4299,1.4299,1.4299,1.4387,1.4421,1.4373,1.4516,1.4572,1.462,1.4572,1.4572,1.462,1.4572,1.4599,1.4694,1.4794,1.4875,1.5023,1.5072,1.514,1.5181,1.5181,1.5181,1.5181,1.5181,1.5181,1.5181,1.5181,1.5181,1.5181,0.0,0.0,0.0,0.0,0.0,0.0,0.0,0.0,2.2756,2.2345,0.0,0.0,0.0,0.0,0.0,2.2893,2.2893,2.2893,2.2893,2.2893,2.2893,2.2907,2.2907,2.302,2.3305,2.3046,2.3215,2.3817,2.3817,2.3928,2.4222,2.4466,2.4599,2.4599,2.4599,2.4599,2.4599,2.4599,2.4599,2.4327,2.1127,1.9849,1.9434,1.6292,0.0,0.0,1.5197,1.5082,0.0,1.4915,0.0,0.0,0.0,0.0,0.0,0.0,0.0,1.2733,0.0,0.0,0.0,1.322,1.3288,1.3437,1.3545,1.3578,1.3619,1.3761,1.396,1.4112,1.4119,1.419,1.4292,1.4299,1.4299,1.4299,1.4299,1.4299,1.4299,1.4299,1.4299,1.4299,1.4299,1.4299,1.4299,1.4299,1.4299,1.4299,1.4299,1.4299,1.4367,1.4502,1.4373,1.4367,1.4502,1.4367,1.4367,1.4502,1.4367,1.4448,1.4674,1.4577,1.4672,1.5003,1.5017,1.5052,1.5174,1.5181,1.5181,1.5181,1.5181,1.5181,1.5181,1.5181,1.5181,1.5181,0.0,0.0,0.0,0.0,0.0,0.0,2.1851,2.219,2.2413,0.0,0.0,0.0,2.2516,2.2722,2.2893,2.2893,2.2893,2.2893,2.2893,2.2893,2.3,2.3193,2.3193,2.334,2.3647,2.3603,2.3736,2.4088,2.4088,2.4235,2.4479,2.4559,2.4599,2.4599,2.4599,2.4599,2.4599,2.4599,2.4599,2.4414,2.2372,2.0827,1.9585,1.7512,0.0,0.0,0.0,1.5279,1.5313,0.0,1.5233,1.4994,0.0,0.0,0.0,0.0,0.0,0.0,1.3111,0.0,0.0,0.0,0.0,0.0,1.3431,1.3464,1.3505,1.3612,1.3761,1.3939,1.4048,1.4153,1.417,1.4285,1.4299,1.4299,1.4299,1.4299,1.4299,1.4299,1.4299,1.4299,1.4299,1.4299,1.4299,1.4299,1.4299,1.4299,1.4299,1.4299,1.4319,1.4353,1.4319,1.4319,1.436,1.4319,1.4319,1.436,1.4319,1.434,1.4421,1.4482,1.4557,1.4652,1.4875,1.5037,1.5038,1.514,1.5181,1.5181,1.5181,1.5181,1.5181,1.5181,1.5181,1.5181,0.0,0.0,0.0,0.0,0.0,2.207,2.2035,2.231,2.2482,0.0,0.0,0.0,2.2585,2.2756,2.2893,2.2893,2.2893,2.2893,2.2893,2.2893,2.3041,2.3278,2.3292,2.3527,2.3941,2.387,2.3968,2.4382,2.4262,2.4356,2.4599,2.4599,2.4253,2.3624,2.4459,2.4014,2.2767,2.3491,2.4112,2.4414,2.2111,2.0706,1.9686,1.7376,1.6056,0.0,0.0,0.0,1.5699,1.5699,1.5562,0.0,0.0,0.0,0.0,0.0,0.0,0.0,0.0,1.3268,1.3288,1.3376,0.0,0.0,1.3288,1.3261,1.3241,1.3329,1.3512,1.3682,1.3777,1.3989,1.4146,1.419,1.4258,1.4299,1.4299,1.4299,1.4299,1.4299,1.4299,1.4299,1.4299,1.4299,1.4299,1.4299,1.4299,1.4299,1.4299,1.4299,1.4299,1.4299,1.4299,1.4299,1.4299,1.4299,1.4299,1.4299,1.4299,1.4299,1.4306,1.4387,1.4455,1.4523,1.4699,1.4814,1.4889,1.5031,1.5126,1.5181,1.5181,1.5181,1.5181,1.5181,1.5181,1.5181,0.0,0.0,2.1484,2.2138,2.2035,2.1966,2.2242,2.2585,2.2722,0.0,2.2688,2.2893,2.2893,2.2893,2.2893,2.2893,2.2893,2.2893,2.2893,2.2893,2.3054,2.3332,2.338,2.3612,2.4235,2.3995,2.4115,2.4599,2.4382,2.4396,2.4653,2.4454,2.3601,2.2357,2.3895,2.2911,2.0194,2.1769,2.3066,2.3809,2.0973,1.9832,1.9545,0.0,1.5638,1.5812,1.5812,1.5894,1.6007,1.6007,1.5689,0.0,0.0,0.0,0.0,0.0,1.3322,0.0,0.0,0.0,0.0,0.0,1.3288,0.0,1.3234,1.3125,1.303,1.305,1.322,1.3403,1.3424,1.3756,1.4078,1.4112,1.4183,1.4278,1.4299,1.4299,1.4299,1.4299,1.4299,1.4299,1.4299,1.4299,1.4299,1.4299,1.4299,1.4299,1.4299,1.4299,1.4299,1.4299,1.4299,1.4299,1.4299,1.4299,1.4306,1.4326,1.4306,1.4306,1.4326,1.4306,1.4367,1.4489,1.4502,1.459,1.4681,1.4882,1.5031,1.516,1.5174,1.5181,1.5181,1.5181,1.5181,1.5181,0.0,0.0,2.1725,2.1863,2.207,2.2207,2.2276,2.2379,2.2516,2.2756,2.2859,2.2893,2.2893,2.2893,2.2893,2.2893,2.2893,2.2893,2.2893,2.2893,2.3148,2.3696,2.3688,2.3955,2.4506,2.4452,2.4492,2.4599,2.4546,2.4703,2.4959,2.3568,2.2873,2.2735,2.1704,2.0803,2.0128,2.0593,2.0775,2.0699,2.0244,1.9345,1.8269,1.7601,1.6734,1.5812,1.5812,1.5894,1.6007,1.6007,1.5942,1.5778,0.0,0.0,0.0,1.4407,0.0,0.0,0.0,0.0,0.0,0.0,0.0,0.0,1.3329,1.3282,1.3207,1.3288,1.3363,1.3437,1.3518,1.3654,1.3797,1.4078,1.4139,1.4156,1.4285,1.4299,1.4299,1.4299,1.4299,1.4299,1.4299,1.4299,1.4299,1.4299,1.4299,1.4299,1.4299,1.4299,1.4299,1.4299,1.4299,1.4299,1.4299,1.4299,1.436,1.4468,1.4353,1.436,1.4468,1.4353,1.4319,1.4346,1.4462,1.4529,1.457,1.4719,1.4875,1.5071,1.514,1.5181,1.5181,1.5181,1.5181,1.5181,2.1427,2.1484,2.1553,2.176,2.207,2.231,2.231,2.2482,2.2654,2.2859,2.2893,2.3014,2.3322,2.318,2.3153,2.3335,2.3348,2.3295,2.31,2.31,2.33,2.379,2.3803,2.4035,2.4586,2.4746,2.4863,2.4863,2.4959,2.5144,2.5291,2.4404,2.3181,2.1718,2.1804,2.0359,1.787,1.8828,1.8651,1.79,1.867,1.8544,1.7833,1.711,1.6466,1.591,1.591,1.5926,1.6007,1.6007,1.6007,0.0,0.0,1.5092,1.4713,0.0,1.4266,1.3818,0.0,0.0,0.0,1.3445,0.0,0.0,0.0,1.3214,1.3132,1.3207,1.3234,1.3308,1.339,1.3526,1.3682,1.3824,1.3912,1.4014,1.4163,1.4183,1.4183,1.4183,1.4116,1.4068,1.4068,1.4068,1.4068,1.4068,1.4143,1.4183,1.4183,1.4116,1.4109,1.4183,1.4109,1.4109,1.4183,1.4183,1.4258,1.4407,1.4333,1.434,1.4407,1.4333,1.4299,1.4306,1.4373,1.4407,1.4421,1.4518,1.4719,1.4869,1.5018,1.512,1.5181,1.5181,1.5181,1.5181,2.0961,2.1113,2.1311,2.1634,2.2035,2.2276,2.2207,2.2585,2.292,2.2974,2.2918,2.3118,2.375,2.3554,2.3514,2.379,2.375,2.3607,2.342,2.3332,2.346,2.379,2.391,2.4155,2.4586,2.4983,2.5157,2.5157,2.5398,2.5545,2.5598,2.5187,2.3418,2.0654,2.1873,1.9818,1.5592,1.7039,1.6902,1.5779,1.6969,1.7475,1.7407,1.6249,1.5918,1.6007,1.6007,1.6007,1.6007,1.6007,1.6007,1.5925,1.5628,1.5216,0.0,0.0,0.0,0.0,0.0,0.0,0.0,0.0,0.0,1.3254,0.0,0.0,0.0,1.3084,1.318,1.3254,1.3254,1.3417,1.3531,1.3546,1.3646,1.3788,1.3926,1.401,1.4021,1.4146,1.3953,1.3808,1.3835,1.3842,1.3829,1.3802,1.3987,1.4061,1.4027,1.3939,1.3933,1.4021,1.3933,1.3933,1.4027,1.4098,1.415,1.4299,1.4299,1.4312,1.434,1.4312,1.4299,1.4299,1.4299,1.4299,1.4306,1.4421,1.4557,1.4667,1.4896,1.5059,1.5181,1.5181,1.5181,1.5181,2.0347,2.084,2.1207,2.1242,2.1829,2.2207,2.1897,2.2448,2.3,2.3233,2.3016,2.3065,2.3728,2.3777,2.3763,2.3803,0.0,0.0,2.3736,0.0,2.346,2.379,2.4262,2.4532,2.4599,2.5146,2.5464,2.5464,2.5504,2.5651,2.5905,2.4058,2.2377,2.0903,1.9414,1.7572,1.5528,1.5916,1.5769,1.5309,1.5654,1.5941,1.6188,1.6049,1.5983,1.6007,1.6007,1.6007,1.6007,0.0,1.6007,1.6007,0.0,1.5628,1.534,1.534,0.0,0.0,0.0,0.0,0.0,0.0,1.3721,0.0,0.0,0.0,1.3349,1.3349,0.0,1.3376,1.3376,0.0,0.0,1.3247,1.3464,1.3572,1.3492,1.3593,1.3824,1.4224,1.3971,1.3849,1.4034,1.4091,1.3987,1.3808,1.3987,1.4014,1.3829,1.398,1.3987,1.3829,1.398,1.3987,1.3822,1.4,1.415,1.4299,1.4299,1.4367,1.4482,1.436,1.4299,1.4299,1.4299,1.4299,1.4299,1.4319,1.4407,1.4563,1.4855,1.5059,1.5181,1.5181,1.5181,1.5181,2.0059,2.0561,2.0965,2.0918,2.1657,2.217,2.1948,2.2361,2.2836,2.3214,2.293,2.3099,2.4149,2.3911,0.0,0.0,0.0,2.3036,0.0,0.0,2.2906,2.3986,2.4249,2.4543,2.489,2.5304,2.5598,2.5772,2.5772,2.5919,2.6199,2.4029,2.2284,2.0935,1.9114,1.7262,1.5528,1.5699,1.5626,1.5375,1.5593,1.5756,1.5886,1.5886,1.591,1.6007,1.6007,1.6007,1.5966,0.0,1.5793,0.0,0.0,0.0,0.0,0.0,0.0,0.0,0.0,0.0,0.0,0.0,0.0,0.0,1.3818,0.0,1.4101,0.0,0.0,0.0,0.0,0.0,0.0,0.0,1.341,1.3505,1.3532,1.3512,1.3627,1.3994,1.3802,1.37,1.381,1.3892,1.3838,1.36,1.3804,1.3871,1.3687,1.3695,1.3695,1.3673,1.3695,1.3695,1.3673,1.3822,1.4014,1.417,1.4258,1.4333,1.4387,1.4326,1.4299,1.4299,1.4299,1.4299,1.4299,1.4299,1.438,1.4523,1.4652,1.4848,1.5059,1.5059,1.5113,1.5181,1.9881,2.0349,2.0769,2.0795,2.1492,2.2006,2.1944,2.209,2.2393,2.297,2.2868,2.3135,2.4325,2.3767,0.0,0.0,2.2868,2.2398,0.0,0.0,2.2568,0.0,0.0,0.0,0.0,2.5249,2.5785,2.5877,2.5957,2.6105,2.6253,2.4018,2.2265,2.0895,1.9055,1.7244,1.5593,1.5764,1.5699,1.5593,1.5666,1.5731,1.5821,1.5829,1.5934,1.6007,1.6007,1.6007,1.5966,1.5669,1.5752,0.0,1.5546,0.0,0.0,0.0,0.0,0.0,1.4713,0.0,0.0,0.0,0.0,0.0,0.0,0.0,0.0,0.0,0.0,0.0,0.0,0.0,0.0,0.0,0.0,1.341,1.3444,1.3383,1.3464,1.3754,1.3707,1.3646,1.3646,1.3774,1.3783,1.3485,1.3653,1.372,1.3531,1.3498,1.3498,1.3524,1.3498,1.3498,1.3524,1.3666,1.3858,1.4007,1.4163,1.4258,1.4299,1.4299,1.4299,1.4299,1.4299,1.4299,1.4299,1.4299,1.436,1.4455,1.4455,1.4611,1.4848,1.4896,1.497,1.5059,1.9881,2.0337,2.0773,2.1039,2.137,2.167,2.1801,2.1433,2.1492,2.2479,2.2817,2.3243,2.3931,0.0,0.0,0.0,0.0,2.1482,2.0304,0.0,2.2763,0.0,0.0,2.4478,0.0,2.4985,2.6092,2.5531,2.585,2.5998,2.5959,2.373,2.209,2.0805,1.8818,1.711,1.5804,1.5812,1.5812,1.5748,1.5585,1.5626,1.5788,0.0,1.5999,1.6007,1.6007,0.0,0.0,1.6007,1.6007,0.0,0.0,0.0,0.0,0.0,0.0,0.0,0.0,0.0,0.0,1.5216,0.0,0.0,0.0,0.0,1.4713,0.0,0.0,0.0,0.0,0.0,0.0,0.0,0.0,0.0,0.0,1.3139,1.3342,1.3747,1.3795,1.3788,1.3788,1.3973,1.3939,1.3599,1.3714,1.3673,1.3424,1.3546,1.3553,1.341,1.3546,1.3511,1.341,1.3559,1.3666,1.3808,1.4007,1.4156,1.4299,1.4299,1.4299,1.4299,1.4299,1.4299,1.4299,1.4299,1.4306,1.4306,1.4306,1.4394,1.4543,1.4647,1.4708,1.4708,2.0374,2.0579,2.0736,2.0821,2.1206,2.1555,2.1612,2.1752,2.1689,2.1084,2.1017,2.1053,0.0,2.0328,2.0022,0.0,0.0,1.8677,1.9185,2.0528,0.0,0.0,0.0,2.4726,0.0,2.483,2.5812,2.5837,2.5556,2.561,2.5945,2.3718,2.2668,2.2477,1.9562,1.7987,1.7458,1.6383,1.5886,1.5812,1.5747,1.5861,1.6121,0.0,1.6007,1.6007,1.6007,1.6007,0.0,1.5669,1.5801,1.5925,1.5546,1.5381,1.534,1.5051,1.4638,0.0,0.0,0.0,1.3935,1.4439,0.0,0.0,0.0,0.0,0.0,0.0,0.0,0.0,0.0,0.0,0.0,0.0,0.0,0.0,0.0,1.4104,1.4129,1.4389,1.3971,1.3734,1.3973,1.3946,1.3838,1.3599,1.3632,1.3572,1.341,1.3546,1.3559,1.3403,1.3553,1.3553,1.3403,1.3511,1.3612,1.366,1.3953,1.4139,1.415,1.4251,1.4299,1.4299,1.4299,1.4299,1.4299,1.4299,1.4299,1.4299,1.4299,1.4333,1.4387,1.4536,1.4606,1.4694,2.0773,2.093,2.0954,2.0857,2.1135,2.1401,2.1498,2.1393,2.1026,2.0102,1.966,1.9401,1.9341,0.0,1.8199,0.0,1.7641,1.732,1.8415,1.9173,0.0,1.8999,2.1939,0.0,0.0,0.0,2.4856,2.4817,2.5235,2.5623,2.5945,2.319,2.2171,2.2449,1.9004,1.749,1.7427,1.6409,1.5934,1.5869,1.5869,1.604,0.0,0.0,1.6137,1.6193,0.0,1.6193,1.6152,1.5902,1.5985,1.6152,1.5693,1.5563,1.5448,1.5169,1.4688,1.42,1.4216,1.3978,0.0,1.4269,1.4682,0.0,1.5417,0.0,0.0,0.0,0.0,0.0,0.0,0.0,0.0,0.0,0.0,0.0,0.0,1.4504,1.4519,1.4616,1.4166,1.3934,1.4226,1.4087,1.3856,1.3605,1.3632,1.3572,1.341,1.3546,1.3559,1.3403,1.3553,1.3553,1.3403,1.3498,1.3531,1.3592,1.3824,1.3966,1.4119,1.4177,1.4251,1.4299,1.4299,1.4299,1.4299,1.4299,1.4299,1.4299,1.4299,1.4299,1.4312,1.4401,1.4496,1.4539,2.1099,2.1317,2.1438,2.1184,2.1135,2.122,2.1498,2.0433,1.9596,1.9542,1.8775,1.8295,1.8394,1.7516,1.7013,1.7143,1.716,1.7282,1.7665,1.8549,0.0,0.0,1.9323,1.9322,1.7718,0.0,0.0,0.0,2.4688,2.5738,2.5673,2.2155,2.068,2.0856,1.7458,1.5942,1.5942,1.5967,1.6007,1.6015,1.6015,1.6128,1.6332,1.629,1.6404,1.66,1.6584,1.6584,1.6584,1.6584,1.6584,1.6534,1.6065,1.5828,1.5566,1.487,1.4507,1.4337,1.4486,1.4373,1.4378,1.4764,1.5105,0.0,0.0,0.0,1.556,0.0,0.0,0.0,0.0,0.0,0.0,0.0,0.0,0.0,0.0,0.0,1.4548,1.4548,1.4329,1.4295,1.4472,1.4364,1.4089,1.3619,1.3707,1.3653,1.3417,1.3546,1.3518,1.3417,1.3511,1.3559,1.341,1.3403,1.3471,1.3578,1.3585,1.3783,1.4105,1.4112,1.4156,1.4299,1.4299,1.4299,1.4299,1.4299,1.4299,1.4299,1.4299,1.4299,1.4299,1.4299,1.4299,1.4299,2.1135,2.1317,2.1559,2.168,2.1704,2.1728,2.18,2.0729,1.9545,1.8622,1.7293,1.6237,1.5604,1.5006,1.4797,1.518,1.4883,0.0,0.0,0.0,0.0,1.4981,1.8145,1.9171,1.7463,1.9784,0.0,2.0791,0.0,2.1872,2.2094,2.1158,2.0802,2.0906,1.8798,1.7828,1.7669,1.6491,1.608,1.6235,1.6235,1.6388,1.6628,0.0,1.6294,1.6455,1.6545,1.6584,1.6584,1.6584,1.6584,1.6576,1.6448,1.6161,1.579,1.5624,1.5055,1.4522,1.4565,1.421,1.3908,1.4444,1.4604,1.4663,0.0,0.0,0.0,0.0,0.0,0.0,0.0,0.0,0.0,0.0,0.0,0.0,0.0,0.0,0.0,1.5225,1.4726,1.4392,1.4493,1.4365,1.4132,1.3634,1.3559,1.3478,1.3403,1.3546,1.3572,1.3531,1.3565,1.3565,1.3531,1.3458,1.3417,1.3458,1.3531,1.368,1.3862,1.4021,1.4156,1.4299,1.4299,1.4299,1.4299,1.4299,1.4299,1.4299,1.4299,1.4299,1.4299,1.4299,1.4299,1.4299,2.1486,2.1667,2.1909,2.2054,2.1531,2.1078,2.1078,2.0549,1.9394,1.7306,1.6417,0.0,1.433,1.4089,1.4155,1.4479,1.4329,0.0,1.5153,0.0,0.0,1.5534,1.6698,1.6992,1.618,1.7885,0.0,1.9065,0.0,2.0345,2.0937,1.9913,1.9593,1.9793,1.8124,1.7346,1.7226,1.6376,1.6104,1.63,1.63,1.6392,0.0,1.6195,1.6087,1.6114,1.6191,1.6207,1.6207,1.6207,1.6207,1.625,1.6466,1.6282,1.6019,1.609,1.5721,1.521,1.5111,1.4751,1.4436,1.4614,1.4643,1.469,1.4775,1.4892,1.5112,0.0,1.5477,1.5505,0.0,0.0,0.0,0.0,0.0,0.0,0.0,0.0,0.0,0.0,1.5224,1.4985,1.4925,1.435,1.3818,1.3437,1.3471,1.3444,1.3308,1.3566,1.3619,1.3532,1.3612,1.3619,1.3532,1.3512,1.3464,1.3403,1.3553,1.366,1.3802,1.4,1.4156,1.4299,1.4299,1.4299,1.4299,1.4299,1.4299,1.4299,1.4299,1.4299,1.4299,1.4299,1.4299,1.4299,2.1958,2.1953,2.196,2.1995,2.0734,1.9622,1.9484,1.966,1.8788,1.6031,1.5822,1.5447,1.4041,1.4183,1.4407,1.4529,0.0,1.5371,1.6964,1.5206,1.5053,1.718,1.52,1.4219,1.4543,1.5926,1.6837,0.0,0.0,1.9474,2.0362,1.8266,1.757,1.7935,1.6427,1.5764,1.578,1.5852,1.5996,1.6173,1.6173,1.6127,1.6053,1.5966,1.5796,1.5616,1.5528,1.5616,1.5704,1.5704,1.5704,1.5749,1.6181,1.6169,1.6084,1.6267,1.6125,1.591,1.5755,1.5541,1.5292,1.4923,1.4988,1.5036,1.465,1.4451,1.4562,1.539,1.5162,1.4957,0.0,0.0,0.0,0.0,0.0,0.0,0.0,0.0,0.0,0.0,0.0,0.0,1.5407,1.4438,1.3728,1.3397,1.3562,1.3561,1.3309,1.3559,1.3632,1.3437,1.3661,1.3639,1.3458,1.3511,1.3511,1.3458,1.3531,1.3673,1.3835,1.4007,1.4156,1.4299,1.4299,1.4299,1.4299,1.4299,1.4299,1.4299,1.4299,1.4299,1.4299,1.4299,1.4299,1.4299,2.2236,2.1153,2.0254,2.0386,1.906,1.7675,1.6696,1.6586,1.6475,1.6045,1.5194,1.4583,1.438,1.4512,1.4626,1.4654,1.4681,0.0,0.0,0.0,0.0,1.4486,1.3971,1.3713,1.3797,1.4172,1.4493,0.0,0.0,0.0,1.6137,1.5517,1.5504,1.6008,1.5617,1.5457,1.5457,1.5497,1.5443,1.5388,1.5388,1.5541,1.5748,1.5352,1.5147,1.5087,1.4697,1.505,1.5704,1.5704,1.5704,1.5704,1.5793,1.5814,1.5799,1.5829,1.5506,1.5271,1.5609,1.5323,1.493,1.4972,1.493,1.4728,1.4295,1.4404,1.465,1.4686,1.5083,1.5473,1.5557,0.0,0.0,0.0,0.0,0.0,0.0,0.0,0.0,0.0,0.0,1.5079,1.535,1.5205,1.4848,1.4294,1.4126,1.39,1.3716,1.3528,1.3512,1.3545,1.3519,1.3566,0.0,0.0,1.3553,1.372,1.3632,1.377,1.4034,1.4061,1.4156,1.4299,1.4299,1.4299,1.4299,1.4299,1.4299,1.4299,1.4299,1.4299,1.4299,1.4299,1.4299,1.4299,2.1095,1.9777,1.8682,1.8825,1.7636,1.6515,1.6022,1.5436,1.5049,1.5042,1.5483,1.5408,1.4592,1.4719,1.4862,1.4862,1.4862,1.4767,1.4498,1.4387,1.4238,1.4089,1.3815,1.3693,1.3693,1.3576,1.3698,1.4108,0.0,0.0,1.4888,1.443,1.4512,1.4975,1.4934,1.5085,1.5289,1.5095,1.5071,1.5101,1.5183,1.5241,1.5308,1.5087,1.4866,1.4601,1.4387,1.4608,1.4962,1.4962,1.4962,1.4999,1.5264,1.5352,1.5396,1.5616,1.5528,1.5396,1.566,1.5689,1.5608,1.5418,1.5293,1.5133,1.4568,1.4423,1.4418,1.4479,1.477,1.5155,1.5535,1.5838,0.0,0.0,0.0,0.0,0.0,0.0,0.0,0.0,0.0,0.0,0.0,1.5491,1.5026,1.4081,1.3975,1.3792,1.3394,1.3398,1.3437,0.0,0.0,0.0,1.3572,0.0,1.3593,1.3687,1.3693,1.3858,1.4119,1.4156,1.4231,1.4299,1.4299,1.4299,1.4299,1.4299,1.4299,1.4299,1.4299,1.4299,1.4299,1.4299,1.4299,1.4299,1.9496,1.8232,1.7177,1.7335,1.626,1.5422,1.567,1.4944,1.434,1.4183,1.5616,1.613,1.4746,1.4855,1.5064,1.5064,1.5064,1.4936,1.4708,1.4523,1.4367,1.4306,1.4034,1.3849,1.3849,1.3451,1.3487,0.0,0.0,0.0,0.0,1.3975,1.4013,1.443,1.4589,1.4726,0.0,0.0,1.4624,1.4738,1.4862,1.4894,1.4866,1.4866,1.4601,1.4299,1.4299,1.4299,1.4299,1.4299,1.4299,1.4343,1.4734,1.4866,1.4911,1.5308,1.5396,1.5396,1.5528,1.5829,1.6005,1.566,1.5572,1.5411,1.4806,1.4428,1.4219,1.4398,1.4521,1.4785,1.5513,1.5802,0.0,0.0,0.0,0.0,0.0,0.0,0.0,0.0,0.0,0.0,1.5756,1.5648,1.5085,1.4022,1.3955,1.3734,1.3211,1.3336,0.0,0.0,0.0,1.3545,1.3498,0.0,1.3627,1.3722,1.3761,1.3939,1.4166,1.4245,1.4299,1.4299,1.4299,1.4299,1.4299,1.4299,1.4299,1.4299,1.4299,1.4299,1.4299,1.4299,1.4299,1.4299,1.7966,1.6713,1.5689,1.5943,1.4776,1.3962,1.4389,1.4585,1.4599,1.4489,1.4876,1.5107,1.4976,1.5065,1.516,1.516,1.516,1.5045,1.4714,1.4667,1.4532,1.4312,1.4143,1.4048,1.4048,1.3607,1.3431,0.0,0.0,1.3272,0.0,0.0,0.0,0.0,0.0,0.0,0.0,1.4077,1.4069,1.391,1.3923,1.4114,1.4387,1.4387,1.4343,1.4299,1.4299,1.4299,1.4299,1.4299,1.4299,1.4299,1.4343,1.4387,1.4387,1.4431,1.4431,1.452,1.4955,1.508,1.5124,1.508,1.508,1.4948,1.4455,1.4323,1.4272,1.4302,1.45,1.4909,1.5724,1.5731,1.5664,0.0,0.0,0.0,0.0,0.0,0.0,1.5189,0.0,0.0,1.5772,1.5894,1.5713,1.5108,1.467,1.4231,1.3762,0.0,0.0,1.3558,1.3578,1.3639,1.3754,1.3546,1.3627,1.4027,1.3899,1.395,1.4278,1.4292,1.4299,1.4299,1.4299,1.4299,1.4299,1.4299,1.4299,1.4299,1.4299,1.4299,1.4299,1.4299,1.4299,1.4299,1.6563,1.5363,1.437,1.4588,1.4293,1.415,1.4509,1.474,1.4889,1.4909,1.5025,1.5099,1.5099,1.5147,1.5147,1.5112,1.497,1.4828,1.4572,1.4478,1.4421,1.4306,1.4245,1.4163,1.4119,1.3804,1.3578,0.0,0.0,0.0,0.0,0.0,0.0,0.0,0.0,1.3877,1.3981,1.3846,1.3733,1.3687,1.3905,1.4055,1.4177,1.4265,1.4299,1.4299,1.4299,1.4299,1.4299,1.4299,1.4299,1.4299,1.4299,1.4299,1.4299,1.4299,1.4299,1.4343,1.4513,1.4778,1.4992,1.4992,1.4992,1.4948,1.4778,1.452,1.4299,1.4299,1.4527,1.4793,1.5118,1.5526,1.5794,1.5836,0.0,0.0,0.0,0.0,0.0,0.0,0.0,1.5375,0.0,1.528,1.502,1.459,1.4445,0.0,0.0,0.0,0.0,1.37,0.0,1.3524,1.3666,1.3558,1.3668,1.3933,1.3966,1.4095,1.4299,1.4299,1.4299,1.4299,1.4299,1.4299,1.4299,1.4299,1.4299,1.4299,1.4299,1.4299,1.4299,1.4299,1.4299,1.4343,1.5176,1.4364,1.3693,1.3842,1.4163,1.4434,1.4593,1.4875,1.5098,1.5113,1.52,1.5181,1.5181,1.5147,1.5079,1.5023,1.4828,1.4626,1.4523,1.4421,1.4346,1.4299,1.4299,0.0,1.4143,1.3987,1.3795,1.3646,1.3497,0.0,0.0,0.0,0.0,0.0,1.3374,1.3464,1.3803,1.3624,1.3572,1.3666,1.3919,1.4055,1.415,1.4258,1.4299,1.4299,1.4299,1.4299,1.4299,1.4299,1.4299,1.4299,1.4299,1.4299,1.4299,1.4299,1.4299,1.4299,1.4299,1.4557,1.4778,1.4778,1.4778,1.4778,1.4778,1.4557,1.4299,1.4299,1.4437,1.4617,1.4748,1.5183,1.5537,1.5587,0.0,0.0,0.0,0.0,0.0,0.0,1.5484,1.5167,1.4944,1.4911,1.4698,1.4249,0.0,0.0,0.0,0.0,0.0,0.0,0.0,0.0,1.3646,1.3605,1.366,1.3802,1.3953,1.4109,1.4299,1.4299,1.4299,1.4299,1.4299,1.4299,1.4299,1.4299,1.4299,1.4299,1.4299,1.4299,1.4299,1.4299,1.4299,1.4387,1.3777,1.3795,1.3842,1.4041,1.4312,1.4509,1.4516,1.4896,1.5126,1.5037,1.5146,1.5181,1.5181,1.5059,1.5017,1.5017,1.4828,1.4626,1.4523,1.4509,1.4448,0.0,0.0,1.4299,1.4299,1.4193,1.3994,1.3795,0.0,0.0,1.3214,0.0,1.3589,1.3596,1.3713,1.358,1.3227,1.3342,1.3573,1.3795,1.3802,1.3984,1.4299,1.4299,1.4299,1.4299,1.4299,1.4299,1.4299,1.4299,1.4299,1.4299,1.4299,1.4299,1.4299,1.4299,1.4299,1.4299,1.4299,1.4299,1.4299,1.4299,1.4299,1.4299,1.4299,1.4299,1.4299,1.4299,1.4299,1.4469,1.4903,1.4827,1.472,1.4814,0.0,0.0,0.0,0.0,0.0,0.0,1.5638,1.5381,1.4593,1.5034,1.5147,0.0,0.0,0.0,0.0,0.0,0.0,1.3795,1.3795,0.0,1.3795,1.366,1.366,1.3795,1.3802,1.3957,1.4299,1.4299,1.4299,1.4299,1.4299,1.4299,1.4299,1.4299,1.4299,1.4299,1.4299,1.4299,1.4299,1.4299,1.4299,1.4387,1.398,1.4082,1.417,1.4217,1.4468,1.466,1.4808,1.4989,1.5059,1.5106,1.5072,1.5038,1.5038,1.5044,1.4935,0.0,1.4611,1.4523,0.0,1.4367,1.4346,1.4299,1.4299,1.4299,1.4299,1.4251,1.415,1.4,0.0,0.0,0.0,1.3405,1.3404,1.3348,1.3356,1.3411,1.3485,1.3539,1.3626,1.3808,1.3953,1.4055,1.4156,1.4258,1.4299,1.4299,1.4299,1.4299,1.4299,1.4299,1.4299,1.4299,1.4299,1.4299,1.4299,1.4299,1.4299,1.4299,1.4299,1.4299,1.4299,1.4299,1.4299,1.4299,1.4299,1.4564,1.4778,1.4778,1.5043,1.5219,1.5036,1.522,1.5279,1.4964,1.5403,0.0,0.0,0.0,0.0,0.0,1.6114,1.6074,1.5493,1.5508,0.0,0.0,0.0,0.0,0.0,0.0,0.0,0.0,1.3761,0.0,1.3795,1.3754,1.3754,1.3802,1.4011,1.4204,1.4299,1.4299,1.4299,1.4299,1.4299,1.4299,1.4299,1.4299,1.4299,1.4299,1.4299,1.4299,1.4299,1.4299,1.4299,1.4431,1.4187,1.4238,1.4299,1.4299,1.4496,1.4665,1.4713,1.4814,1.4896,1.4923,1.4903,1.4862,1.4808,1.4801,0.0,1.4529,1.4462,1.4394,1.4306,1.4299,1.4299,1.4299,1.4299,1.4299,1.4299,1.4299,0.0,1.42,1.4102,1.3899,1.3566,1.3566,1.3512,1.3424,1.3424,1.3498,1.3592,1.3646,1.3714,1.3815,1.4007,1.4153,1.417,1.4265,1.4299,1.4299,1.4299,1.4299,1.4299,1.4299,1.4299,1.4299,1.4299,1.4299,1.4299,1.4299,1.4299,1.4299,1.4299,1.4299,1.4299,1.4299,1.4299,1.4299,1.4299,1.452,1.4734,1.4734,1.5131,1.5352,1.5036,1.5264,1.5352,1.5036,1.5264,1.5403,1.525,0.0,0.0,0.0,0.0,0.0,0.0,1.5106,1.4855,0.0,0.0,0.0,0.0,0.0,1.3729,1.3899,1.3838,1.381,1.3795,1.3856,1.3926,1.3933,1.4183,1.4299,1.4299,1.4299,1.4299,1.4299,1.4299,1.4299,1.4299,1.4299,1.4299,1.4299,1.4299,1.4299,1.4299,1.4299,1.4431,1.4646,1.4272,1.4299,1.4299,1.4299,1.4421,1.4468,1.4333,1.455,1.4633,1.4543,1.4593,1.4626,1.4529,1.4509,1.4509,1.4496,0.0,0.0,1.4299,1.4299,1.4299,1.4299,1.4299,1.4299,1.4299,1.4299,1.4299,1.4299,1.42,1.4007,1.3815,1.3815,1.3808,1.3795,1.3795,1.3727,1.3612,1.3741,1.3802,1.3829,1.4014,1.4163,1.4299,1.4299,1.4299,1.4299,1.4299,1.4299,1.4299,1.4299,1.4299,1.4299,1.4299,1.4299,1.4299,1.4299,1.4299,1.4299,1.4299,1.4299,1.4299,1.4299,1.4299,1.4299,1.4299,1.4343,1.4343,1.4343,1.4734,1.5036,1.5036,1.5036,1.5036,1.5036,1.5036,1.4992,1.4992,0.0,0.0,0.0,0.0,0.0,1.3971,1.4203,1.414,0.0,0.0,0.0,0.0,0.0,1.3953,1.3612,1.3912,1.3994,1.3815,1.4,1.4119,1.4132,1.4231,1.4299,1.4299,1.4299,1.4299,1.4299,1.4299,1.4299,1.4299,1.4299,1.4299,1.4299,1.4299,1.4299,1.4299,1.4299,1.4608,1.508,0.0,0.0,1.4299,1.4299,1.4421,1.4502,1.4468,1.4523,1.4545,1.4626,1.4572,1.455,1.4516,1.4509,1.4468,1.436,1.4319,1.4299,1.4299,1.4299,1.4299,1.4299,1.4299,1.4299,1.4299,1.4299,1.4299,1.4299,1.4265,1.417,1.4014,1.4014,1.3953,1.3795,1.3795,1.3781,1.3747,1.3781,1.3905,1.4021,1.4098,1.4163,1.4299,1.4299,1.4299,1.4299,1.4299,1.4299,1.4299,1.4299,1.4299,1.4299,1.4299,1.4299,1.4299,1.4299,1.4299,1.4299,1.4299,1.4299,1.4299,1.4299,1.4299,1.4299,1.4299,1.4557,1.4822,1.4822,1.5219,1.5528,1.5528,1.5528,1.5528,1.5528,1.5219,1.4992,1.4992,1.5087,1.5124,0.0,1.5271,1.5411,1.5286,1.5176,1.4988,0.0,0.0,1.4427,1.3955,1.4122,1.4109,1.3754,1.3815,1.3933,1.4014,1.4098,1.4129,1.4245,1.4285,1.4299,1.4299,1.4299,1.4299,1.4299,1.4299,1.4299,1.4299,1.4299,1.4299,1.4299,1.4299,1.4299,1.4299,1.4299,1.4608,1.508,1.4299,1.4299,1.4299,1.4299,1.4367,1.4414,1.4414,1.4414,1.4441,1.4529,1.4468,1.4414,1.4414,1.4414,1.4387,1.4306,1.4299,1.4299,1.4299,1.4299,1.4299,1.4299,1.4299,1.4299,1.4299,1.4299,1.4299,1.4299,1.4299,1.4258,1.4177,1.4177,1.4129,1.4048,1.4048,1.3971,1.3953,1.4021,1.4061,1.4119,1.4193,1.4224,1.4299,1.4299,1.4299,1.4299,1.4299,1.4299,1.4299,1.4299,1.4299,1.4299,1.4299,1.4299,1.4299,1.4299,1.4299,1.4299,1.4299,1.4299,1.4299,1.4299,1.4299,1.4299,1.4299,1.452,1.469,1.469,1.5043,1.5396,1.5396,1.5396,1.544,1.566,1.5308,1.508,1.5308,1.5308,1.5264,1.5036,1.5219,1.5308,1.5087,1.49,1.4756,1.4622,1.4508,0.0,1.3973,1.4109,1.4089,1.3802,1.393,1.4055,1.4119,1.4143,1.4217,1.4299,1.4299,1.4299,1.4299,1.4299,1.4299,1.4299,1.4299,1.4299,1.4299,1.4299,1.4299,1.4299,1.4299,1.4431,1.4601,1.4601,1.5043,1.5697,1.4299,1.4299,1.4299,1.4299,1.4299,1.4299,1.4299,1.4299,1.4299,1.4299,1.4299,1.4299,1.4299,1.4299,1.4299,1.4299,1.4299,1.4299,1.4299,1.4299,1.4299,1.4299,1.4299,1.4299,1.4299,1.4299,1.4299,1.4299,1.4299,1.4299,1.4299,1.4299,1.4299,1.4299,1.4299,1.4231,1.4159,1.4245,1.4224,1.4159,1.4245,1.4299,1.4299,1.4299,1.4299,1.4299,1.4299,1.4299,1.4299,1.4299,1.4299,1.4299,1.4299,1.4299,1.4299,1.4299,1.4299,1.4299,1.4299,1.4319,1.4333,1.4333,1.4333,1.4333,1.4333,1.4319,1.4299,1.4299,1.4601,1.4903,1.4992,1.4992,1.5175,1.5616,1.5308,1.5175,1.5616,0.0,1.5484,1.5124,1.5124,1.4955,1.4564,1.4352,1.4233,1.4233,1.4146,1.4048,1.3876,1.4034,1.4048,1.3869,1.4143,1.4211,1.4153,1.4238,1.4299,1.4299,1.4299,1.4299,1.4299,1.4299,1.4299,1.4299,1.4299,1.4299,1.4299,1.4299,1.4299,1.4299,1.4387,1.4646,1.4992,1.508,1.5653,1.6401,1.4299,1.4299,1.4299,1.4299,1.4299,1.4299,1.4299,1.4299,1.4299,1.4299,1.4299,1.4299,1.4299,1.4299,1.4299,1.4299,1.4299,1.4299,1.4299,1.4299,1.4299,1.4299,1.4299,1.4299,1.4299,1.4299,1.4299,1.4299,1.4299,1.4299,1.4299,1.4299,1.4299,1.4299,1.4299,1.4285,1.4265,1.4292,1.4285,1.4265,1.4292,1.4299,1.4299,1.4299,1.4299,1.4299,1.4299,1.4299,1.4299,1.4299,1.4299,1.4299,1.4299,1.4299,1.4299,1.4299,1.4299,1.4299,1.4299,1.4387,1.4475,1.4475,1.4475,1.4475,1.4475,1.4387,1.4299,1.4299,1.4343,1.4513,1.4955,1.4992,1.5175,1.5616,1.5308,1.5175,1.5616,0.0,1.5219,1.5572,1.5572,1.5572,1.5484,1.511,1.4868,1.4868,1.4479,1.4251,1.4231,1.4251,1.4251,1.4231,1.415,1.42,1.4265,1.4285,1.4299,1.4299,1.4299,1.4299,1.4299,1.4299,1.4299,1.4299,1.4299,1.4299,1.4299,1.4299,1.4299,1.4343,1.4734,1.4955,1.5036,1.544,1.5917,1.6401,1.4299,1.4299,1.4299,1.4299,1.4299,1.4299,1.4299,1.4299,1.4299,1.4299,1.4299,1.4299,1.4299,1.4299,1.4299,1.4299,1.4299,1.4299,1.4299,1.4299,1.4299,1.4299,1.4557,1.4778,1.505,1.4822,1.4778,1.505,1.4778,1.4822,1.505,1.505,1.4911,1.469,1.469,1.4557,1.4299,1.4299,1.4299,1.4299,1.4557,1.452,1.4343,1.4557,1.452,1.4299,1.4299,1.4299,1.4299,1.4299,1.4299,1.4299,1.4299,1.4299,1.4299,1.4299,1.4299,1.4299,1.4299,1.4407,1.4509,1.4509,1.4525,1.4586,1.4586,1.4523,1.4414,1.4414,1.4353,1.4387,1.4557,1.4601,1.4778,1.5264,1.5124,0.0,1.5616,1.5528,1.5352,1.5352,1.5308,1.5219,1.4955,1.4734,1.4734,1.4992,1.4557,1.4431,1.4646,1.4431,1.4299,1.4299,1.4231,1.4231,1.4299,1.4299,1.4299,1.4299,1.4299,1.4299,1.4299,1.4299,1.4299,1.4299,1.4299,1.4299,1.4299,1.4299,1.4299,1.4343,1.4822,1.5175,1.544,1.5917,1.6357,1.6797,1.4299,1.4299,1.4299,1.4299,1.4299,1.4299,1.4299,1.4299,1.4299,1.4299,1.4299,1.4299,1.4299,1.4299,1.4299,1.4299,1.4299,1.4299,1.4299,1.4387,1.4431,1.4299,1.4734,1.5219,1.5704,1.5352,1.5352,1.5704,1.5352,1.5352,1.5704,1.5704,1.5528,1.5175,1.5175,1.4911,1.4476,1.4564,1.4564,1.452,1.4955,1.4866,1.452,1.4866,1.469,1.4299,1.4299,1.4299,1.4299,1.4299,1.4299,1.4299,1.4299,1.4299,1.4299,1.4299,1.4387,1.4431,1.4343,1.4407,1.4523,1.4557,1.4606,1.4701,1.4741,1.4626,1.4557,1.4516,1.4428,1.434,1.4306,1.4299,1.4431,1.4778,0.0,1.4999,1.5484,1.5528,1.544,1.5168,1.5175,1.4999,1.4653,1.452,1.4601,1.4948,1.4557,1.4476,1.4822,1.452,1.4299,1.4299,1.4299,1.4299,1.4299,1.4299,1.4299,1.4299,1.4299,1.4299,1.4299,1.4299,1.4299,1.4299,1.4299,1.4299,1.4299,1.4299,1.4343,1.452,1.4999,1.544,1.5925,1.6401,1.6797,1.7112,1.4299,1.4299,1.4299,1.4299,1.4299,1.4299,1.4299,1.4299,1.4299,1.4299,1.4299,1.4299,1.4299,1.4299,1.4299,1.4299,1.4299,1.4299,1.4299,1.469,1.4734,1.4299,1.4734,1.5219,1.5704,1.566,1.566,1.5704,1.566,1.566,1.5704,1.5704,1.566,1.566,1.566,1.5396,1.4992,1.5396,1.5352,1.4999,1.544,1.5352,1.4948,1.4992,1.469,1.4299,1.4299,1.4299,1.4299,1.4299,1.4299,1.4299,1.4299,1.4299,1.4299,1.4299,1.4601,1.4866,1.4431,1.4407,1.4543,1.464,1.4687,1.4735,1.4923,1.4835,1.464,1.4543,1.4502,1.4455,1.4326,1.4299,1.4299,1.4343,0.0,0.0,1.4999,1.5036,1.5219,1.5616,1.566,1.5616,1.5616,1.5219,1.4948,1.4992,1.4557,1.4299,1.4343,1.4299,1.4299,1.4299,1.4299,1.4299,1.4299,1.4299,1.4299,1.4299,1.4299,1.4299,1.4299,1.4299,1.4299,1.4299,1.4299,1.4299,1.4299,1.4299,1.4564,1.4999,1.5484,1.5925,1.6401,1.6884,1.7068,1.7112,1.4299,1.4299,1.4299,1.4299,1.4299,1.4299,1.4299,1.4299,1.4299,1.4299,1.4299,1.4299,1.4299,1.4299,1.4299,1.4299,1.4557,1.4734,1.4734,1.5175,1.5484,1.5609,1.5785,1.6093,1.6541,1.6269,1.6277,1.6585,1.6169,1.6122,1.6384,1.6317,1.609,1.5831,1.5831,1.5572,1.514,1.532,1.5328,1.5286,1.5766,1.5564,1.5036,1.5308,1.4955,1.4299,1.4299,1.4299,1.4299,1.4299,1.4299,1.4299,1.4299,1.452,1.4778,1.5087,1.5308,1.5396,1.5219,1.5102,1.5164,1.5538,1.5519,1.545,1.5559,1.5447,1.5321,1.5258,1.5167,1.5191,1.5348,1.5104,1.4897,1.4748,0.0,1.4343,1.4557,1.4557,1.4646,1.4829,1.4829,1.4829,1.4829,1.4653,1.469,1.4992,1.4557,1.4431,1.4734,1.4476,1.4299,1.4299,1.4299,1.4299,1.4299,1.4299,1.4299,1.4299,1.4299,1.4299,1.4299,1.4299,1.4299,1.4299,1.4299,1.4299,1.4299,1.4601,1.4822,1.508,1.5829,1.6225,1.6445,1.6928,1.7112,1.7112,1.4299,1.4299,1.4299,1.4299,1.4299,1.4299,1.4299,1.4299,1.4299,1.4299,1.4299,1.4299,1.4299,1.4299,1.4299,1.4299,1.4734,1.4992,1.4992,1.5572,1.6049,1.6401,1.6401,1.6621,1.7112,1.6797,1.6729,1.7031,1.6562,1.6474,1.672,1.6698,1.6462,1.6108,1.6163,1.5907,1.5433,1.5604,1.5622,1.5592,1.6129,1.5917,1.5367,1.5594,1.5219,1.452,1.452,1.4431,1.4299,1.4476,1.452,1.452,1.452,1.4822,1.5308,1.5793,1.5925,1.5969,1.6101,1.595,1.5858,1.6136,1.6085,1.6004,1.6144,1.6079,1.5985,1.5942,1.5749,1.562,1.5822,1.5397,1.5019,1.4862,1.4547,1.4299,1.4299,1.4299,1.4299,1.4299,1.4299,1.4299,1.4299,1.4299,1.4431,1.4778,1.4476,1.4431,1.4778,1.4476,1.4299,1.4299,1.4299,1.4299,1.4299,1.4299,1.4299,1.4299,1.4299,1.4299,1.4299,1.4299,1.4299,1.4299,1.4476,1.452,1.4564,1.5043,1.53,1.5521,1.6137,1.6489,1.6665,1.698,1.7112,1.7112,1.4299,1.4299,1.4299,1.4299,1.4299,1.4299,1.4299,1.4299,1.4299,1.4299,1.4299,1.4299,1.4299,1.4299,1.4299,1.4299,1.4734,1.4992,1.5036,1.5873,1.6401,1.6401,1.6401,1.6621,1.7112,1.7112,1.6979,1.6809,1.6809,1.6712,1.6584,1.672,1.6704,1.6584,1.6728,1.6489,1.593,1.6406,1.6321,1.5953,1.6564,1.6506,1.6089,1.582,1.5396,1.4992,1.4992,1.469,1.4387,1.4866,1.4992,1.4992,1.4992,1.5352,1.5793,1.6269,1.6401,1.6489,1.698,1.6844,1.6518,1.6288,1.6189,1.6278,1.6653,1.6673,1.6683,1.6526,1.6073,1.5654,1.5536,1.4972,1.4516,1.4509,1.4394,1.4299,1.4299,1.4299,1.4299,1.4299,1.4299,1.4299,1.4299,1.4299,1.4299,1.4299,1.4299,1.4299,1.4299,1.4299,1.4299,1.4299,1.4299,1.4299,1.4299,1.4299,1.4299,1.4299,1.4299,1.4299,1.4299,1.4299,1.4299,1.4343,1.4822,1.4992,1.5036,1.5528,1.5969,1.6401,1.6401,1.6709,1.7112,1.7112,1.7112,1.7112,1.4299,1.4299,1.4299,1.4299,1.4557,1.4778,1.4778,1.5087,1.5264,1.5264,1.5264,1.5264,1.5264,1.4999,1.4911,1.5264,1.5396,1.5793,1.6453,1.6753,1.6884,1.6884,1.6884,1.698,1.7112,1.7112,1.7088,1.6987,1.6779,1.6633,1.6619,1.6503,1.6331,1.6177,1.6527,1.6475,1.6179,1.6485,1.6564,1.6556,1.6741,1.6621,1.6287,1.6202,1.5917,1.5484,1.5484,1.5175,1.4866,1.5352,1.5264,1.5124,1.5785,1.6093,1.6269,1.6753,1.6884,1.6961,1.7222,1.7259,1.7128,1.705,1.6968,1.6942,1.7042,1.7111,1.7188,1.7134,1.6987,1.6933,1.7133,1.6735,1.6302,1.607,1.5466,1.4949,1.4792,1.452,1.4299,1.4299,1.4299,1.4299,1.4299,1.4299,1.4299,1.4299,1.4299,1.4299,1.4299,1.4299,1.4299,1.4299,1.4299,1.4299,1.4299,1.4299,1.4299,1.4299,1.4299,1.4299,1.4299,1.4299,1.4299,1.4343,1.4822,1.4992,1.5036,1.5873,1.6269,1.6445,1.6753,1.698,1.7112,1.7112,1.7112,1.7112,1.4557,1.4741,1.4873,1.4873,1.5087,1.5264,1.5264,1.5528,1.5704,1.5704,1.5704,1.5704,1.5704,1.544,1.5396,1.566,1.5881,1.6321,1.7068,1.7112,1.7112,1.7112,1.7112,1.708,1.6963,1.708,1.7039,1.6901,1.6755,1.6649,1.6584,1.6535,1.638,1.6267,1.656,1.6584,1.6422,1.6535,1.6641,1.6712,1.6785,1.67,1.6526,1.6422,1.6225,1.5969,1.5969,1.5704,1.5352,1.5829,1.5785,1.5697,1.6445,1.6665,1.6709,1.7024,1.7161,1.7242,1.7356,1.7437,1.7486,1.7486,1.7478,1.7518,1.7581,1.7677,1.7709,1.7709,1.7569,1.7452,1.7667,1.7273,1.6789,1.6355,1.5769,1.5224,1.4846,1.4558,1.4367,1.4306,1.4299,1.4299,1.4299,1.4299,1.4299,1.4299,1.4299,1.4299,1.4299,1.4299,1.4299,1.4299,1.4299,1.4299,1.4299,1.4299,1.4299,1.4299,1.4299,1.4387,1.4557,1.4557,1.4697,1.4873,1.5344,1.5565,1.5609,1.6357,1.6665,1.6709,1.698,1.7112,1.7112,1.7112,1.7112,1.7112,1.5036,1.5396,1.5704,1.5704,1.5749,1.5749,1.5749,1.5793,1.5837,1.5837,1.5837,1.5837,1.5837,1.5793,1.5793,1.5837,1.6225,1.6621,1.7068,1.7112,1.7112,1.7112,1.7112,1.7031,1.6817,1.6979,1.6942,1.6609,1.6728,1.6712,1.6584,1.6728,1.6712,1.6592,1.6744,1.6736,1.6609,1.6617,1.6625,1.6641,1.6768,1.6833,1.6806,1.6566,1.6445,1.6445,1.6445,1.6137,1.5837,1.6269,1.6445,1.6533,1.698,1.7112,1.7112,1.7112,1.7242,1.7388,1.7404,1.7534,1.7619,1.7643,1.7773,1.7981,1.8119,1.8214,1.8223,1.8223,1.7803,1.7484,1.7484,1.7026,1.6511,1.5981,1.5744,1.5405,1.4799,1.4592,1.4486,1.4357,1.4343,1.4299,1.4299,1.4299,1.4299,1.4299,1.4299,1.4299,1.4299,1.4299,1.4299,1.4299,1.4299,1.4299,1.4299,1.4299,1.4299,1.4299,1.4343,1.4601,1.4992,1.5036,1.5308,1.5749,1.6181,1.6401,1.6445,1.6892,1.7112,1.7112,1.7112,1.7112,1.7112,1.7112,1.7112,1.7112,1.5572,1.5616,1.5704,1.5704,1.6005,1.6269,1.6269,1.6577,1.6805,1.6805,1.6805,1.6805,1.6805,1.6489,1.6401,1.6761,1.6892,1.698,1.7112,1.7112,1.7112,1.7112,1.7112,1.7031,1.6817,1.6979,1.7006,1.6752,1.6793,1.6712,1.6584,1.6728,1.6712,1.6592,1.6909,1.6914,1.676,1.6942,1.6998,1.6998,1.7039,1.7011,1.7011,1.6964,1.6928,1.6928,1.6928,1.6665,1.6269,1.6357,1.6621,1.698,1.7068,1.7112,1.7112,1.7112,1.7242,1.7421,1.7551,1.7676,1.7892,1.8022,1.8087,1.8095,1.7997,1.8079,1.8223,1.8223,1.8129,1.8036,1.8036,1.7911,1.7746,1.748,1.6941,1.6499,1.6242,1.5431,1.4902,1.4866,1.452,1.4299,1.4299,1.4299,1.4299,1.4299,1.4299,1.4299,1.4299,1.4299,1.4299,1.4299,1.4299,1.4299,1.4299,1.4299,1.4299,1.4299,1.469,1.4911,1.4992,1.5396,1.5616,1.5749,1.6181,1.6401,1.6445,1.6892,1.7112,1.7112,1.7112,1.7112,1.7112,1.7112,1.7112,1.7112,1.6049,1.6233,1.6365,1.6365,1.6585,1.6709,1.6709,1.6928,1.7112,1.7112,1.7112,1.7112,1.7112,1.6884,1.6841,1.7068,1.7112,1.7112,1.7112,1.7112,1.7112,1.7112,1.7112,1.7071,1.693,1.7063,1.6979,1.6809,1.6809,1.676,1.6714,1.6722,1.6722,1.6722,1.6866,1.6939,1.6939,1.7071,1.7112,1.7112,1.7112,1.7112,1.7112,1.7112,1.7112,1.7112,1.7112,1.6928,1.6709,1.6709,1.6884,1.7112,1.7112,1.7112,1.7112,1.7112,1.7242,1.7429,1.7546,1.7732,1.7957,1.8135,1.8223,1.8152,1.8062,1.8111,1.8223,1.8223,1.8223,1.8223,1.8223,1.8223,1.8097,1.7738,1.7365,1.6987,1.6551,1.5943,1.543,1.5057,1.4778,1.4564,1.4299,1.4299,1.4299,1.4299,1.4299,1.4299,1.4299,1.4299,1.4299,1.4299,1.4299,1.4431,1.4646,1.4646,1.4734,1.4962,1.4999,1.5212,1.5697,1.5917,1.6145,1.6365,1.6621,1.6709,1.6753,1.7024,1.7112,1.7112,1.7112,1.7112,1.7112,1.7112,1.7112,1.7112,1.6486,1.6801,1.708,1.7104,1.7112,1.7112,1.7112,1.7112,1.7112,1.7112,1.7112,1.7112,1.7112,1.7112,1.7112,1.7112,1.7112,1.7112,1.7112,1.7112,1.7112,1.7112,1.7112,1.7112,1.7112,1.7112,1.6979,1.6809,1.6841,1.6841,1.6809,1.673,1.6755,1.6858,1.6858,1.693,1.7112,1.7112,1.7112,1.7112,1.7112,1.7112,1.7112,1.7112,1.7112,1.7112,1.7112,1.7112,1.7112,1.7112,1.7112,1.7112,1.7112,1.7112,1.7112,1.7112,1.7258,1.7461,1.7554,1.7749,1.7997,1.8135,1.8223,1.8223,1.8223,1.8223,1.8223,1.8223,1.8223,1.8223,1.8223,1.8223,1.8036,1.7624,1.7476,1.7196,1.6552,1.6325,1.5958,1.5204,1.4992,1.4734,1.4343,1.4299,1.4299,1.4299,1.4299,1.4299,1.4299,1.4299,1.4299,1.4299,1.4387,1.4557,1.4866,1.5043,1.5308,1.5704,1.5389,1.5653,1.6401,1.6489,1.6709,1.7112,1.7112,1.7112,1.7112,1.7112,1.7112,1.7112,1.7112,1.7112,1.7112,1.7112,1.7112,1.7112,1.6755,1.6798,1.689,1.7088,1.7112,1.7112,1.7112,1.7112,1.7112,1.7112,1.7112,1.7112,1.7112,1.7112,1.7112,1.7112,1.7112,1.7112,1.7112,1.7112,1.7112,1.7112,1.7112,1.7112,1.7112,1.7112,1.6979,1.6809,1.6963,1.6955,1.6809,1.6982,1.7047,1.708,1.708,1.7088,1.7112,1.7112,1.7112,1.7112,1.7112,1.7112,1.7112,1.7112,1.7112,1.7112,1.7112,1.7112,1.7112,1.7112,1.7112,1.7112,1.7112,1.7112,1.7112,1.7112,1.7303,1.7562,1.7587,1.7884,1.819,1.8168,1.8223,1.8223,1.8223,1.8223,1.8223,1.8223,1.8223,1.8223,1.8223,1.8223,1.8176,1.8083,1.7778,1.7515,1.7422,1.6792,1.6191,1.5668,1.4873,1.4387,1.4299,1.4299,1.4299,1.4299,1.4299,1.4299,1.4299,1.4299,1.4299,1.4299,1.469,1.4734,1.4387,1.5219,1.566,1.5704,1.6049,1.6269,1.6401,1.6797,1.7024,1.7112,1.7112,1.7112,1.7112,1.7112,1.7112,1.7112,1.7112,1.7112,1.7112,1.7112,1.7112,1.7112,1.6955,1.6955,1.7023,1.7096,1.7112,1.7112,1.7112,1.7112,1.7112,1.7112,1.7112,1.7112,1.7112,1.7112,1.7112,1.7112,1.7112,1.7112,1.7112,1.7112,1.7112,1.7112,1.7112,1.7112,1.7112,1.7112,1.7071,1.6955,1.693,1.6882,1.6809,1.6828,1.6868,1.6922,1.6922,1.6979,1.7112,1.7112,1.7112,1.7112,1.7112,1.7112,1.7112,1.7112,1.7112,1.7112,1.7112,1.7112,1.7112,1.7112,1.7112,1.7112,1.7112,1.7112,1.7112,1.7112,1.7218,1.7344,1.7546,1.7708,1.7924,1.8127,1.8223,1.8223,1.8223,1.8223,1.8223,1.8223,1.8223,1.8223,1.8223,1.8223,1.8223,1.8223,1.8046,1.7867,1.7619,1.7277,1.6753,1.5815,1.5308,1.4962,1.4734,1.469,1.469,1.469,1.4431,1.4299,1.4299,1.4299,1.4299,1.4299,1.4778,1.5043,1.5087,1.5749,1.6225,1.6497,1.6709,1.6797,1.6797,1.7024,1.7112,1.7112,1.7112,1.7112,1.7112,1.7112,1.7112,1.7112,1.7112,1.7112,1.7112,1.7112,1.7112,1.7112]},{"header":{"parameterUnit":"m.s-1","parameterCategory":1,"la1":30.6,"la2":28.766,"lo1":-90.7593,"lo2":-88.6598,"dy":0.0162,"dx":0.0183,"nx":116,"ny":114,"refTime":"2023-09-25T12:00:00:Z","depth":0,"parameterNumber":3,"parameterNumberName":"V-component_of_WINDS"},"data":[0.0,0.0,0.0,0.0,0.0,0.0,0.0,0.0,0.0,0.0,0.0,0.0,0.0,0.0,0.0,0.0,0.0,0.0,0.0,0.0,0.0,0.0,0.0,0.0,0.0,0.0,0.0,0.0,0.0,0.0,0.0,0.0,0.0,0.0,0.0,0.0,0.0,0.0,0.0,0.0,0.0,0.0,0.0,0.0,0.0,0.0,0.0,0.0,0.0,0.0,0.0,0.0,0.0,0.0,0.0,0.0,0.0,0.0,0.0,0.0,0.0,0.0,0.0,0.0,0.0,0.0,0.0,0.0,0.0,0.0,0.0,0.0,0.0,0.0,0.0,0.0,0.0,0.0,0.0,0.0,0.0,0.0,0.0,0.0,0.0,0.0,0.0,0.0,0.0,0.0,0.0,0.0,0.0,0.0,0.0,0.0,0.0,0.0,0.0,0.0,0.0,0.0,0.0,0.0,0.0,0.0,0.0,0.0,0.0,0.0,0.0,0.0,0.0,0.0,0.0,0.0,0.0,0.0,0.0,0.0,0.0,0.0,0.0,0.0,0.0,0.0,0.0,0.0,0.0,0.0,0.0,0.0,0.0,0.0,0.0,0.0,0.0,0.0,0.0,0.0,0.0,0.0,0.0,0.0,0.0,0.0,0.0,0.0,0.0,0.0,0.0,0.0,0.0,0.0,0.0,0.0,0.0,0.0,0.0,0.0,0.0,0.0,0.0,0.0,0.0,0.0,0.0,0.0,0.0,0.0,0.0,0.0,0.0,0.0,0.0,0.0,0.0,0.0,0.0,0.0,0.0,0.0,0.0,0.0,0.0,0.0,0.0,0.0,0.0,0.0,0.0,0.0,0.0,0.0,0.0,0.0,0.0,0.0,0.0,0.0,0.0,0.0,0.0,0.0,0.0,0.0,0.0,0.0,0.0,0.0,0.0,0.0,0.0,0.0,0.0,0.0,0.0,0.0,0.0,0.0,0.0,0.0,0.0,0.0,0.0,0.0,0.0,0.0,0.0,0.0,0.0,0.0,0.0,0.0,0.0,0.0,0.0,0.0,0.0,0.0,0.0,0.0,0.0,0.0,0.0,0.0,0.0,0.0,0.0,0.0,0.0,0.0,0.0,0.0,0.0,0.0,0.0,0.0,0.0,0.0,0.0,0.0,0.0,0.0,0.0,0.0,0.0,0.0,0.0,0.0,0.0,0.0,0.0,0.0,0.0,0.0,0.0,0.0,0.0,0.0,0.0,0.0,0.0,0.0,0.0,0.0,0.0,0.0,0.0,0.0,0.0,0.0,0.0,0.0,0.0,0.0,0.0,0.0,0.0,0.0,0.0,0.0,0.0,0.0,0.0,0.0,0.0,0.0,0.0,0.0,0.0,0.0,0.0,0.0,0.0,0.0,0.0,0.0,0.0,0.0,0.0,0.0,0.0,0.0,0.0,0.0,0.0,0.0,0.0,0.0,0.0,0.0,0.0,0.0,0.0,0.0,0.0,0.0,0.0,0.0,0.0,0.0,0.0,0.0,0.0,0.0,0.0,0.0,0.0,0.0,0.0,0.0,0.0,0.0,0.0,0.0,0.0,0.0,0.0,0.0,0.0,0.0,0.0,0.0,0.0,0.0,0.0,0.0,0.0,0.0,0.0,0.0,0.0,0.0,0.0,0.0,0.0,0.0,0.0,0.0,0.0,0.0,0.0,0.0,0.0,0.0,0.0,0.0,0.0,0.0,0.0,0.0,0.0,0.0,0.0,0.0,0.0,0.0,0.0,0.0,0.0,0.0,0.0,0.0,0.0,0.0,0.0,0.0,0.0,0.0,0.0,0.0,0.0,0.0,0.0,0.0,0.0,0.0,0.0,0.0,0.0,0.0,0.0,0.0,0.0,0.0,0.0,0.0,0.0,0.0,0.0,0.0,0.0,0.0,0.0,0.0,0.0,0.0,0.0,0.0,0.0,0.0,0.0,0.0,0.0,0.0,0.0,0.0,0.0,0.0,0.0,0.0,0.0,0.0,0.0,0.0,0.0,0.0,0.0,0.0,0.0,0.0,0.0,0.0,0.0,0.0,0.0,0.0,0.0,0.0,0.0,0.0,0.0,0.0,0.0,0.0,0.0,0.0,0.0,0.0,0.0,0.0,0.0,0.0,0.0,0.0,0.0,0.0,0.0,0.0,0.0,0.0,0.0,0.0,0.0,0.0,0.0,0.0,0.0,0.0,0.0,0.0,0.0,0.0,0.0,0.0,0.0,0.0,0.0,0.0,0.0,0.0,0.0,0.0,0.0,0.0,0.0,0.0,0.0,0.0,0.0,0.0,0.0,0.0,0.0,0.0,0.0,0.0,0.0,0.0,0.0,0.0,0.0,0.0,0.0,0.0,0.0,0.0,0.0,0.0,0.0,0.0,0.0,0.0,0.0,0.0,0.0,0.0,0.0,0.0,0.0,0.0,0.0,0.0,0.0,0.0,0.0,0.0,0.0,0.0,0.0,0.0,0.0,0.0,0.0,0.0,0.0,0.0,0.0,0.0,0.0,0.0,0.0,0.0,0.0,0.0,0.0,0.0,0.0,0.0,0.0,0.0,0.0,0.0,0.0,0.0,0.0,0.0,0.0,0.0,0.0,0.0,0.0,0.0,0.0,0.0,0.0,0.0,0.0,0.0,0.0,0.0,0.0,0.0,0.0,0.0,0.0,0.0,0.0,0.0,0.0,0.0,0.0,0.0,0.0,0.0,0.0,0.0,0.0,0.0,0.0,0.0,0.0,0.0,0.0,0.0,0.0,0.0,0.0,0.0,0.0,0.0,0.0,0.0,0.0,0.0,0.0,0.0,0.0,0.0,0.0,0.0,0.0,0.0,0.0,0.0,0.0,0.0,0.0,0.0,0.0,0.0,0.0,0.0,0.0,0.0,0.0,0.0,0.0,0.0,0.0,0.0,0.0,0.0,0.0,0.0,0.0,0.0,0.0,0.0,0.0,0.0,0.0,0.0,0.0,0.0,0.0,0.0,0.0,0.0,0.0,0.0,0.0,0.0,0.0,0.0,0.0,0.0,0.0,0.0,0.0,0.0,0.0,0.0,0.0,0.0,0.0,0.0,0.0,0.0,0.0,0.0,0.0,0.0,0.0,0.0,0.0,0.0,0.0,0.0,0.0,0.0,0.0,0.0,0.0,0.0,0.0,0.0,0.0,0.0,0.0,0.0,0.0,0.0,0.0,0.0,0.0,0.0,0.0,0.0,0.0,0.0,0.0,0.0,0.0,0.0,0.0,0.0,0.0,0.0,0.0,0.0,0.0,0.0,0.0,0.0,0.0,0.0,0.0,0.0,0.0,0.0,0.0,0.0,0.0,0.0,0.0,0.0,0.0,0.0,0.0,0.0,0.0,0.0,0.0,0.0,0.0,0.0,0.0,0.0,0.0,0.0,0.0,0.0,0.0,0.0,0.0,0.0,0.0,0.0,0.0,0.0,0.0,0.0,0.0,0.0,0.0,0.0,0.0,0.0,0.0,0.0,0.0,0.0,0.0,0.0,0.0,0.0,0.0,0.0,0.0,0.0,0.0,0.0,0.0,0.0,0.0,0.0,0.0,0.0,0.0,0.0,0.0,0.0,0.0,0.0,0.0,0.0,0.0,0.0,0.0,0.0,0.0,0.0,0.0,0.0,0.0,0.0,0.0,0.0,0.0,0.0,0.0,0.0,0.0,0.0,0.0,0.0,0.0,0.0,0.0,0.0,0.0,0.0,0.0,0.0,0.0,0.0,0.0,0.0,0.0,0.0,0.0,0.0,0.0,0.0,0.0,0.0,0.0,0.0,0.0,0.0,0.0,0.0,0.0,0.0,0.0,0.0,0.0,0.0,0.0,0.0,0.0,0.0,0.0,0.0,0.0,0.0,0.0,0.0,0.0,0.0,0.0,0.0,0.0,0.0,0.0,0.0,0.0,0.0,0.0,0.0,0.0,0.0,0.0,0.0,0.0,0.0,0.0,0.0,0.0,0.0,0.0,0.0,0.0,0.0,0.0,0.0,0.0,0.0,0.0,0.0,0.0,0.0,0.0,0.0,0.0,0.0,0.0,0.0,0.0,0.0,0.0,0.0,0.0,0.0,0.0,0.0,0.0,0.0,0.0,0.0,0.0,0.0,0.0,0.0,0.0,0.0,0.0,0.0,0.0,0.0,0.0,0.0,0.0,0.0,0.0,0.0,0.0,0.0,0.0,0.0,0.0,0.0,0.0,0.0,0.0,0.0,0.0,0.0,0.0,0.0,0.0,0.0,0.0,0.0,0.0,0.0,0.0,0.0,0.0,0.0,0.0,0.0,0.0,0.0,0.0,0.0,0.0,0.0,0.0,0.0,0.0,0.0,0.0,0.0,0.0,0.0,0.0,0.0,0.0,0.0,0.0,0.0,0.0,0.0,0.0,0.0,0.0,0.0,0.0,0.0,0.0,0.0,0.0,0.0,0.0,0.0,0.0,0.0,0.0,0.0,0.0,0.0,0.0,0.0,0.0,0.0,0.0,0.0,0.0,0.0,0.0,0.0,0.0,0.0,0.0,0.0,0.0,0.0,0.0,0.0,0.0,0.0,0.0,0.0,0.0,0.0,0.0,0.0,0.0,0.0,0.0,0.0,0.0,0.0,0.0,0.0,0.0,0.0,0.0,0.0,0.0,0.0,0.0,0.0,0.0,0.0,0.0,0.0,0.0,0.0,0.0,0.0,0.0,0.0,0.0,0.0,0.0,0.0,0.0,0.0,0.0,0.0,0.0,0.0,0.0,0.0,0.0,0.0,0.0,0.0,0.0,0.0,0.0,0.0,0.0,0.0,0.0,0.0,0.0,0.0,0.0,0.0,0.0,0.0,0.0,0.0,0.0,0.0,0.0,0.0,0.0,0.0,0.0,0.0,0.0,0.0,0.0,0.0,0.0,0.0,0.0,0.0,0.0,0.0,0.0,0.0,0.0,0.0,0.0,0.0,0.0,0.0,0.0,0.0,0.0,0.0,0.0,0.0,0.0,0.0,0.0,0.0,0.0,0.0,0.0,0.0,0.0,0.0,0.0,0.0,0.0,0.0,0.0,0.0,0.0,0.0,0.0,0.0,0.0,0.0,0.0,0.0,0.0,0.0,0.0,0.0,0.0,0.0,0.0,0.0,0.0,0.0,0.0,0.0,0.0,0.0,0.0,0.0,0.0,0.0,0.0,0.0,0.0,0.0,0.0,0.0,0.0,0.0,0.0,0.0,0.0,0.0,0.0,0.0,0.0,0.0,0.0,0.0,0.0,0.0,0.0,0.0,0.0,0.0,0.0,0.0,0.0,0.0,0.0,0.0,0.0,0.0,0.0,0.0,0.0,0.0,0.0,0.0,0.0,0.0,0.0,0.0,0.0,0.0,0.0,0.0,0.0,0.0,0.0,0.0,0.0,0.0,0.0,0.0,0.0,0.0,0.0,0.0,0.0,0.0,0.0,0.0,0.0,0.0,0.0,0.0,0.0,0.0,0.0,0.0,0.0,0.0,0.0,0.0,0.0,0.0,0.0,0.0,0.0,0.0,0.0,0.0,0.0,0.0,0.0,0.0,0.0,0.0,0.0,0.0,0.0,0.0,0.0,0.0,0.0,0.0,0.0,0.0,0.0,0.0,0.0,0.0,0.0,0.0,0.0,0.0,0.0,0.0,0.0,0.0,0.0,0.0,0.0,0.0,0.0,0.0,0.0,0.0,0.0,0.0,0.0,0.0,0.0,0.0,0.0,0.0,0.0,0.0,0.0,0.0,0.0,0.0,0.0,0.0,0.0,0.0,0.0,0.0,0.0,0.0,0.0,0.0,0.0,0.0,0.0,0.0,0.0,0.0,0.0,0.0,0.0,0.0,0.0,0.0,0.0,0.0,0.0,0.0,0.0,0.0,0.0,0.0,0.0,0.0,0.0,0.0,0.0,0.0,0.0,0.0,0.0,0.0,0.0,0.0,0.0,0.0,0.0,0.0,0.0,0.0,0.0,0.0,0.0,0.0,0.0,0.0,0.0,0.0,0.0,0.0,0.0,0.0,0.0,0.0,0.0,0.0,0.0,0.0,0.0,0.0,0.0,0.0,0.0,0.0,0.0,0.0,0.0,0.0,4.8012,0.0,0.0,0.0,0.0,0.0,0.0,0.0,0.0,0.0,0.0,0.0,0.0,0.0,0.0,0.0,0.0,0.0,0.0,0.0,0.0,0.0,0.0,0.0,0.0,0.0,0.0,0.0,0.0,0.0,0.0,0.0,0.0,0.0,0.0,0.0,0.0,0.0,0.0,4.7384,4.7384,4.7384,4.7378,4.6506,4.6089,4.6089,0.0,0.0,0.0,0.0,0.0,0.0,0.0,0.0,0.0,0.0,0.0,0.0,0.0,0.0,0.0,0.0,0.0,0.0,0.0,0.0,0.0,0.0,0.0,0.0,0.0,0.0,0.0,0.0,0.0,0.0,0.0,0.0,0.0,0.0,0.0,0.0,0.0,0.0,0.0,0.0,0.0,0.0,0.0,0.0,0.0,0.0,0.0,0.0,0.0,0.0,0.0,0.0,0.0,0.0,0.0,0.0,0.0,0.0,0.0,0.0,0.0,0.0,0.0,0.0,0.0,0.0,0.0,0.0,0.0,0.0,0.0,4.9994,0.0,0.0,0.0,0.0,0.0,0.0,0.0,0.0,0.0,0.0,0.0,0.0,0.0,0.0,0.0,0.0,0.0,0.0,0.0,0.0,0.0,0.0,0.0,4.6412,4.6691,4.7372,4.7415,4.7624,0.0,0.0,0.0,0.0,0.0,0.0,4.7909,4.7909,4.789,4.789,4.8004,4.8136,4.8287,4.8287,4.8287,4.8249,4.7643,0.0,0.0,0.0,0.0,0.0,0.0,0.0,0.0,0.0,0.0,0.0,0.0,0.0,0.0,0.0,0.0,0.0,0.0,0.0,0.0,0.0,0.0,0.0,0.0,0.0,0.0,0.0,0.0,0.0,0.0,0.0,0.0,0.0,0.0,0.0,0.0,0.0,0.0,0.0,0.0,0.0,0.0,0.0,0.0,0.0,0.0,0.0,0.0,0.0,0.0,0.0,0.0,0.0,0.0,0.0,0.0,0.0,0.0,0.0,0.0,0.0,0.0,0.0,5.3984,5.4264,5.4264,5.4149,5.482,5.5912,5.312,5.1897,5.1861,5.1734,0.0,0.0,0.0,0.0,0.0,0.0,0.0,0.0,0.0,0.0,0.0,0.0,0.0,0.0,0.0,0.0,0.0,0.0,0.0,0.0,0.0,4.7347,4.7587,4.8269,4.8272,4.8208,4.8124,0.0,0.0,0.0,0.0,0.0,5.0013,4.9898,4.9814,4.9814,5.0422,5.1047,5.1729,5.1729,5.1729,5.1616,4.8704,4.7839,4.8483,0.0,0.0,0.0,0.0,0.0,0.0,0.0,0.0,0.0,0.0,0.0,0.0,0.0,0.0,0.0,0.0,0.0,0.0,0.0,0.0,0.0,0.0,0.0,0.0,0.0,0.0,0.0,0.0,0.0,0.0,0.0,0.0,0.0,0.0,0.0,0.0,0.0,0.0,0.0,0.0,0.0,4.8853,4.9559,0.0,0.0,0.0,0.0,0.0,0.0,0.0,0.0,0.0,0.0,0.0,0.0,0.0,5.4899,5.5632,5.6331,5.7031,5.7762,5.7756,5.7739,5.7739,5.7717,5.7763,5.7788,5.6669,0.0,5.6132,5.5476,0.0,0.0,0.0,0.0,0.0,0.0,0.0,0.0,0.0,0.0,0.0,0.0,0.0,0.0,0.0,0.0,0.0,0.0,0.0,0.0,0.0,4.8608,4.9157,4.9933,5.0395,5.0588,5.0457,5.113,0.0,0.0,0.0,5.1853,5.1853,5.167,5.1777,5.2178,5.2916,5.3473,5.3814,5.3814,5.3814,5.3738,5.2267,5.1054,5.0069,4.9166,0.0,0.0,0.0,0.0,0.0,0.0,0.0,0.0,0.0,0.0,0.0,0.0,0.0,0.0,0.0,0.0,0.0,0.0,0.0,0.0,0.0,0.0,0.0,0.0,0.0,0.0,0.0,0.0,0.0,0.0,0.0,0.0,0.0,0.0,0.0,0.0,0.0,0.0,0.0,4.9856,5.045,5.0785,5.1156,5.1416,0.0,0.0,0.0,0.0,0.0,0.0,0.0,0.0,0.0,5.6013,5.7165,5.7945,5.8316,5.9547,6.012,6.0082,6.0381,6.0289,5.9871,5.9767,5.997,6.0331,6.0029,5.9904,5.9708,5.6908,5.5521,5.511,0.0,0.0,0.0,0.0,5.5497,5.5992,0.0,0.0,0.0,0.0,0.0,0.0,0.0,0.0,0.0,0.0,0.0,0.0,4.9352,5.0084,5.0983,5.2072,5.2732,5.3029,5.2965,5.3228,5.3061,5.2423,5.2853,5.3138,5.3138,5.3109,5.3384,5.401,5.4844,5.5337,5.5527,5.5527,5.5527,5.5527,5.5527,5.4382,5.2411,5.1326,5.0575,4.9977,0.0,0.0,0.0,0.0,0.0,0.0,0.0,0.0,0.0,0.0,0.0,0.0,0.0,0.0,0.0,0.0,0.0,0.0,0.0,0.0,0.0,0.0,0.0,0.0,0.0,0.0,0.0,0.0,0.0,0.0,0.0,0.0,0.0,0.0,0.0,0.0,0.0,5.1714,5.1788,5.1974,5.2197,5.2308,0.0,0.0,0.0,0.0,0.0,0.0,5.8019,5.8326,5.8799,5.9616,6.0619,6.1139,6.1139,6.2625,6.3033,6.245,6.2955,6.2872,6.2316,6.2199,6.2327,6.2674,6.2533,6.237,6.1881,5.8438,5.6901,5.6647,5.6463,5.6411,5.6485,5.6974,5.7342,5.7706,0.0,0.0,0.0,0.0,0.0,0.0,0.0,0.0,0.0,0.0,0.0,4.9243,5.0887,5.1778,5.2944,5.4653,5.4844,5.4854,5.478,5.404,5.3538,5.3416,5.3447,5.3481,5.3481,5.3913,5.4352,5.4844,5.5716,5.6512,5.727,5.727,5.727,5.727,5.727,5.6777,5.583,5.42,5.3927,5.4413,5.2783,0.0,0.0,0.0,0.0,0.0,0.0,0.0,0.0,0.0,0.0,0.0,0.0,0.0,0.0,0.0,0.0,0.0,0.0,0.0,0.0,0.0,0.0,0.0,0.0,0.0,0.0,0.0,0.0,0.0,0.0,0.0,0.0,0.0,0.0,0.0,0.0,0.0,0.0,5.3599,5.4342,0.0,0.0,0.0,0.0,5.7239,5.736,5.8093,5.969,6.0545,6.1373,6.2179,6.3739,6.4556,6.4556,6.5448,6.5893,6.5856,6.5893,6.5893,6.5856,6.5845,6.5341,6.4419,6.3678,6.2843,6.1937,6.1215,6.0395,5.9503,5.8762,5.8278,5.8068,5.8105,5.8529,5.9086,0.0,0.0,0.0,0.0,0.0,0.0,0.0,0.0,4.9025,4.9357,5.0353,5.1513,5.2663,5.4,5.5275,5.6438,5.7017,5.7055,5.648,5.617,5.5732,5.5122,5.5122,5.5311,5.576,5.6329,5.6952,5.7556,5.8228,5.8718,5.9022,5.9022,5.9022,5.9022,5.9022,5.887,5.8453,5.6247,5.4792,5.3883,5.3443,5.2824,0.0,0.0,0.0,0.0,0.0,0.0,0.0,0.0,0.0,0.0,0.0,0.0,0.0,0.0,0.0,0.0,0.0,0.0,0.0,0.0,0.0,0.0,0.0,0.0,0.0,0.0,0.0,0.0,0.0,0.0,0.0,0.0,0.0,0.0,0.0,0.0,0.0,5.6013,5.6422,0.0,5.8056,5.8427,5.917,6.0545,6.0656,6.1362,6.2959,6.3368,6.3925,6.4742,6.5856,6.6673,6.7193,6.8011,6.8419,6.8419,6.8419,6.8159,6.7639,6.7119,6.6687,6.628,6.5501,6.4958,6.4638,6.4422,6.2821,6.0429,6.0134,6.0011,6.0063,6.0476,6.087,6.1165,0.0,0.0,0.0,0.0,0.0,0.0,0.0,0.0,4.9889,5.0183,5.1454,5.2806,5.3993,5.5788,5.7408,5.8565,5.9138,5.9068,5.8212,5.7632,5.6897,5.6046,5.6278,5.6598,5.6991,5.7908,5.863,5.9084,5.9726,6.0182,6.0533,6.0478,6.0591,6.0827,6.0768,6.0568,6.0197,5.8567,5.6806,5.5131,5.4731,5.4292,5.3868,0.0,0.0,0.0,0.0,0.0,0.0,0.0,0.0,0.0,0.0,0.0,0.0,0.0,0.0,0.0,0.0,0.0,0.0,0.0,0.0,0.0,0.0,0.0,0.0,0.0,0.0,0.0,0.0,0.0,0.0,0.0,0.0,0.0,0.0,5.5902,5.6645,5.7759,5.8661,5.9579,6.0656,6.099,6.1733,6.3108,6.3219,6.4036,6.5968,6.6042,6.6562,6.7676,6.8233,6.8642,6.8902,6.9719,6.9979,6.9719,6.9719,6.9422,6.8902,6.8345,6.7973,6.7676,6.7416,6.7156,6.6896,6.6896,6.5514,6.3336,6.2817,6.2618,6.2715,6.3153,6.3338,6.3449,0.0,0.0,0.0,0.0,0.0,0.0,4.9587,4.9742,5.0043,5.0889,5.173,5.2953,5.4765,5.7185,5.9304,6.1002,6.1157,6.0809,5.9957,5.829,5.6936,5.6085,5.6859,5.7259,5.7112,5.8534,5.9319,5.9409,6.0009,6.0818,6.1831,6.1631,6.1941,6.2704,6.252,6.194,6.1144,6.1144,6.0235,5.868,5.6975,5.6702,5.7073,0.0,0.0,0.0,0.0,0.0,0.0,0.0,0.0,0.0,0.0,0.0,0.0,0.0,0.0,0.0,0.0,0.0,0.0,0.0,0.0,0.0,0.0,0.0,0.0,0.0,0.0,0.0,0.0,0.0,0.0,0.0,0.0,0.0,5.6655,5.7796,5.8836,5.8873,6.099,6.2513,6.255,6.3293,6.4073,6.4891,6.4965,6.6042,6.8456,6.8568,6.9311,7.0908,7.0945,7.0611,6.9868,7.0648,7.0648,6.993,6.988,6.9868,6.9855,6.9806,6.9348,6.8642,6.9422,6.9311,6.8568,6.8568,6.8568,6.8419,6.6785,6.6106,6.5986,6.5986,6.5914,6.5829,0.0,0.0,0.0,0.0,0.0,0.0,5.0438,5.0554,5.0678,5.0894,5.2233,5.4047,5.6386,5.8385,6.0228,6.1887,6.2042,6.1427,5.9996,5.8874,5.7869,5.6975,5.7168,5.8156,5.994,6.0234,6.0991,6.2278,6.2273,6.243,6.272,6.2698,6.2651,6.2719,6.2643,6.2387,6.2037,6.2037,6.1772,6.1212,5.89,5.7429,5.6436,0.0,0.0,0.0,0.0,0.0,0.0,0.0,0.0,0.0,0.0,0.0,0.0,0.0,0.0,0.0,0.0,0.0,0.0,0.0,0.0,0.0,0.0,0.0,0.0,0.0,0.0,0.0,0.0,0.0,0.0,0.0,5.9653,6.0136,5.9059,6.0322,6.1808,6.2996,6.3739,6.4631,6.5819,6.6673,6.7491,6.8308,6.8902,6.9534,7.0202,7.0239,7.0722,7.1825,7.1862,7.2295,7.3224,7.3484,7.395,7.4633,7.3689,7.3441,7.3697,7.2187,7.1379,7.1156,7.0759,7.0462,7.0239,7.0239,7.0239,7.0091,6.8456,6.7987,6.823,6.823,6.8345,6.8518,0.0,0.0,0.0,0.0,0.0,0.0,5.0821,5.0898,5.0898,5.0898,5.2724,5.4735,5.6549,5.8952,6.0925,6.2274,6.208,6.1311,6.0001,5.872,5.7985,5.7869,5.8522,5.9759,6.1616,6.1813,6.242,6.3543,6.3324,6.3468,6.3892,6.3769,6.3807,6.3891,6.3787,6.3432,6.2909,6.2909,6.2719,6.2265,6.0833,5.943,5.8188,5.7497,5.6882,5.6311,5.5808,5.5605,5.5505,5.5289,0.0,0.0,0.0,0.0,0.0,0.0,0.0,0.0,0.0,0.0,0.0,0.0,0.0,0.0,0.0,0.0,0.0,0.0,0.0,0.0,0.0,0.0,0.0,0.0,6.1733,6.2773,6.2959,6.3553,6.4408,6.5708,6.6451,6.7379,6.8679,6.9236,6.9719,7.0165,7.0982,7.1589,7.1923,7.2258,7.2852,7.3683,7.372,7.4017,7.4574,7.4946,7.529,7.5683,7.4954,7.4744,7.4972,7.3763,7.3291,7.3479,7.3317,7.3365,7.3541,7.3541,7.3541,7.3269,0.0,0.0,0.0,0.0,7.0104,7.0438,0.0,0.0,0.0,0.0,0.0,0.0,5.0898,5.0979,5.1057,5.1057,5.33,5.5238,5.6046,5.9025,6.1311,6.2196,6.1461,6.0615,5.9807,5.8294,5.7864,5.884,6.0383,6.1693,6.266,6.3267,6.3692,6.3985,6.4001,6.4464,6.5296,6.5225,6.5467,6.5918,6.5665,6.5005,6.4111,6.4069,6.3605,6.2846,6.285,6.2084,6.0803,5.9363,5.8605,5.8136,5.7364,5.6926,5.6749,5.6769,0.0,0.0,0.0,0.0,0.0,0.0,0.0,0.0,0.0,0.0,0.0,0.0,0.0,0.0,0.0,0.0,0.0,0.0,0.0,0.0,0.0,0.0,0.0,0.0,6.3628,6.5782,6.7342,6.7045,6.6896,6.7602,6.8976,7.0128,7.0821,7.1056,7.1168,7.1168,7.2072,7.2902,7.3645,7.4351,0.0,0.0,0.0,7.5745,7.5113,7.5848,7.5913,7.5232,7.5094,7.5056,7.5083,7.4944,7.511,7.5553,7.6256,7.681,7.72,7.72,7.72,7.6823,7.3119,7.1677,7.1677,7.1737,7.203,7.238,0.0,0.0,0.0,0.0,0.0,0.0,5.0898,5.1486,5.1954,5.1954,5.4194,5.6085,5.6936,5.8874,6.046,6.1273,6.0615,5.9769,5.8918,5.8531,5.9029,6.0538,6.1616,6.2897,6.445,6.4613,6.5038,6.5721,6.7082,6.7508,6.7036,6.8364,6.8562,6.7872,6.7789,6.7585,6.7209,6.6992,6.6445,6.5683,6.5478,6.3259,6.0083,5.978,5.8689,5.7289,5.6993,5.674,5.6538,5.6413,5.6402,5.6392,5.6353,5.6343,0.0,0.0,0.0,0.0,0.0,0.0,0.0,0.0,0.0,0.0,0.0,0.0,0.0,0.0,0.0,0.0,0.0,0.0,0.0,6.385,6.6153,6.8122,6.9088,6.9682,7.0016,7.0202,7.0499,7.0722,7.0871,7.2109,7.2939,7.2939,7.4277,7.5169,7.5318,7.5466,7.5949,7.6804,7.7202,7.7654,7.8154,7.8679,7.9064,7.9279,7.8193,0.0,7.8186,7.7181,7.676,7.6846,7.6998,7.7116,7.72,7.72,7.72,7.7145,7.672,7.656,7.6598,7.692,7.7075,7.7172,0.0,0.0,0.0,0.0,0.0,0.0,5.0898,5.1641,5.2186,5.2186,5.4426,5.6162,5.6588,5.8217,5.942,5.9803,5.9498,5.9266,5.9266,5.9614,6.0615,6.2322,6.3245,6.429,6.5571,6.561,6.5992,6.6843,6.7733,6.8153,6.8153,6.9009,6.9032,6.8391,6.8391,6.8282,6.8076,6.7951,6.7599,6.7052,6.6531,6.4723,6.2311,6.1477,6.0232,5.889,5.838,5.8005,5.7742,5.7672,5.7563,5.7509,5.7509,5.7769,5.8093,0.0,0.0,0.0,0.0,0.0,0.0,0.0,0.0,0.0,0.0,0.0,0.0,0.0,0.0,6.0916,6.2179,0.0,6.4779,6.6376,6.8048,6.9534,7.0772,7.1626,7.1998,7.1589,7.1923,7.2295,7.2704,7.3855,7.4612,7.4612,7.5763,7.6469,7.6469,7.7084,7.76,7.8049,7.8524,7.8934,7.9349,7.9587,7.9815,8.0033,7.936,7.9191,7.9396,7.8725,7.8594,7.8807,7.8807,7.8923,7.9158,7.9158,7.9158,7.9176,7.9391,7.8706,7.7579,7.7777,7.8002,7.8193,0.0,0.0,0.0,0.0,0.0,0.0,0.0,5.1792,5.2457,5.2457,5.4658,5.6201,5.6008,5.7404,5.8337,5.8337,5.8492,5.9034,6.0074,6.0886,6.2124,6.3869,6.4798,6.5533,6.6185,6.6185,6.6611,6.7501,6.8003,6.8584,6.9275,6.9623,6.959,6.9224,6.9031,6.8867,6.8709,6.8618,6.8388,6.7956,6.7218,6.632,6.5192,6.3515,6.2115,6.0974,6.0332,5.975,5.9293,5.9443,5.9255,5.8947,5.9133,5.9616,6.0136,6.0136,6.0136,0.0,0.0,0.0,0.0,0.0,0.0,0.0,0.0,6.1659,6.1696,6.1893,6.2662,6.3553,6.4185,6.5671,6.7231,6.8531,6.9682,7.0883,7.2233,7.3274,7.3645,7.2977,7.346,7.4128,7.476,7.5578,7.6061,7.6061,7.6841,7.7379,7.7449,7.844,7.9027,7.9125,7.9599,7.9836,7.9836,7.992,7.9961,7.9961,7.9961,7.9961,7.9961,7.9961,8.019,8.054,8.054,8.0754,8.1093,8.1093,8.1093,8.1093,8.1093,7.9804,7.7948,7.7948,7.8189,7.8529,0.0,0.0,0.0,0.0,0.0,0.0,0.0,0.0,5.3347,5.3347,5.5582,5.6859,5.6085,5.6859,5.7439,5.7439,5.8139,5.9266,6.0847,6.1771,6.3013,6.4798,6.5644,6.6108,6.6185,6.6185,6.6611,6.7501,6.9783,7.0905,7.1059,7.2607,7.2905,7.2114,7.1302,7.0943,7.0909,7.0504,6.9895,6.9153,6.8598,6.7872,6.6935,6.5267,6.3524,6.1926,6.1851,6.1112,6.0265,6.0985,6.057,5.9913,6.0693,6.1001,6.1028,6.1028,6.1028,6.1076,6.1187,6.1065,6.1113,6.1919,6.167,6.1558,0.0,6.333,6.3516,6.4259,6.5633,6.6785,6.6859,6.8196,6.9348,6.9534,7.1478,7.3051,7.3237,7.4574,7.5503,7.5429,7.5466,7.5578,7.5652,7.6469,7.6952,7.6952,7.7696,7.8373,7.8754,7.8929,7.9173,7.961,8.0063,8.0325,8.0325,8.0745,8.0943,8.0943,8.0943,8.0943,8.0943,8.0943,8.0959,8.1037,8.1037,8.1061,8.1093,8.1093,8.1093,8.1093,8.1093,8.093,8.0674,8.0674,8.0698,8.073,0.0,0.0,0.0,0.0,0.0,0.0,0.0,0.0,0.0,5.4194,5.5582,5.6394,5.6046,5.6317,5.6936,5.7985,5.8376,5.973,6.2438,6.2941,6.3908,6.5605,6.6031,6.6185,6.6185,6.6185,6.6611,6.7501,6.8584,6.9357,6.986,7.1059,7.1452,7.1103,7.1258,7.1297,7.1286,7.1091,7.0649,7.0048,6.9343,6.8422,6.7276,6.6063,6.4797,6.3524,6.2048,6.1053,0.0,6.0817,6.0476,6.0062,6.0916,6.151,6.1893,6.1893,6.1893,6.1808,6.1336,6.1882,6.255,6.2439,6.2848,6.3479,6.4148,6.5039,6.5856,6.6191,6.7565,6.8716,6.8716,7.0029,7.1292,7.1775,7.3125,7.4357,7.5085,7.6206,7.6767,7.6281,7.7303,7.7666,7.6648,7.7545,7.8226,7.8188,7.9204,7.9686,7.9407,8.0596,8.0908,8.0121,8.1026,8.1295,8.0796,8.0983,8.1093,8.1093,8.1093,8.1093,8.1093,8.1093,8.1093,8.1093,8.1093,8.1093,8.1093,8.1093,8.1093,8.1093,8.1093,8.1093,8.1093,8.1093,8.1093,8.1093,0.0,0.0,0.0,0.0,0.0,0.0,0.0,0.0,0.0,0.0,5.55,5.6008,5.6008,5.6008,5.6708,5.8453,5.8608,5.9962,6.3134,6.356,6.4334,6.5799,6.6069,6.6185,6.6185,6.6185,6.6611,6.7501,6.7733,6.8313,6.9164,6.9976,7.0368,7.0407,7.1026,7.1297,7.1291,7.1241,7.1017,7.0643,6.9903,6.8902,6.7726,6.6756,6.5905,6.4964,6.288,6.1658,6.1065,6.1412,6.0998,6.0519,6.1532,6.2253,6.2736,6.2736,6.2736,6.2588,6.2041,6.2885,6.3776,6.3219,6.4296,6.5485,6.5485,6.6785,6.7973,6.7973,6.9088,7.0016,7.0016,7.1032,7.2196,7.3237,7.4184,7.5284,7.6665,7.7509,7.7829,7.7415,7.8553,7.8939,7.7903,7.8653,7.9173,7.9184,8.025,8.0607,7.9927,8.1813,8.2291,8.0967,8.181,8.2016,8.1439,8.1208,8.1093,8.1093,8.1093,8.1093,8.1093,8.1093,8.1093,8.1093,8.1093,8.1246,8.1439,8.1439,8.1554,8.1785,8.1785,8.1785,8.1785,8.1785,8.1516,8.1093,0.0,0.0,0.0,0.0,0.0,0.0,0.0,0.0,0.0,0.0,0.0,0.0,0.0,5.6008,5.6708,5.8453,5.8608,5.9691,6.2274,6.325,6.4101,6.4991,6.576,6.6185,6.6185,6.6185,6.6611,6.7501,6.8346,6.9164,6.9982,7.0833,7.1258,7.1258,7.1297,7.1297,7.128,7.1093,7.1005,7.0959,7.0385,6.9675,6.8816,6.7562,6.6664,6.595,6.5069,6.359,6.2267,6.364,6.2905,6.1697,6.3074,6.3553,6.3553,6.3553,6.3553,6.3553,6.3516,6.4148,6.4779,6.4742,6.6005,6.7231,6.7231,6.8456,6.9645,6.9645,7.0314,7.0858,7.0858,7.0908,7.1465,7.3125,7.4474,7.5849,7.7539,7.81,7.869,7.9486,7.8891,7.8739,7.9551,7.9675,7.9686,7.9686,8.0428,8.0746,8.0392,8.1967,8.2688,8.2261,8.2285,8.2285,8.2247,8.1477,8.1093,8.1093,8.1093,8.1093,8.1093,8.1093,8.1093,8.1093,8.1093,8.1554,8.2247,8.2247,8.2747,8.3524,8.3524,8.3524,8.3524,8.3524,8.2485,8.1093,0.0,0.0,0.0,0.0,0.0,0.0,0.0,0.0,0.0,0.0,0.0,0.0,0.0,0.0,0.0,0.0,5.8608,5.9687,6.2235,6.2665,6.3245,6.4101,6.4952,6.5417,6.5417,6.5915,6.634,6.665,6.692,6.7501,6.8352,6.9241,6.9938,7.0446,7.1026,7.1224,7.11,7.103,7.0798,7.0416,6.9704,6.8733,6.7675,6.6985,6.6129,6.5297,0.0,6.4057,6.2815,6.3539,6.3045,6.2305,6.3621,6.3808,6.359,6.359,6.3999,6.4408,6.4408,6.5411,6.6451,6.6451,6.7676,6.8902,6.8902,7.0177,7.118,7.0611,7.0932,7.1109,7.0597,7.0736,7.1632,7.3838,7.5048,7.6587,7.9167,7.9634,7.9619,7.9362,7.9817,7.9948,7.9343,7.9847,8.0142,8.0142,8.1202,8.1793,8.1683,8.2736,8.3055,8.2324,8.2285,8.2054,8.1516,8.1246,8.1093,8.1093,8.1093,8.1362,8.19,8.19,8.2208,8.2747,8.2747,8.2909,8.3178,8.3178,8.3332,8.3601,8.3601,8.3601,8.3601,8.3601,8.3255,8.2747,0.0,0.0,0.0,0.0,0.0,0.0,0.0,0.0,0.0,0.0,0.0,0.0,0.0,0.0,0.0,0.0,0.0,5.9509,6.1747,6.2172,6.2607,6.3207,6.4043,6.4507,6.4527,6.503,6.5301,6.5301,6.5301,6.576,6.6611,6.7462,6.8313,6.9125,7.0015,7.0263,7.008,7.008,6.9882,6.9513,6.8938,6.8068,6.7072,6.6654,6.5946,0.0,6.5167,6.4465,6.3606,6.3929,6.335,6.271,6.3835,6.3937,6.3665,6.3925,6.4408,6.4928,6.5522,6.6673,6.7788,6.8085,6.9385,7.0586,7.0586,7.1626,7.2433,7.1702,7.1568,7.1343,7.0643,7.0262,7.0819,7.3328,7.4084,7.5656,7.939,7.9545,7.9527,8.0157,8.0465,8.0437,7.9868,8.0331,8.0638,8.0638,8.1664,8.2285,8.2285,8.3139,8.3332,8.2793,8.2439,8.2054,8.1516,8.1516,8.1708,8.1977,8.1977,8.2247,8.2747,8.2747,8.3062,8.3601,8.3601,8.3793,8.4055,8.4055,8.4209,8.4478,8.4478,8.4478,8.4478,8.4478,8.4478,8.4409,0.0,0.0,0.0,0.0,0.0,0.0,0.0,0.0,0.0,0.0,0.0,0.0,0.0,0.0,0.0,0.0,0.0,0.0,6.0886,6.177,6.2258,6.2341,6.3109,6.3578,6.3632,6.3671,6.3671,6.3676,6.3676,6.4179,6.5069,6.5837,6.6688,6.7617,6.8424,6.864,6.8391,6.8391,6.8385,6.836,6.8116,6.7689,6.7102,6.6641,6.6099,6.5549,6.5253,6.4904,6.463,6.4775,6.3936,6.2942,6.3866,6.3926,6.3739,6.4591,6.4876,6.5299,6.6932,6.8035,6.8865,6.9645,7.1057,7.2284,7.2284,7.2855,7.3267,7.2866,7.2128,7.1379,7.0885,6.9531,6.9313,7.192,7.2037,7.3577,7.8575,7.8273,7.8754,8.1977,8.0977,8.0285,8.1093,8.117,8.1131,8.1093,8.1823,8.2285,8.2362,8.3062,8.3524,8.3601,8.2747,8.2285,8.2285,8.2324,8.2793,8.3601,8.3601,8.364,8.3678,8.3678,8.3678,8.3717,8.3717,8.4209,8.497,8.497,8.5393,8.6094,8.6094,8.6094,8.6094,8.6094,8.6094,8.5863,0.0,0.0,0.0,0.0,0.0,0.0,0.0,0.0,0.0,0.0,0.0,0.0,0.0,0.0,0.0,0.0,0.0,0.0,6.0897,6.1206,6.1332,6.1343,6.2148,6.2578,6.2594,6.3212,6.3575,6.3616,6.3616,6.441,6.5915,6.6108,6.6998,6.8462,6.8694,6.8635,6.8379,6.8379,6.8327,6.8126,6.7417,6.6945,6.6641,6.6162,6.5785,6.5538,6.5531,6.5207,6.482,6.5238,6.487,6.4125,6.3862,6.3691,6.3818,6.4935,6.5941,6.6942,6.829,6.991,7.1305,7.1527,7.2571,7.3534,7.3534,7.3462,7.321,7.2494,7.1427,7.0404,6.968,6.9451,7.0386,7.353,7.4528,7.6433,8.0849,8.123,8.1601,8.3101,8.2909,8.2439,8.2054,8.1977,8.1747,8.1131,8.1285,8.1939,8.3216,8.2285,8.2331,8.3563,8.2747,8.2285,8.2285,8.2947,8.337,8.3601,8.3601,8.3939,8.4555,8.4555,8.4901,8.5478,8.5478,8.5593,8.5786,8.5786,8.5901,8.6094,8.6094,8.6094,8.6094,8.6094,8.6094,8.6055,0.0,0.0,0.0,0.0,0.0,0.0,0.0,0.0,0.0,0.0,0.0,0.0,0.0,0.0,0.0,0.0,0.0,0.0,0.0,6.0955,6.0965,6.0992,6.14,6.1632,6.1653,6.2155,6.2595,6.2975,6.2627,6.3338,6.4992,6.4631,6.5415,6.7077,6.7103,6.7211,6.7306,6.7306,6.7212,0.0,0.0,6.6329,6.6259,6.5999,6.582,6.5718,6.5808,6.5475,6.5047,6.5198,6.5132,6.4897,6.4308,6.4408,6.4993,6.6555,6.7514,6.847,7.0237,7.1563,7.2497,7.2669,7.3379,7.3897,7.3547,7.3452,7.3105,7.2119,7.1327,7.0634,6.9996,6.9788,7.0667,7.3699,7.4245,7.6053,8.1054,8.1439,8.1939,8.3939,8.3832,8.3409,8.2901,8.2516,8.2285,8.2208,8.1516,8.167,8.2947,8.2131,8.2208,8.3563,8.3139,8.3054,8.3439,8.3939,8.4362,8.4709,8.4709,8.4939,8.5431,8.5431,8.567,8.6094,8.6094,8.6094,8.6094,8.6094,8.6094,8.6094,8.6094,8.6094,8.6094,8.6094,8.6094,8.6094,0.0,0.0,0.0,0.0,0.0,0.0,0.0,0.0,0.0,0.0,0.0,0.0,0.0,0.0,0.0,0.0,0.0,0.0,0.0,0.0,6.0922,6.0965,6.0922,6.0922,6.0971,6.0971,6.1318,6.2023,6.1329,6.1797,6.3307,6.2594,6.3232,6.4899,6.4946,6.5313,6.5899,6.5899,6.5863,6.5846,6.5846,6.585,6.5916,0.0,6.5905,6.5893,6.5846,6.5542,6.509,6.4764,6.4982,6.5355,6.5039,6.5485,6.6493,6.8505,6.9182,6.9783,7.2155,7.2894,7.3042,7.3341,7.3652,7.3725,7.3026,7.3051,7.2937,7.1816,7.15,7.1328,7.0965,7.0321,7.0744,7.3392,7.3206,7.4745,8.0592,8.0785,8.1477,8.4662,8.4401,8.3909,8.3793,8.317,8.3016,8.3563,8.2362,8.19,8.2593,8.2554,8.2862,8.3755,8.3755,8.417,8.5055,8.5047,8.5401,8.6094,8.6094,8.6094,8.6094,8.6094,8.6094,8.6094,8.6094,8.6094,8.6094,8.6094,8.6094,8.6094,8.6094,8.6094,8.6094,8.6094,8.6094,8.6094,0.0,0.0,0.0,0.0,0.0,0.0,0.0,0.0,0.0,0.0,5.5708,5.5708,0.0,0.0,0.0,0.0,0.0,0.0,0.0,0.0,0.0,6.0816,6.0804,6.0804,6.0816,6.0816,6.0916,6.1114,6.1004,6.1417,6.243,6.2287,6.3141,6.4801,6.4812,6.5258,6.599,6.599,6.5984,6.5973,6.5973,6.5826,6.5568,6.5538,0.0,0.0,6.5051,6.471,6.4338,6.3962,6.4507,6.5468,6.5757,6.5968,6.6482,6.8521,6.9611,7.0561,7.2308,7.3285,7.3743,7.349,7.3452,7.3474,7.3312,7.2832,7.237,7.2114,7.1514,7.099,7.093,7.0783,7.1745,7.5053,7.5438,7.7169,8.2447,8.3024,8.367,8.567,8.5747,8.5401,8.4747,8.5132,8.4939,8.3678,8.4016,8.4277,8.4439,8.3785,8.3785,8.467,8.467,8.5055,8.5901,8.5893,8.5978,8.6094,8.6094,8.6094,8.6094,8.6094,8.6094,8.6094,8.6094,0.0,8.6094,8.6094,8.6094,8.6094,8.6094,8.6094,8.6094,8.6094,8.6094,8.6094,0.0,0.0,0.0,0.0,0.0,0.0,0.0,5.5708,5.5708,5.5708,5.5708,5.5708,5.5708,5.5708,5.6055,0.0,0.0,0.0,0.0,0.0,0.0,6.0787,6.0787,6.0787,6.0787,6.0787,6.1029,6.152,0.0,6.1499,6.276,6.2326,6.3075,6.4739,6.4767,6.5241,6.6007,6.6007,6.5875,6.5692,6.5913,6.5626,6.5107,6.5268,0.0,0.0,6.4593,6.4349,6.4213,6.4242,6.4603,6.5195,6.59,6.6673,6.7672,6.9319,7.0508,7.1549,7.2538,7.3738,7.4533,7.3883,7.3738,7.3639,7.3183,7.2622,7.2059,7.1629,7.1206,7.0898,7.0898,7.0898,7.1745,7.4284,7.4707,7.6322,8.0977,8.2016,8.3093,8.5209,8.5863,8.594,8.5555,8.547,8.5324,8.4939,8.4901,8.4709,8.4247,8.4247,8.467,8.5517,8.5517,8.5709,8.6094,8.6094,8.6094,8.6094,8.6094,8.6094,8.6094,8.6094,8.6094,8.6094,8.6094,8.6094,8.6094,8.6094,8.6363,8.6786,8.6786,8.7055,8.7401,8.694,8.7055,8.7401,0.0,0.0,0.0,0.0,0.0,0.0,0.0,5.5594,5.561,5.5698,5.5708,5.5708,5.5708,5.5708,5.5978,0.0,0.0,0.0,0.0,0.0,0.0,0.0,0.0,0.0,6.0787,0.0,0.0,6.1826,6.1133,0.0,0.0,0.0,0.0,0.0,6.4639,6.5196,6.5967,6.5907,6.5653,0.0,0.0,6.5253,6.4619,0.0,0.0,0.0,0.0,6.4149,6.4127,6.4432,6.4668,6.4928,6.5596,6.6822,6.8243,6.9608,7.0818,7.1851,7.2589,7.3909,7.492,7.4304,7.3969,7.3649,7.2953,7.2356,7.1745,7.1052,7.0898,7.0898,7.0898,7.0898,7.1475,7.3238,7.3623,7.5161,7.9238,8.0708,8.2247,8.4624,8.5624,8.617,8.6363,8.5824,8.5709,8.6324,8.5632,8.4863,8.417,8.4786,8.544,8.6094,8.6094,8.6094,8.6094,8.6094,8.6094,8.6094,8.6094,8.6094,8.6094,8.6094,8.6094,8.6094,8.6094,8.6209,8.6363,8.6363,8.6901,8.7671,8.7671,8.8094,8.8641,8.794,8.8102,8.8603,0.0,0.0,0.0,0.0,0.0,0.0,0.0,5.5333,5.5419,5.5682,5.5708,5.5708,5.5708,5.5708,5.5747,0.0,0.0,0.0,0.0,0.0,0.0,0.0,0.0,0.0,0.0,0.0,0.0,6.0941,6.0825,0.0,0.0,0.0,0.0,0.0,0.0,6.5108,6.5904,6.552,0.0,0.0,0.0,0.0,0.0,0.0,0.0,0.0,0.0,6.399,6.3658,6.3713,6.4185,6.4816,6.4891,6.5559,6.6611,6.8219,6.93,7.045,7.2288,7.3482,7.4287,7.4576,7.3763,7.2915,7.2801,7.1889,7.1014,7.0937,7.0898,7.0898,7.0898,7.0898,7.1475,7.3238,7.4123,7.5815,7.9315,8.117,8.2862,8.4662,8.5624,8.6401,8.7209,8.7209,8.7209,8.7286,8.6478,8.594,8.5863,8.594,8.6017,8.6094,8.6094,8.6094,8.6094,8.6094,8.6094,8.6094,8.6094,8.6094,8.6094,8.6094,8.6094,8.6094,8.6094,8.6555,0.0,8.7286,8.7786,8.8564,8.8564,8.8641,8.8679,8.8603,8.8641,8.8679,0.0,0.0,0.0,0.0,0.0,0.0,5.5256,5.5431,5.5514,5.5461,5.5455,5.5395,5.5178,5.5159,5.5301,5.5682,0.0,0.0,0.0,0.0,0.0,0.0,0.0,0.0,0.0,0.0,6.071,6.0507,6.0507,0.0,0.0,0.0,0.0,0.0,0.0,6.5214,6.5513,6.539,0.0,0.0,0.0,0.0,0.0,0.0,0.0,0.0,0.0,0.0,6.359,6.359,6.3813,6.4073,6.4073,6.4333,6.5002,6.7156,6.9271,7.1044,7.1874,7.365,7.52,7.51,7.4138,7.3239,7.3239,7.2037,7.0898,7.0898,7.0898,7.0898,7.0898,7.0898,7.1283,7.2514,7.2552,7.363,7.7015,7.8092,7.9515,8.2285,8.3785,8.5132,8.6478,8.7094,8.7401,8.7401,8.7094,8.6671,8.6132,8.6094,8.6094,8.6094,8.6094,8.6094,8.6094,8.6094,8.6094,8.6094,8.6094,8.6094,8.6094,8.6094,8.6094,8.6132,8.6671,8.7094,0.0,8.7979,8.8671,8.944,8.944,8.9748,9.0133,8.9633,8.9748,9.0133,0.0,0.0,0.0,0.0,0.0,5.4623,5.4952,5.5172,5.5256,5.5145,5.5132,5.505,5.4821,5.4708,5.488,5.5375,5.6888,0.0,0.0,0.0,0.0,0.0,0.0,0.0,0.0,0.0,6.054,6.0293,6.0293,6.041,0.0,0.0,6.2517,6.3747,0.0,0.0,0.0,0.0,0.0,0.0,0.0,0.0,0.0,0.0,0.0,0.0,0.0,0.0,0.0,0.0,0.0,6.359,6.359,6.3691,6.4189,6.6312,6.87,7.0859,7.1563,7.3673,7.561,7.5537,7.4497,7.3507,7.3507,7.2168,7.0898,7.0898,7.1091,7.1206,7.0937,7.1091,7.1475,7.2098,7.1898,7.2668,7.5592,7.6438,7.7746,8.04,8.2208,8.3862,8.5593,8.6748,8.7401,8.7401,8.7171,8.6748,8.6132,8.6094,8.6094,8.6094,8.6094,8.6094,8.6094,8.6094,8.6094,8.6094,8.6094,8.6094,8.6094,8.6094,8.6094,8.617,8.7017,8.7555,0.0,8.8709,8.9556,9.0278,9.0278,9.0663,9.1133,9.0509,9.0663,9.1133,0.0,0.0,0.0,0.0,0.0,0.0,5.4245,5.4305,5.443,5.4761,5.4806,5.4799,5.4799,5.4503,5.4438,5.4776,5.6629,0.0,0.0,0.0,0.0,0.0,0.0,0.0,0.0,0.0,6.03,6.0293,6.0293,6.0135,5.9809,6.0622,6.165,6.2815,0.0,0.0,0.0,0.0,0.0,0.0,0.0,0.0,0.0,0.0,0.0,0.0,0.0,0.0,0.0,0.0,0.0,0.0,0.0,6.3883,6.4455,6.5746,6.7261,6.9085,7.1532,7.3446,7.493,7.5777,7.4738,7.3507,7.3507,7.2168,7.0898,7.0898,7.1591,7.1905,7.1052,7.1591,7.2175,7.2213,7.2937,7.4046,7.5745,7.7445,7.883,7.97,8.1285,8.3016,8.4739,8.6401,8.7401,8.7401,8.6594,8.6094,8.6094,8.6094,8.6094,8.6094,8.6094,8.6094,8.6094,8.6094,8.6094,8.6094,8.6094,8.6094,8.6094,8.6094,8.6094,8.617,8.7017,8.7902,0.0,8.9556,9.0393,9.121,9.121,9.121,9.121,9.121,9.121,9.121,0.0,0.0,0.0,0.0,0.0,0.0,0.0,5.4495,5.4599,5.4471,5.4455,5.4364,5.4152,5.4017,5.4098,5.443,5.6085,0.0,0.0,0.0,0.0,0.0,0.0,0.0,0.0,0.0,5.982,5.9534,5.9534,5.9379,5.9063,5.9858,6.0877,6.2082,6.2786,6.3625,0.0,0.0,0.0,0.0,0.0,0.0,6.359,0.0,0.0,0.0,0.0,0.0,0.0,0.0,0.0,0.0,0.0,0.0,0.0,6.6143,6.7666,6.9281,7.0944,7.2605,7.393,7.4199,7.3437,7.2591,7.2591,7.1706,7.1052,7.1668,7.2021,7.2283,7.2629,7.2892,7.3283,7.3822,7.3661,7.4084,7.5745,7.6476,7.7553,7.9554,8.2824,8.5093,8.567,8.7286,8.8017,8.744,8.7132,8.6748,8.6132,8.6094,8.6094,8.6094,8.6094,8.6094,8.6094,8.6094,8.6094,8.6094,8.6094,8.6094,8.6094,8.6094,8.644,8.7055,8.7902,8.8748,8.9594,9.0441,9.0941,9.121,9.121,9.121,9.121,9.121,9.121,9.121,0.0,0.0,0.0,0.0,0.0,0.0,0.0,5.4279,5.4338,5.4152,5.4116,5.4026,5.3813,5.3784,5.4,5.4501,5.5808,0.0,0.0,0.0,0.0,0.0,0.0,0.0,0.0,5.945,5.9459,5.9206,5.9206,5.9035,5.8725,5.9505,6.0536,6.175,6.2398,6.327,0.0,0.0,0.0,0.0,0.0,0.0,6.359,0.0,0.0,0.0,0.0,0.0,0.0,0.0,0.0,0.0,0.0,0.0,0.0,0.0,6.7742,6.9235,7.0805,7.2352,7.3507,7.3507,7.2822,7.2213,7.2213,7.1514,7.1168,7.2021,7.2476,7.286,7.3392,7.3738,7.4123,7.4623,7.4276,7.4546,7.6245,7.6476,7.7438,7.9977,8.347,8.5786,8.6055,8.7363,8.7979,8.744,8.7094,8.6671,8.6132,8.6094,8.6094,8.6094,8.6094,8.6094,8.6094,8.6094,8.6094,8.6094,8.6094,8.6094,8.6094,8.6094,8.6594,8.744,8.8333,8.9171,0.0,9.0825,9.121,9.121,9.121,9.121,9.121,9.121,9.121,9.121,0.0,0.0,0.0,0.0,0.0,0.0,0.0,5.3784,5.3775,5.3784,5.3784,5.3784,5.3784,5.3859,5.4193,5.4936,0.0,0.0,0.0,0.0,0.0,0.0,0.0,0.0,5.9159,5.9169,5.9169,5.9169,5.9169,5.9006,5.8725,5.9505,6.0526,6.1692,6.2199,6.3062,0.0,0.0,0.0,0.0,0.0,0.0,0.0,0.0,0.0,0.0,0.0,0.0,0.0,0.0,0.0,0.0,0.0,0.0,0.0,0.0,0.0,0.0,0.0,7.241,7.3315,7.3315,7.2706,7.2098,7.2098,7.1514,0.0,7.2098,7.2976,7.3584,7.3661,7.4276,7.4776,7.4776,7.4776,7.5399,7.7061,7.7445,7.8446,8.0823,8.3362,8.517,8.5863,8.6748,8.7325,8.7325,8.6555,8.6094,8.6094,8.6094,8.6094,8.6094,8.6094,8.6094,8.6094,8.6094,8.6094,8.6094,8.6094,8.6094,8.6094,8.6094,8.6594,0.0,8.8372,8.9171,9.0047,9.0855,9.121,9.121,9.121,9.121,9.121,9.121,9.121,9.121,0.0,0.0,0.0,0.0,0.0,0.0,0.0,0.0,0.0,0.0,5.3784,5.3784,5.3784,5.4342,5.4787,0.0,0.0,0.0,0.0,0.0,0.0,0.0,0.0,0.0,5.8805,5.8805,5.8805,5.8805,5.8805,5.8791,5.8725,5.9505,6.0423,6.1348,6.2085,6.2914,0.0,0.0,0.0,0.0,0.0,0.0,0.0,0.0,0.0,0.0,6.359,6.359,0.0,0.0,0.0,0.0,0.0,0.0,0.0,0.0,6.8243,6.967,7.0762,0.0,7.1514,7.1514,7.136,7.1206,0.0,7.1552,7.2129,7.3014,7.3853,7.4623,7.5284,7.5553,7.5707,7.5707,7.5707,7.6053,7.7138,7.8977,8.0439,8.1016,8.3362,8.4709,8.4209,8.5517,8.6401,8.6401,8.6209,8.6094,8.6094,8.6094,8.6094,8.6094,8.6094,8.6094,8.6094,8.6094,8.6094,8.6094,8.6094,8.6094,8.6094,8.6094,8.694,8.841,8.8603,8.9517,9.0893,9.1133,9.121,9.121,9.121,9.121,9.121,9.121,9.121,9.121,0.0,0.0,0.0,0.0,0.0,0.0,0.0,0.0,0.0,0.0,0.0,0.0,0.0,0.0,0.0,0.0,0.0,0.0,0.0,0.0,0.0,0.0,0.0,5.8687,5.8687,5.8687,5.8687,5.8687,5.8687,5.8873,5.9282,6.0099,6.0953,6.177,6.2588,6.3182,0.0,0.0,0.0,0.0,6.359,0.0,0.0,0.0,0.0,0.0,6.359,6.359,0.0,6.359,6.359,6.3665,0.0,0.0,0.0,0.0,6.8726,6.9869,7.0698,7.0898,7.0898,7.0898,7.0898,7.0898,7.0898,7.1552,7.2437,7.3315,7.4123,7.4976,7.5822,7.6015,7.6015,7.6015,7.6322,7.7015,7.8284,7.9977,8.1246,8.1593,8.3901,8.5132,8.4286,8.5709,8.6517,8.6132,8.6094,8.6094,8.6094,8.6094,8.6094,8.6094,8.6094,8.6094,8.6094,8.6094,8.6094,8.6094,8.6094,8.6094,8.6094,8.6094,8.6824,8.8141,8.8526,8.9402,9.0624,9.1056,9.121,9.121,9.121,9.121,9.121,9.121,9.121,9.121,0.0,0.0,0.0,0.0,0.0,0.0,0.0,0.0,0.0,0.0,0.0,0.0,0.0,0.0,0.0,0.0,0.0,0.0,0.0,0.0,0.0,0.0,5.8687,5.8687,5.8687,5.8687,5.8687,5.8687,5.8836,5.9245,5.9913,6.0916,6.1819,6.2625,6.3293,6.359,0.0,0.0,0.0,0.0,6.359,0.0,0.0,0.0,0.0,0.0,0.0,0.0,0.0,6.359,6.359,6.3739,6.4556,0.0,0.0,0.0,0.0,0.0,7.0698,7.0898,7.0898,7.0898,7.0898,7.0898,7.0898,7.1668,7.2591,7.3353,7.4238,7.5123,7.5861,7.6015,7.6015,7.6015,7.6823,7.8015,7.9585,8.0554,8.1362,8.2054,8.4247,8.544,8.4786,8.6209,8.6901,8.617,8.6094,8.6094,8.6094,8.6094,8.6094,8.6094,8.6094,8.6094,8.6094,8.6094,8.6094,8.6094,8.6094,8.6094,8.6094,8.6094,8.6594,8.744,8.8333,0.0,8.997,9.0825,9.121,9.121,9.121,9.121,9.121,9.121,9.121,9.121,0.0,0.0,0.0,0.0,0.0,0.0,0.0,0.0,0.0,0.0,0.0,0.0,0.0,0.0,0.0,0.0,0.0,0.0,0.0,0.0,0.0,5.8687,5.8687,5.8687,5.8687,5.8687,5.8687,5.8687,5.9393,5.9765,5.9913,6.1473,6.2662,6.3405,6.3553,6.359,6.359,0.0,0.0,0.0,6.359,0.0,0.0,0.0,0.0,0.0,0.0,0.0,0.0,6.359,6.359,6.3739,6.4556,0.0,0.0,0.0,0.0,0.0,7.0698,7.0898,7.0898,7.0898,7.0898,7.0898,7.0898,7.2168,7.3353,7.3469,7.4738,7.5822,7.5976,7.6015,7.6015,7.6015,7.7284,7.8669,7.9662,8.0554,8.1131,8.1285,8.287,8.3947,8.3832,8.5324,8.6247,8.6094,8.6094,8.6094,8.6094,8.6094,8.6094,8.6094,8.6094,8.6094,8.6094,8.6094,8.6094,8.6094,8.6094,8.6094,8.6094,8.6094,8.6594,8.744,0.0,8.9171,8.997,9.0825,9.121,9.121,9.121,9.121,9.121,9.121,9.121,9.121,0.0,0.0,0.0,0.0,0.0,0.0,0.0,0.0,0.0,0.0,0.0,0.0,0.0,0.0,0.0,0.0,0.0,0.0,0.0,0.0,5.8687,5.8687,5.8687,5.8687,5.8687,5.8687,5.891,5.9356,5.9728,6.0359,6.1288,6.2476,6.3256,6.359,6.359,6.359,6.359,6.359,6.359,0.0,0.0,0.0,0.0,0.0,0.0,0.0,0.0,0.0,0.0,0.0,6.3888,6.4408,6.5225,0.0,0.0,0.0,0.0,0.0,7.0741,7.0898,7.0898,7.0898,7.0898,7.1014,7.1514,7.2591,7.3623,7.4046,7.513,7.6015,7.6015,7.6361,7.7015,7.79,7.8284,7.8984,8.0323,8.0439,8.0554,8.1054,8.2593,8.3601,8.3601,8.5132,8.6094,8.6094,8.6094,8.6094,8.6094,8.6094,8.6094,8.6094,8.6094,8.6094,8.6094,8.6094,8.6094,8.6094,8.6094,8.6094,8.6094,8.6094,8.6594,8.744,0.0,8.9171,8.997,9.0825,9.121,9.121,9.121,9.121,9.121,9.121,9.121,9.121,0.0,0.0,0.0,0.0,0.0,0.0,0.0,0.0,0.0,0.0,0.0,0.0,0.0,0.0,0.0,0.0,0.0,0.0,0.0,0.0,5.8687,5.8687,5.8873,5.8985,5.8985,5.8985,5.9393,6.021,6.0396,6.125,6.2699,6.3293,6.359,6.359,6.359,6.359,6.359,6.359,6.359,0.0,0.0,0.0,0.0,0.0,0.0,0.0,0.0,0.0,0.0,0.0,0.0,0.0,0.0,0.0,0.0,6.9212,6.9842,7.0263,7.0637,7.0843,7.0937,7.1168,7.1206,7.136,7.2059,7.3168,7.4238,7.4892,7.5707,7.6284,7.6284,7.6861,7.7792,7.9246,7.9092,7.9323,8.0862,8.0516,8.0362,8.1016,8.2593,8.3601,8.3601,8.5132,8.6094,8.6094,8.6094,8.6094,8.6094,8.6094,8.6094,8.6094,8.6094,8.6094,8.6094,8.6094,8.6094,8.6094,8.6094,8.6094,8.6094,8.6094,8.6594,8.744,8.8333,8.9171,8.997,9.0825,9.121,9.121,9.121,9.121,9.121,9.121,9.121,9.121,0.0,0.0,0.0,0.0,0.0,0.0,0.0,0.0,0.0,0.0,0.0,0.0,0.0,0.0,0.0,0.0,0.0,0.0,0.0,0.0,5.8687,5.8687,5.943,5.9802,5.9802,5.9802,6.0248,6.1113,6.1845,6.2662,6.3516,6.3553,6.359,6.359,6.359,6.359,6.359,6.359,6.359,6.359,0.0,0.0,0.0,0.0,0.0,0.0,0.0,0.0,0.0,0.0,0.0,0.0,0.0,0.0,6.7582,6.8778,6.9418,6.9833,7.0217,7.0608,7.1091,7.1905,7.2098,7.2136,7.2175,7.4091,7.5822,7.5899,7.6592,7.7215,7.7215,7.7253,7.7599,7.8446,7.9208,8.0015,8.0977,8.1054,8.1016,8.1093,8.2593,8.3601,8.3601,8.5132,8.6094,8.6094,8.6094,8.6094,8.6094,8.6094,8.6094,8.6094,8.6094,8.6094,8.6094,8.6094,8.6094,8.6094,8.6094,8.6094,8.6094,8.6094,8.6594,8.744,8.8333,8.9171,8.997,9.0825,9.121,9.121,9.121,9.121,9.121,9.121,9.121,9.121,0.0,0.0,0.0,0.0,0.0,0.0,0.0,0.0,0.0,0.0,0.0,0.0,0.0,0.0,0.0,0.0,0.0,0.0,0.0,5.8687,5.891,5.943,5.9728,6.0396,6.1436,6.0953,6.1102,6.1956,6.2736,6.3293,6.359,6.359,6.359,6.359,6.359,6.3557,6.3488,6.3557,6.3557,6.35,6.3568,0.0,0.0,0.0,0.0,0.0,0.0,0.0,0.0,0.0,6.4928,6.5745,6.6562,6.7566,6.8522,6.8972,6.9567,7.0099,7.028,7.0593,7.1091,7.1982,7.2591,7.3283,7.4322,7.5322,7.613,7.6707,7.7484,7.8061,7.8061,7.8477,7.8938,7.9246,8.0054,8.09,8.1747,8.14,8.1285,8.1785,8.287,8.3601,8.3601,8.5132,8.6094,8.6094,8.6094,8.6094,8.6094,8.6094,8.6094,8.6094,8.6094,8.6094,8.6094,8.6094,8.6094,8.6094,8.6094,8.6094,8.6094,8.6094,8.6863,8.8218,8.8564,8.944,9.074,9.1056,9.121,9.121,9.121,9.121,9.121,9.121,9.121,9.121,0.0,0.0,0.0,0.0,0.0,0.0,0.0,0.0,0.0,0.0,0.0,0.0,0.0,0.0,0.0,0.0,0.0,0.0,5.865,5.8947,5.9319,5.9876,6.0173,6.0953,6.2365,6.1845,6.1956,6.2773,6.333,6.359,6.359,6.359,6.359,6.359,6.359,6.3545,6.3477,6.3557,6.3522,6.3394,6.3511,6.3534,0.0,0.0,0.0,0.0,0.0,0.0,0.0,0.0,6.5559,6.6562,6.7119,6.8036,6.893,6.9047,6.9587,7.0124,7.028,7.0784,7.1514,7.2399,7.3245,7.4392,7.6322,7.6784,7.7053,7.79,7.833,7.8484,7.8484,7.8977,7.9477,7.9738,8.0516,8.1285,8.1823,8.1439,8.1285,8.1862,8.267,8.3293,8.3563,8.4901,8.5824,8.6094,8.6094,8.6094,8.6094,8.6094,8.6094,8.6094,8.6094,8.6094,8.6094,8.6094,8.6094,8.6094,8.6094,8.6094,8.6094,8.6094,8.7055,8.8718,8.8718,8.9633,9.121,9.121,9.121,9.121,9.121,9.121,9.121,9.121,9.121,9.121,0.0,0.0,0.0,0.0,0.0,0.0,0.0,0.0,0.0,0.0,0.0,0.0,0.0,0.0,0.0,0.0,0.0,0.0,5.8725,5.9467,5.9913,5.9913,6.073,6.1596,6.2402,6.2402,6.281,6.359,6.359,6.359,6.359,6.359,6.359,6.359,6.359,6.359,6.359,6.359,6.3522,6.3382,6.3382,6.3382,0.0,0.0,0.0,0.0,0.0,0.0,0.0,0.0,6.5931,6.7305,6.7317,6.7874,6.8565,6.8997,6.9378,6.9796,7.0213,7.1252,7.2399,7.3276,7.4123,7.5399,7.7907,7.8484,7.8754,7.9631,7.9131,7.8523,7.8523,7.8523,7.883,7.9662,8.0516,8.1093,8.1093,8.1093,8.1093,8.1093,8.1823,8.2631,8.3486,8.4362,8.5239,8.6017,8.6094,8.6094,8.6094,8.6094,8.6094,8.6094,8.6094,8.6094,8.6094,8.6094,8.6094,8.6094,8.6094,8.6094,8.6094,8.6094,8.7055,8.8718,8.8718,8.9633,9.121,9.121,9.121,9.121,9.121,9.121,9.121,9.121,9.121,9.121,0.0,0.0,0.0,0.0,0.0,0.0,0.0,0.0,0.0,0.0,0.0,0.0,0.0,0.0,0.0,0.0,0.0,0.0,5.9467,5.9765,6.0433,6.1622,6.1919,6.2402,6.3219,6.3256,6.3368,6.359,6.359,6.359,6.359,6.3511,6.3511,6.359,6.3511,6.3477,6.3477,6.3477,6.3454,6.3382,6.3382,6.3477,6.3522,0.0,0.0,0.0,0.0,0.0,0.0,0.0,0.0,0.0,6.8283,6.8732,6.9008,6.9388,6.9814,7.0294,7.1005,7.1705,7.2559,7.3969,7.4976,7.613,7.8061,7.8061,7.8253,8.0285,8.0977,8.0977,8.0439,8.0785,8.0862,7.9931,8.0516,8.1285,8.1862,8.1477,8.1323,8.1862,8.2131,8.2401,8.267,8.4016,8.5008,8.5239,8.5778,8.6094,8.6094,8.6094,8.6094,8.6094,8.6094,8.6094,8.6094,8.6094,8.6094,8.6094,8.6094,8.6094,8.6094,8.6094,8.7055,8.8718,8.8718,8.9633,9.121,9.121,9.121,9.121,9.121,9.121,9.121,9.121,9.121,9.121,0.0,0.0,0.0,0.0,0.0,0.0,0.0,0.0,0.0,0.0,5.4082,5.4639,0.0,0.0,0.0,0.0,0.0,0.0,0.0,6.0464,6.1259,6.2272,6.2298,6.258,6.3108,6.3442,6.3568,6.3522,6.3522,6.35,6.3442,6.3394,6.3428,6.3522,6.3454,6.3442,6.3488,6.3384,6.3301,6.3301,6.3254,6.3301,6.3431,0.0,0.0,0.0,0.0,0.0,0.0,0.0,0.0,0.0,6.8637,6.8975,6.9187,6.9577,6.9986,7.0536,7.1551,7.2262,7.3129,7.4784,7.5861,7.6861,7.8215,7.8907,7.9708,8.1246,8.1708,8.1785,8.1593,8.1439,8.1093,8.0439,8.0746,8.1285,8.1747,8.14,8.1285,8.1785,8.1823,8.1939,8.2285,8.3247,8.417,8.4854,8.5363,8.5747,8.6094,8.6094,8.6094,8.6094,8.6094,8.6094,8.6094,8.6094,8.6094,8.6094,8.6094,8.6094,8.6094,8.6094,8.6863,8.8218,8.8902,8.994,9.121,9.121,9.121,9.121,9.121,9.121,9.121,9.121,9.121,9.1171,0.0,0.0,0.0,0.0,0.0,0.0,0.0,0.0,0.0,0.0,5.4564,5.5047,0.0,0.0,0.0,0.0,0.0,0.0,0.0,0.0,6.2245,6.2308,6.2308,6.2353,6.248,6.3185,6.35,6.3347,6.3382,6.3324,6.3183,6.3312,6.337,6.337,6.337,6.3465,6.3545,6.3314,6.3231,6.3231,6.3075,6.3124,6.3342,6.3317,0.0,0.0,0.0,0.0,0.0,0.0,0.0,0.0,6.8602,6.8877,6.925,6.9797,7.0179,7.0776,7.2059,7.3014,7.4007,7.5707,7.6823,7.7753,7.8561,8.0639,8.2401,8.2324,8.1785,8.1554,8.2285,8.1093,8.0246,8.0977,8.1093,8.1093,8.1093,8.1093,8.1093,8.1093,8.1093,8.14,8.2131,8.2247,8.2978,8.4555,8.4816,8.5209,8.5931,8.6055,8.6094,8.6094,8.6094,8.6094,8.6094,8.6094,8.6094,8.6094,8.6094,8.6094,8.6094,8.6094,8.6594,8.7478,8.9162,9.0355,9.1095,9.1171,9.121,9.121,9.121,9.121,9.121,9.1133,9.1095,9.0979,0.0,0.0,0.0,0.0,0.0,0.0,0.0,0.0,0.0,0.0,0.0,0.0,0.0,0.0,0.0,0.0,0.0,0.0,0.0,0.0,6.2595,6.3134,6.3123,6.3125,6.3043,6.3191,6.3206,6.3087,6.3419,6.3442,6.3183,6.3218,6.323,6.323,6.323,6.3279,6.3265,6.3206,6.3242,6.3336,6.3194,6.3625,6.4286,6.4298,6.478,0.0,0.0,0.0,0.0,0.0,0.0,0.0,6.924,6.9488,6.9863,7.1266,7.1718,7.2129,7.3724,7.4322,7.4861,7.6592,7.8169,7.9477,8.0362,8.1985,8.3139,8.2439,8.2716,8.3139,8.3293,8.2477,8.1631,8.117,8.1093,8.1093,8.1093,8.1093,8.1093,8.1093,8.1093,8.117,8.1323,8.1939,8.2439,8.2824,8.4132,8.497,8.5162,8.5747,8.6094,8.6094,8.6094,8.6094,8.6094,8.6094,8.6094,8.6094,8.6094,8.6094,8.6094,8.6094,8.6594,8.7478,8.9162,9.0009,9.0239,9.0932,9.121,9.121,9.121,9.121,9.1133,9.0432,9.0163,9.0047,0.0,0.0,0.0,0.0,0.0,0.0,0.0,0.0,0.0,0.0,0.0,0.0,0.0,0.0,0.0,0.0,0.0,0.0,0.0,0.0,6.2822,6.3169,6.3206,6.323,6.3277,6.3218,6.3147,6.3087,6.3326,6.3254,6.3002,6.3063,6.3099,6.3099,6.3099,6.3135,6.3171,6.3051,6.3296,6.3773,6.3689,6.4181,6.5041,6.5041,6.5558,6.6384,6.6901,0.0,0.0,0.0,0.0,0.0,0.0,0.0,7.0516,7.1611,7.2323,7.3091,7.4353,7.47,7.5207,7.733,7.9169,8.0554,8.1016,8.1785,8.2362,8.2324,8.3324,8.3978,8.3139,8.2593,8.2054,8.1246,8.1093,8.1093,8.1093,8.1093,8.1093,8.1093,8.1093,8.1093,8.1093,8.1477,8.19,8.2285,8.3131,8.4016,8.4854,8.5277,8.5709,8.6094,8.6094,8.6094,8.6094,8.6094,8.6094,8.6094,8.6094,8.6094,8.6094,8.6094,8.6594,8.744,8.8325,8.894,8.9363,8.9825,9.0017,9.0017,9.0017,9.0017,8.994,8.9479,8.9325,8.921,0.0,0.0,0.0,0.0,0.0,0.0,0.0,0.0,0.0,0.0,0.0,0.0,0.0,0.0,0.0,0.0,0.0,0.0,0.0,0.0,0.0,6.3002,6.3002,6.3099,6.3277,6.3171,6.3111,6.3111,6.3111,6.3002,6.2793,6.2941,6.299,6.2966,6.299,6.3124,6.332,6.3125,6.359,6.4413,6.435,6.489,6.569,6.5778,6.637,6.7197,6.7272,6.7778,6.8408,6.8445,0.0,0.0,0.0,0.0,7.1227,7.1939,7.2886,7.3892,7.47,7.513,7.5861,7.7984,7.9831,8.1093,8.1093,8.1208,8.1477,8.1977,8.3247,8.3862,8.2554,8.217,8.1862,8.1208,8.1093,8.1093,8.1093,8.1093,8.1093,8.1093,8.1093,8.1093,8.1093,8.1093,8.1362,8.2054,8.2208,8.2939,8.4362,8.4739,8.5201,8.5863,8.6017,8.6094,8.6094,8.6094,8.6094,8.6094,8.6094,8.6094,8.6094,8.6094,8.6478,8.7171,8.7325,8.7825,8.8487,8.8641,8.8718,8.8718,8.8718,8.8718,8.8679,8.8526,8.8487,8.8372,0.0,0.0,0.0,0.0,0.0,0.0,0.0,0.0,0.0,0.0,5.7852,5.8591,0.0,0.0,0.0,0.0,0.0,0.0,6.2879,0.0,0.0,6.3002,6.3002,6.2966,6.288,6.2855,6.2842,6.2842,6.2842,6.283,6.2793,6.2941,6.2941,6.283,6.2953,6.3358,6.3969,6.3995,6.4524,6.5322,6.5333,6.5825,6.6563,6.679,6.7207,6.7687,6.8023,6.806,6.803,6.8246,6.8552,0.0,0.0,0.0,7.1879,7.3745,7.4401,7.4738,7.5592,7.6899,7.8061,7.8407,7.9831,8.1093,8.1093,8.1631,8.1977,8.1362,8.1439,8.1747,8.2208,8.1747,8.1246,8.1131,8.1093,8.1093,8.1093,8.1093,8.1093,8.1093,8.1093,8.1093,8.1093,8.1093,8.1131,8.1246,8.19,8.2401,8.2631,8.4093,8.4931,8.5047,8.5747,8.6094,8.6094,8.6094,8.6094,8.6094,8.6094,8.6094,8.6094,8.6094,8.617,8.6324,8.7055,8.7478,8.7632,8.841,8.8718,8.8718,8.8718,8.8718,8.8603,8.7863,8.7555,8.744,0.0,0.0,0.0,0.0,0.0,0.0,0.0,0.0,0.0,0.0,0.0,5.995,0.0,0.0,0.0,6.2425,6.2535,6.2658,6.2855,6.2966,6.2966,6.2892,6.288,6.2892,6.2917,6.283,6.283,6.2917,6.283,6.2793,6.2793,6.3345,6.3565,6.3539,6.3602,6.4043,6.4751,6.4802,6.5305,6.6053,6.6053,6.6531,6.7256,6.741,6.7568,6.7847,6.8017,6.8107,6.8196,6.8528,6.9128,6.9928,7.0981,0.0,0.0,0.0,7.4353,7.4776,7.5168,7.6169,7.733,7.8253,7.9438,8.0516,8.0977,8.1362,8.1516,8.117,8.1093,8.1208,8.1554,8.1708,8.1631,8.117,8.1093,8.1093,8.1093,8.1093,8.1093,8.1093,8.1093,8.1093,8.1093,8.1093,8.1093,8.1093,8.1439,8.1823,8.2285,8.3478,8.417,8.417,8.544,8.5901,8.5431,8.5863,8.6094,8.6094,8.6094,8.6094,8.6094,8.6094,8.6094,8.6132,8.6517,8.6671,8.6709,8.7094,8.7248,8.7248,8.7248,8.7248,8.7209,8.6824,8.6671,8.6632,0.0,0.0,0.0,0.0,0.0,0.0,0.0,0.0,0.0,0.0,0.0,0.0,0.0,0.0,0.0,0.0,6.2953,6.2904,6.2805,6.2892,6.2904,6.2793,6.2793,6.2842,6.2953,6.2842,6.2842,6.2953,6.3063,6.3123,6.316,6.4016,6.4494,6.4677,6.4494,6.4861,6.5582,6.5582,6.6072,6.6819,6.6927,6.7323,6.7902,6.8033,6.8147,6.821,6.8235,6.837,0.0,6.8915,6.9745,7.0783,7.167,7.3016,0.0,0.0,0.0,7.4392,7.4392,7.5168,7.6284,7.7561,7.8669,7.9708,8.0554,8.0785,8.0823,8.1054,8.1093,8.1093,8.1093,8.1593,8.1785,8.1208,8.1093,8.1093,8.1093,8.1093,8.1093,8.1093,8.1093,8.1093,8.1093,8.1093,8.1093,8.1093,8.1093,8.1362,8.1939,8.2824,8.3255,8.3255,8.4901,8.5401,8.4593,8.517,8.5593,8.5786,8.5555,8.5709,8.6094,8.5901,8.5901,8.6094,8.6094,8.6094,8.6094,8.6094,8.6094,8.6094,8.6094,8.6094,8.6094,8.6094,8.6094,8.6094,0.0,0.0,0.0,0.0,0.0,0.0,0.0,0.0,0.0,0.0,0.0,0.0,6.1618,6.2414,6.2917,6.2818,6.2805,6.2805,6.2793,6.2805,6.2805,6.2793,6.2793,0.0,6.2805,6.2793,6.2793,6.2805,6.3613,6.4029,6.4066,6.4861,6.5632,6.6329,6.5582,6.5668,6.6439,6.6439,6.688,6.7667,6.8123,6.8321,6.843,6.9019,6.9123,6.9047,6.9193,0.0,0.0,0.0,0.0,0.0,7.2533,7.3675,7.4647,0.0,0.0,0.0,7.3546,7.4745,7.6015,7.6092,7.7361,7.8792,7.9669,7.9854,8.0085,8.0939,8.1093,8.1093,8.1093,8.1131,8.1131,8.1093,8.1093,8.1093,8.1093,8.1093,8.1093,8.1093,8.1093,8.1093,8.1093,8.1093,8.1093,8.1093,8.1093,8.1131,8.117,8.1939,8.2362,8.2362,8.4055,8.4555,8.3678,8.3717,8.4132,8.4931,8.4132,8.4555,8.6055,8.5316,8.5393,8.6094,8.6094,8.6094,8.6094,8.6094,8.6094,8.6094,8.6094,8.6094,8.6094,8.6094,8.6094,8.6094,0.0,0.0,0.0,0.0,0.0,0.0,0.0,0.0,0.0,0.0,0.0,0.0,0.0,6.2708,6.2842,6.2793,6.2793,6.2793,6.2793,6.2793,6.2793,6.2793,6.2793,6.2793,6.2793,6.2793,6.305,6.3613,6.3956,6.4347,6.4897,6.5705,6.6219,6.6476,6.6219,6.6512,6.726,6.726,6.7444,6.7754,6.8222,6.8406,6.8467,6.8959,6.9134,0.0,0.0,0.0,0.0,0.0,0.0,0.0,0.0,0.0,7.3719,7.3231,7.2514,7.2084,7.3199,7.393,7.4776,7.6438,7.7292,7.7946,7.8784,7.94,7.9892,8.0208,8.0708,8.1093,8.1093,8.1093,8.1093,8.1093,8.1093,8.1093,8.1093,8.1093,8.1093,8.1093,8.1093,8.1093,8.1093,8.1093,8.1093,8.1093,8.1093,8.1093,8.1093,8.1862,8.2054,8.1554,8.317,8.3909,8.3601,8.3601,8.3755,8.4055,8.3755,8.3909,8.4478,8.4786,8.5047,8.5354,8.5901,8.6094,8.6094,8.6094,8.6094,8.6094,8.6094,8.6094,8.6094,8.6094,8.6094,8.6094,0.0,0.0,0.0,0.0,0.0,0.0,0.0,0.0,0.0,6.2168,0.0,0.0,0.0,0.0,6.2793,6.2793,6.2793,6.2793,6.2793,6.2793,6.2793,6.2793,6.2793,6.2939,6.3246,6.2939,6.3343,6.4494,6.4494,6.4897,6.5742,6.6512,6.688,6.688,6.688,6.7187,6.77,6.77,6.77,6.7767,6.8382,6.8619,6.8688,6.9313,6.9725,0.0,0.0,0.0,0.0,0.0,0.0,0.0,0.0,0.0,0.0,7.2692,7.2014,7.1668,7.3122,7.3699,7.4315,7.6015,7.663,7.7092,7.7907,7.8554,7.9054,7.9323,8.0054,8.0669,8.0669,8.09,8.1093,8.1093,8.1093,8.1093,8.1093,8.1093,8.1093,8.1093,8.1093,8.1093,8.1093,8.1093,8.1093,8.1093,8.1093,8.1093,8.1093,8.1593,8.1785,8.1516,8.2324,8.2909,8.3178,8.2909,8.2909,8.3178,8.2909,8.3062,8.3601,8.3901,8.4362,8.4931,8.5478,8.5863,8.6094,8.6094,8.6094,8.6094,8.6094,8.6094,8.6094,8.6094,8.6094,8.6094,0.0,0.0,0.0,0.0,0.0,0.0,0.0,0.0,6.2842,6.299,0.0,0.0,0.0,0.0,0.0,6.2793,6.2793,6.2793,6.2793,6.2793,6.2793,6.2829,6.2829,6.3246,6.4139,6.3319,6.3673,6.5325,6.5325,6.5742,6.6549,6.7333,6.77,6.77,6.77,6.77,6.77,6.77,6.77,6.7757,6.87,6.908,6.9198,7.0044,0.0,0.0,7.1688,7.2311,0.0,7.3103,0.0,0.0,0.0,0.0,0.0,0.0,0.0,7.2444,0.0,0.0,0.0,7.4738,7.5361,7.6207,7.7061,7.7253,7.7484,7.8292,7.9169,7.9777,7.9815,8.0477,8.1054,8.1093,8.1093,8.1093,8.1093,8.1093,8.1093,8.1093,8.1093,8.1093,8.1093,8.1093,8.1093,8.1093,8.1093,8.1093,8.1093,8.1093,8.1477,8.2247,8.1516,8.1477,8.2247,8.1477,8.1477,8.2247,8.1477,8.1939,8.3486,8.267,8.3208,8.4816,8.4893,8.5363,8.6055,8.6094,8.6094,8.6094,8.6094,8.6094,8.6094,8.6094,8.6094,8.6094,0.0,0.0,0.0,0.0,0.0,0.0,6.2791,6.2879,6.2966,0.0,0.0,0.0,6.2929,6.2855,6.2793,6.2793,6.2793,6.2793,6.2793,6.2793,6.3086,6.3723,6.3723,6.4127,6.4971,6.4738,6.5105,6.6182,6.6182,6.6586,6.737,6.759,6.77,6.77,6.77,6.77,6.77,6.77,6.77,6.7767,6.8346,6.8791,6.9155,6.9749,0.0,0.0,0.0,7.227,7.3021,0.0,7.3037,7.3087,0.0,0.0,0.0,0.0,0.0,0.0,7.4123,0.0,0.0,0.0,0.0,0.0,7.6169,7.6361,7.6592,7.7445,7.8292,7.9054,7.9669,8.0008,8.0362,8.1016,8.1093,8.1093,8.1093,8.1093,8.1093,8.1093,8.1093,8.1093,8.1093,8.1093,8.1093,8.1093,8.1093,8.1093,8.1093,8.1093,8.1208,8.14,8.1208,8.1208,8.1439,8.1208,8.1208,8.1439,8.1208,8.1323,8.1785,8.2131,8.2554,8.3093,8.4362,8.5008,8.5286,8.5863,8.6094,8.6094,8.6094,8.6094,8.6094,8.6094,8.6094,8.6094,0.0,0.0,0.0,0.0,0.0,6.3087,6.3099,6.3002,6.2941,0.0,0.0,0.0,6.2904,6.2842,6.2793,6.2793,6.2793,6.2793,6.2793,6.2793,6.3196,6.4066,6.4103,6.464,6.5778,6.5472,6.5852,6.699,6.6659,6.6916,6.77,6.77,6.7784,6.8006,6.8125,6.8407,6.8791,6.8588,6.8207,6.7767,6.843,6.9072,6.9654,7.0346,7.1501,0.0,0.0,0.0,7.4057,7.4057,7.3807,0.0,0.0,0.0,0.0,0.0,0.0,0.0,0.0,7.5245,7.5361,7.5861,0.0,0.0,7.5361,7.5207,7.5091,7.5592,7.663,7.7592,7.813,7.9085,7.9969,8.0477,8.0862,8.1093,8.1093,8.1093,8.1093,8.1093,8.1093,8.1093,8.1093,8.1093,8.1093,8.1093,8.1093,8.1093,8.1093,8.1093,8.1093,8.1093,8.1093,8.1093,8.1093,8.1093,8.1093,8.1093,8.1093,8.1093,8.1131,8.1593,8.1977,8.2362,8.3362,8.4016,8.4439,8.5247,8.5786,8.6094,8.6094,8.6094,8.6094,8.6094,8.6094,8.6094,0.0,0.0,6.3289,6.3063,6.3099,6.3123,6.3026,6.2904,6.2855,0.0,6.2867,6.2793,6.2793,6.2793,6.2793,6.2793,6.2793,6.2793,6.2793,6.2793,6.3233,6.4213,6.4237,6.4984,6.6586,6.5925,6.6256,6.77,6.699,6.7026,6.7847,6.7878,6.8179,6.8679,6.9028,6.9607,7.0281,6.9973,6.9062,6.7941,6.8869,6.9735,7.0627,0.0,7.2792,7.4193,7.4193,7.4775,7.5509,7.5509,7.5017,0.0,0.0,0.0,0.0,0.0,7.4839,0.0,0.0,0.0,0.0,0.0,7.5361,0.0,7.4815,7.4199,7.3661,7.3776,7.4976,7.6015,7.613,7.8015,7.9585,7.9777,8.0439,8.0977,8.1093,8.1093,8.1093,8.1093,8.1093,8.1093,8.1093,8.1093,8.1093,8.1093,8.1093,8.1093,8.1093,8.1093,8.1093,8.1093,8.1093,8.1093,8.1093,8.1093,8.1131,8.1246,8.1131,8.1131,8.1246,8.1131,8.1477,8.217,8.2247,8.2747,8.3524,8.4401,8.5247,8.5978,8.6055,8.6094,8.6094,8.6094,8.6094,8.6094,0.0,0.0,6.3206,6.3159,6.3087,6.3039,6.3014,6.2978,6.2929,6.2842,6.2805,6.2793,6.2793,6.2793,6.2793,6.2793,6.2793,6.2793,6.2793,6.2793,6.349,6.4995,6.5081,6.5815,6.7444,6.7297,6.7407,6.77,6.7554,6.7871,6.8692,6.9058,6.962,7.0363,7.0852,7.0796,7.0341,7.0939,7.0275,6.8911,6.9738,7.0803,7.1935,7.2101,7.3029,7.4193,7.4193,7.4775,7.5509,7.5509,7.5403,7.5238,0.0,0.0,0.0,7.5433,0.0,0.0,0.0,0.0,0.0,0.0,0.0,0.0,7.5592,7.5084,7.4661,7.5361,7.5784,7.6207,7.6907,7.7438,7.8246,7.9585,7.9931,8.0285,8.1016,8.1093,8.1093,8.1093,8.1093,8.1093,8.1093,8.1093,8.1093,8.1093,8.1093,8.1093,8.1093,8.1093,8.1093,8.1093,8.1093,8.1093,8.1093,8.1093,8.1439,8.2054,8.14,8.1439,8.2054,8.14,8.1208,8.1362,8.2016,8.2401,8.2631,8.3478,8.4362,8.5201,8.5863,8.6094,8.6094,8.6094,8.6094,8.6094,6.3349,6.3289,6.3265,6.3194,6.3087,6.3002,6.3002,6.2941,6.288,6.2805,6.2793,6.3123,6.3967,6.3686,6.3613,6.4004,6.404,6.3894,6.3466,6.3466,6.4016,6.5251,6.5288,6.6035,6.7664,6.8104,6.8311,6.8311,6.8692,6.9082,6.9486,6.9761,7.03,7.1174,7.1597,7.1737,7.1673,7.1831,7.1796,7.1625,7.1388,7.1703,7.2366,7.3022,7.3891,7.4851,7.4851,7.5127,7.5509,7.5509,7.5509,0.0,0.0,7.5658,7.5692,0.0,7.5818,7.594,0.0,0.0,0.0,7.6007,0.0,0.0,0.0,7.47,7.4238,7.4661,7.5053,7.5476,7.5938,7.6707,7.7592,7.84,7.89,7.9477,8.0323,8.0439,8.0439,8.0439,8.0054,7.9785,7.9785,7.9785,7.9785,7.9785,8.0208,8.0439,8.0439,8.0054,8.0015,8.0439,8.0015,8.0015,8.0439,8.0439,8.0862,8.1708,8.1285,8.1323,8.1708,8.1285,8.1093,8.1131,8.1516,8.1708,8.1785,8.2601,8.3478,8.4324,8.517,8.5747,8.6094,8.6094,8.6094,8.6094,6.3217,6.3331,6.3347,6.3279,6.3099,6.3014,6.3039,6.2904,6.2866,6.3013,6.3075,6.3625,6.5141,6.4714,6.4604,6.5251,6.5141,6.4861,6.4347,6.4213,6.4457,6.5251,6.5582,6.6366,6.7664,6.8641,6.9119,6.9119,6.9779,7.0183,7.033,7.0271,7.0757,7.1734,7.2107,7.2537,7.2962,7.2718,7.303,7.3641,7.2774,7.2614,7.3032,7.4059,7.4889,7.5509,7.5509,7.5509,7.5509,7.5509,7.5509,7.5527,7.5549,7.5633,0.0,0.0,0.0,0.0,0.0,0.0,0.0,0.0,0.0,7.493,0.0,0.0,0.0,7.3969,7.4507,7.493,7.493,7.6092,7.6984,7.6823,7.7638,7.8446,7.8977,7.92,7.9515,7.9969,7.9131,7.8561,7.8715,7.8754,7.8677,7.8523,7.9323,7.9746,7.9554,7.9054,7.9015,7.9515,7.9015,7.9015,7.9554,7.97,8.0246,8.1093,8.1093,8.117,8.1323,8.117,8.1093,8.1093,8.1093,8.1093,8.1131,8.1785,8.2554,8.3447,8.4478,8.5401,8.6094,8.6094,8.6094,8.6094,6.2391,6.2969,6.3382,6.337,6.3171,6.3039,6.3147,6.2953,6.3086,6.3833,6.3995,6.4351,6.5191,6.5215,6.5178,6.5288,0.0,0.0,6.5105,0.0,6.4457,6.5251,6.6659,6.7517,6.77,6.9206,6.9963,6.9963,7.0073,7.0477,7.1174,7.0872,7.1379,7.2597,7.309,7.3193,7.3055,7.3691,7.3204,7.2024,7.2669,7.3806,7.5151,7.5301,7.5395,7.5509,7.5509,7.5509,7.5509,0.0,7.5509,7.5509,0.0,7.5549,7.5608,7.5608,0.0,0.0,0.0,0.0,0.0,0.0,7.5879,0.0,0.0,0.0,7.5707,7.5707,0.0,7.5861,7.5861,0.0,0.0,7.513,7.6361,7.7215,7.6515,7.7092,7.84,8.0669,7.9485,7.8792,7.9592,7.9662,7.9323,7.8561,7.9323,7.9477,7.8677,7.9285,7.9323,7.8677,7.9285,7.9323,7.8638,7.94,8.0246,8.1093,8.1093,8.1477,8.2131,8.1439,8.1093,8.1093,8.1093,8.1093,8.1093,8.1208,8.1708,8.2593,8.4247,8.5401,8.6094,8.6094,8.6094,8.6094,6.1622,6.2238,6.2886,6.3437,6.3684,6.4045,6.4657,6.4598,6.4598,6.4878,6.4979,6.5458,6.6576,6.6371,0.0,0.0,0.0,6.6432,0.0,0.0,6.5939,6.6012,6.6623,6.743,6.8385,6.9522,7.033,7.0807,7.0807,7.1211,7.1982,7.117,7.149,7.271,7.325,7.3307,7.3055,7.3858,7.3514,7.2529,7.3361,7.4125,7.4736,7.4736,7.5051,7.5509,7.5509,7.5509,7.5518,0.0,7.5514,0.0,0.0,0.0,0.0,0.0,0.0,0.0,0.0,0.0,0.0,0.0,0.0,0.0,7.594,0.0,7.5849,0.0,0.0,0.0,0.0,0.0,0.0,0.0,7.6053,7.6592,7.6746,7.663,7.7284,7.9361,7.8523,7.7946,7.8323,7.8784,7.8477,7.713,7.8284,7.8669,7.7869,7.7669,7.7669,7.7792,7.7669,7.7669,7.7792,7.8638,7.9477,8.0362,8.0862,8.1285,8.1593,8.1246,8.1093,8.1093,8.1093,8.1093,8.1093,8.1093,8.1554,8.2362,8.3093,8.4209,8.5401,8.5401,8.5709,8.6094,6.1187,6.1938,6.2869,6.3765,6.4234,6.4596,6.5112,6.531,6.5496,6.5545,6.5829,6.648,6.7634,6.7583,0.0,0.0,6.8346,6.8173,0.0,0.0,6.6963,0.0,0.0,0.0,0.0,7.0083,7.0844,7.0977,7.1197,7.16,7.2129,7.1009,7.1292,7.2721,7.3023,7.3231,7.3361,7.3964,7.3858,7.3361,7.3705,7.401,7.4231,7.4469,7.4966,7.5509,7.5509,7.5509,7.5518,7.554,7.5523,0.0,7.5566,0.0,0.0,0.0,0.0,0.0,7.5692,0.0,0.0,0.0,0.0,0.0,0.0,0.0,0.0,0.0,0.0,0.0,0.0,0.0,0.0,0.0,0.0,7.6053,7.6245,7.5899,7.6361,7.8253,7.7984,7.7638,7.7638,7.8369,7.8169,7.6476,7.7676,7.8061,7.6984,7.6553,7.6553,7.6945,7.6553,7.6553,7.6945,7.7753,7.8592,7.9438,8.0323,8.0862,8.1093,8.1093,8.1093,8.1093,8.1093,8.1093,8.1093,8.1093,8.1439,8.1977,8.1977,8.2862,8.4209,8.4478,8.4901,8.5401,6.1187,6.2476,6.3813,6.4631,6.4686,6.4298,6.3428,6.4172,6.5057,6.5632,6.6383,6.7145,6.7815,0.0,0.0,0.0,0.0,6.8917,7.0087,0.0,6.6938,0.0,0.0,6.9486,0.0,7.1047,7.1688,7.0146,7.0903,7.1307,7.1321,7.0158,7.0732,7.2707,7.2439,7.3022,7.4155,7.4193,7.4193,7.4087,7.3323,7.3514,7.4278,0.0,7.5471,7.5509,7.5509,0.0,0.0,7.5509,7.5509,0.0,0.0,0.0,0.0,0.0,0.0,0.0,0.0,0.0,0.0,7.5633,0.0,0.0,0.0,0.0,7.5692,0.0,0.0,0.0,0.0,0.0,0.0,0.0,0.0,0.0,0.0,7.4276,7.5668,7.8215,7.8484,7.8446,7.8446,7.9246,7.9054,7.7369,7.8023,7.7792,7.613,7.6823,7.6861,7.6053,7.6823,7.6868,7.6053,7.6899,7.7753,7.8561,7.9438,8.0285,8.1093,8.1093,8.1093,8.1093,8.1093,8.1093,8.1093,8.1093,8.1131,8.1131,8.1131,8.1631,8.2477,8.3332,8.3678,8.3678,6.2588,6.3219,6.3702,6.3962,6.4905,6.5489,6.5182,6.6329,6.7376,6.7772,6.8611,6.9539,0.0,7.0893,7.1142,0.0,0.0,7.0942,7.0523,7.0144,0.0,0.0,0.0,7.031,0.0,7.0853,7.0917,7.0866,7.0096,7.0243,7.1284,7.0121,7.0549,7.2248,7.2849,7.3334,7.3783,7.4669,7.4736,7.4193,7.3887,7.4622,7.5844,0.0,7.5509,7.5509,7.5509,7.5509,0.0,7.554,7.5553,7.5527,7.5566,7.5599,7.5608,7.5666,7.5747,0.0,0.0,0.0,7.5879,7.5825,0.0,0.0,0.0,0.0,0.0,0.0,0.0,0.0,0.0,0.0,0.0,0.0,0.0,0.0,0.0,7.4735,7.5088,7.647,7.7262,7.8138,7.9246,7.9092,7.8477,7.7369,7.7561,7.7215,7.6053,7.6823,7.6899,7.6015,7.6861,7.6861,7.6015,7.6868,7.7445,7.7715,7.9131,7.9931,8.0246,8.0823,8.1093,8.1093,8.1093,8.1093,8.1093,8.1093,8.1093,8.1093,8.1093,8.1285,8.1593,8.2439,8.3101,8.3601,6.3813,6.4296,6.4371,6.4073,6.4928,6.5745,6.6042,6.7594,6.8772,6.8966,7.0148,7.1314,7.218,0.0,7.3161,0.0,7.3659,7.3374,7.218,7.2184,0.0,7.1059,7.1065,0.0,0.0,0.0,7.1051,7.0692,7.0046,7.0279,7.1284,7.0585,7.0993,7.2298,7.3319,7.3735,7.383,7.4983,7.5165,7.466,7.466,7.5462,0.0,0.0,7.6121,7.6388,0.0,7.6388,7.6397,7.645,7.6432,7.6397,7.6493,7.628,7.6144,7.6479,7.6453,7.6386,7.6701,7.6586,0.0,7.6294,7.5977,0.0,7.5991,0.0,0.0,0.0,0.0,0.0,0.0,0.0,0.0,0.0,0.0,0.0,0.0,7.4619,7.4696,7.5194,7.6433,7.7785,7.9161,7.9385,7.883,7.7407,7.7561,7.7215,7.6053,7.6823,7.6899,7.6015,7.6861,7.6861,7.6015,7.6553,7.6984,7.733,7.84,7.9208,7.9815,8.04,8.0823,8.1093,8.1093,8.1093,8.1093,8.1093,8.1093,8.1093,8.1093,8.1093,8.117,8.167,8.2208,8.2716,6.4816,6.5485,6.5856,6.5076,6.4928,6.5188,6.6042,6.789,6.9193,6.9289,7.0997,7.2533,7.3434,7.4572,7.5569,7.6341,7.6417,7.5989,7.5018,7.3879,0.0,0.0,7.2751,7.2428,7.1228,0.0,0.0,0.0,7.082,7.1318,7.1383,7.1489,7.1971,7.2733,7.3783,7.4205,7.4205,7.5119,7.5509,7.5548,7.5548,7.6083,7.6838,7.6847,7.7382,7.8099,7.8022,7.8022,7.8022,7.8022,7.8022,7.7993,7.8091,7.7581,7.7156,7.8089,7.7799,7.7354,7.8161,7.7785,7.7108,7.7075,7.6372,0.0,0.0,0.0,7.5842,0.0,0.0,0.0,0.0,0.0,0.0,0.0,0.0,0.0,0.0,0.0,7.4411,7.4411,7.5925,7.7362,7.8322,7.993,7.99,7.7484,7.7984,7.7676,7.6092,7.6823,7.6907,7.6092,7.6868,7.6899,7.6053,7.6015,7.6399,7.7253,7.7292,7.8169,7.9738,7.9777,8.0285,8.1093,8.1093,8.1093,8.1093,8.1093,8.1093,8.1093,8.1093,8.1093,8.1093,8.1093,8.1093,8.1093,6.4928,6.5485,6.6228,6.6599,6.6673,6.6748,6.6971,6.8739,7.0627,7.2167,7.3621,7.518,7.6909,7.7426,7.7705,7.787,7.7927,0.0,0.0,0.0,0.0,7.4046,7.3979,7.3962,7.3982,7.3355,0.0,7.2061,0.0,7.1821,7.2407,7.2442,7.2545,7.2759,7.4017,7.4257,7.3773,7.4965,7.5853,7.6379,7.6379,7.7305,7.8652,0.0,7.9201,7.9766,7.847,7.8022,7.8022,7.8022,7.8022,7.7984,7.8011,7.7912,7.7828,7.8101,7.8133,7.8115,7.8345,7.7854,7.7393,7.793,7.7384,7.6776,0.0,0.0,0.0,0.0,0.0,0.0,0.0,0.0,0.0,0.0,0.0,0.0,0.0,0.0,0.0,7.3398,7.4456,7.6032,7.8199,7.8223,7.7908,7.7323,7.6899,7.6438,7.6015,7.6823,7.7215,7.6984,7.7176,7.7176,7.6984,7.6322,7.6092,7.6322,7.6984,7.783,7.8869,7.9515,8.0285,8.1093,8.1093,8.1093,8.1093,8.1093,8.1093,8.1093,8.1093,8.1093,8.1093,8.1093,8.1093,8.1093,6.6005,6.6562,6.7305,6.7751,6.8287,6.8674,6.8674,6.9934,7.1599,7.3498,7.5021,0.0,7.8269,7.9146,7.9769,8.0068,8.0492,0.0,7.7955,0.0,0.0,7.5927,7.532,7.5094,7.5313,7.3962,0.0,7.3223,0.0,7.2593,7.3319,7.3199,7.3123,7.307,7.4065,7.421,7.3878,7.503,7.5968,7.6685,7.6685,7.7744,0.0,7.938,7.996,8.0552,7.958,7.9218,7.9218,7.9218,7.9218,7.9209,7.9165,7.8924,7.8738,7.9083,7.9037,7.8938,7.9355,7.8867,7.8369,7.8852,7.8291,7.7606,7.759,7.7289,7.6848,0.0,7.5859,7.5574,0.0,0.0,0.0,0.0,0.0,0.0,0.0,0.0,0.0,0.0,7.3797,7.5121,7.7004,7.7193,7.6893,7.6207,7.6399,7.6245,7.5476,7.6938,7.7484,7.6746,7.7445,7.7484,7.6746,7.663,7.6361,7.6015,7.6861,7.7715,7.8523,7.94,8.0285,8.1093,8.1093,8.1093,8.1093,8.1093,8.1093,8.1093,8.1093,8.1093,8.1093,8.1093,8.1093,8.1093,6.7453,6.8071,6.8602,6.8714,6.9716,7.0605,7.1008,7.1648,7.2649,7.4226,7.6067,7.7658,7.8877,8.0439,8.1708,8.2401,0.0,8.2685,8.0457,8.0093,7.9287,7.7693,7.6632,7.6025,7.5924,7.4528,7.3847,0.0,0.0,7.3479,7.4048,7.3949,7.3716,7.3467,7.4099,7.4363,7.4439,7.5183,7.6071,7.6912,7.6912,7.7959,7.9569,7.9586,8.0098,8.0809,8.0826,8.0809,8.0792,8.0792,8.0792,8.0784,8.0658,8.0143,7.9722,8.0402,8.0152,7.9757,8.0583,8.0187,7.9599,7.9788,7.918,7.8495,7.8567,7.7969,7.7392,7.7152,7.644,7.5844,0.0,0.0,0.0,0.0,0.0,0.0,0.0,0.0,0.0,0.0,0.0,0.0,7.5515,7.6501,7.6393,7.4786,7.6185,7.6423,7.4762,7.6899,7.7561,7.6207,7.7476,7.7599,7.6322,7.6868,7.6868,7.6322,7.6984,7.7792,7.8715,7.9438,8.0285,8.1093,8.1093,8.1093,8.1093,8.1093,8.1093,8.1093,8.1093,8.1093,8.1093,8.1093,8.1093,8.1093,6.8308,6.8651,6.9206,6.9941,7.0516,7.1721,7.4159,7.4624,7.5089,7.61,7.8623,8.0645,8.1554,8.2562,8.3216,8.337,8.3524,0.0,0.0,0.0,0.0,7.8399,7.7501,7.7031,7.7016,7.5319,7.478,0.0,0.0,0.0,7.4323,7.5013,7.4537,7.3152,7.4673,7.5345,7.5345,7.5536,7.6544,7.8028,7.8028,7.9033,8.0545,8.0621,8.074,8.091,8.1021,8.0957,8.0792,8.0792,8.0792,8.0792,8.0775,8.0652,8.0575,8.0728,8.0711,8.0677,8.0771,8.0229,7.9827,8.0534,8.0065,7.9467,7.9546,7.9407,7.9044,7.8283,7.7371,7.6697,7.668,0.0,0.0,0.0,0.0,0.0,0.0,0.0,0.0,0.0,0.0,7.3907,7.5446,7.5794,7.5507,7.462,7.5526,7.5687,7.4688,7.5755,7.663,7.7061,7.6669,7.6938,0.0,0.0,7.6861,7.8061,7.7561,7.8092,7.9592,7.9746,8.0285,8.1093,8.1093,8.1093,8.1093,8.1093,8.1093,8.1093,8.1093,8.1093,8.1093,8.1093,8.1093,8.1093,6.9404,6.9832,7.0335,7.1186,7.2414,7.392,7.5786,7.7382,7.8333,7.8295,8.0119,8.1644,8.2231,8.3478,8.4286,8.4286,8.4286,8.3747,8.2485,8.1593,8.0746,7.99,7.86,7.7907,7.7907,7.5786,7.5049,7.5887,0.0,0.0,7.5061,7.5111,7.4657,7.3809,7.4654,7.4982,7.494,7.5458,7.6419,7.7686,7.8108,7.933,8.0868,8.091,8.0951,8.0999,8.1077,8.1037,8.0973,8.0973,8.0973,8.0926,8.0877,8.086,8.0852,8.0809,8.0826,8.0852,8.0801,8.0477,8.0294,8.0728,8.0553,8.0186,7.9814,7.9761,7.9484,7.8599,7.8028,7.7517,7.7003,7.6144,0.0,0.0,0.0,0.0,0.0,0.0,0.0,0.0,0.0,0.0,0.0,7.5298,7.5113,7.3945,7.472,7.4873,7.4072,7.5262,7.6207,0.0,0.0,0.0,7.7215,0.0,7.7092,7.7869,7.7907,7.8592,7.9815,8.0285,8.0708,8.1093,8.1093,8.1093,8.1093,8.1093,8.1093,8.1093,8.1093,8.1093,8.1093,8.1093,8.1093,8.1093,7.06,7.1138,7.1721,7.2728,7.4496,7.6229,7.7454,7.9903,8.1323,8.0439,8.1525,8.25,8.2838,8.4247,8.5162,8.5162,8.5162,8.4709,8.3678,8.2362,8.1477,8.1131,7.9592,7.8792,7.8792,7.6284,7.5286,0.0,0.0,0.0,0.0,7.472,7.4474,7.4235,7.4403,7.4456,0.0,0.0,7.6346,7.7398,7.805,7.9396,8.0951,8.0951,8.0999,8.1093,8.1093,8.1093,8.1093,8.1093,8.1093,8.1085,8.0975,8.0951,8.0943,8.0868,8.0852,8.0852,8.0826,8.0728,8.0693,8.0801,8.0818,8.069,8.0128,8.0038,7.9877,7.913,7.883,7.8343,7.7326,7.639,0.0,0.0,0.0,0.0,0.0,0.0,0.0,0.0,0.0,0.0,7.4125,7.5026,7.4982,7.3638,7.4167,7.4328,7.3748,7.5154,0.0,0.0,0.0,7.7061,7.6553,0.0,7.7284,7.7823,7.8292,7.9054,8.0085,8.0785,8.1093,8.1093,8.1093,8.1093,8.1093,8.1093,8.1093,8.1093,8.1093,8.1093,8.1093,8.1093,8.1093,8.1093,7.189,7.2392,7.3221,7.4804,7.6237,7.7939,8.0323,8.2192,8.3062,8.217,8.3569,8.4599,8.4662,8.544,8.5978,8.5978,8.5978,8.5324,8.3717,8.3447,8.2678,8.117,8.0208,7.9669,7.9669,7.7169,7.593,0.0,0.0,7.3856,0.0,0.0,0.0,0.0,0.0,0.0,0.0,7.5495,7.6847,7.8385,7.8462,7.9538,8.1077,8.1077,8.1085,8.1093,8.1093,8.1093,8.1093,8.1093,8.1093,8.1093,8.1085,8.1077,8.1077,8.1069,8.1069,8.1053,8.0934,8.0871,8.0863,8.0871,8.0871,8.0896,8.0946,8.0969,8.0939,8.0854,8.0184,7.9234,7.816,7.7322,7.6778,0.0,0.0,0.0,0.0,0.0,0.0,7.4243,0.0,0.0,7.4201,7.4974,7.5132,7.426,7.4387,7.4512,7.4481,0.0,0.0,7.7138,7.7253,7.7599,7.8253,7.6823,7.7284,7.9554,7.8823,7.9369,8.0977,8.1054,8.1093,8.1093,8.1093,8.1093,8.1093,8.1093,8.1093,8.1093,8.1093,8.1093,8.1093,8.1093,8.1093,8.1093,7.3949,7.4885,7.5917,7.7069,7.8554,8.0246,8.2285,8.3593,8.4439,8.4555,8.5209,8.5632,8.5632,8.5901,8.5901,8.5431,8.4901,8.4093,8.2909,8.237,8.1785,8.1131,8.0785,8.0323,7.9815,7.8284,7.7253,0.0,0.0,0.0,0.0,0.0,0.0,0.0,0.0,7.442,7.5434,7.6332,7.7146,7.7869,7.8861,7.9708,8.04,8.09,8.1093,8.1093,8.1093,8.1093,8.1093,8.1093,8.1093,8.1093,8.1093,8.1093,8.1093,8.1093,8.1093,8.1085,8.1015,8.0967,8.0888,8.0888,8.0888,8.0896,8.0967,8.1053,8.1093,8.1093,8.0338,7.9574,7.9155,7.828,7.7628,7.762,0.0,0.0,0.0,0.0,0.0,0.0,0.0,7.4325,0.0,7.5102,7.5513,7.5279,7.4312,0.0,0.0,0.0,0.0,7.7946,0.0,7.6945,7.7753,7.7138,7.7515,7.9015,7.9208,7.9939,8.1093,8.1093,8.1093,8.1093,8.1093,8.1093,8.1093,8.1093,8.1093,8.1093,8.1093,8.1093,8.1093,8.1093,8.1093,8.1085,7.6079,7.7031,7.7907,7.8754,8.0323,8.1862,8.3024,8.4362,8.5354,8.5709,8.5931,8.6094,8.6094,8.5901,8.5517,8.4931,8.4093,8.3216,8.2362,8.1785,8.1362,8.1093,8.1093,0.0,8.0208,7.9323,7.8484,7.7638,7.6791,0.0,0.0,0.0,0.0,0.0,7.3957,7.4456,7.5625,7.6531,7.7215,7.7753,7.8938,7.9708,8.0246,8.0862,8.1093,8.1093,8.1093,8.1093,8.1093,8.1093,8.1093,8.1093,8.1093,8.1093,8.1093,8.1093,8.1093,8.1093,8.1093,8.1007,8.0967,8.0967,8.0967,8.0967,8.0967,8.1007,8.1093,8.1093,8.0592,8.0083,8.0059,7.9262,7.8556,7.8586,0.0,0.0,0.0,0.0,0.0,0.0,7.506,7.4965,7.4492,7.5176,7.5616,7.5503,0.0,0.0,0.0,0.0,0.0,0.0,0.0,0.0,7.7638,7.7407,7.7715,7.8523,7.9131,8.0015,8.1093,8.1093,8.1093,8.1093,8.1093,8.1093,8.1093,8.1093,8.1093,8.1093,8.1093,8.1093,8.1093,8.1093,8.1093,8.1077,7.813,7.8484,7.8754,7.9631,8.117,8.2285,8.2324,8.4478,8.5786,8.5008,8.5624,8.6094,8.6094,8.5401,8.4893,8.4893,8.4093,8.3216,8.2362,8.2285,8.1939,0.0,0.0,8.1093,8.1093,8.0239,7.9361,7.8484,0.0,0.0,7.47,0.0,7.3321,7.336,7.4212,7.4634,7.4776,7.5668,7.6976,7.8484,7.8523,7.9561,8.1093,8.1093,8.1093,8.1093,8.1093,8.1093,8.1093,8.1093,8.1093,8.1093,8.1093,8.1093,8.1093,8.1093,8.1093,8.1093,8.1093,8.1093,8.1093,8.1093,8.1093,8.1093,8.1093,8.1093,8.1093,8.1093,8.1093,8.1023,8.0904,8.0243,7.9667,7.9689,0.0,0.0,0.0,0.0,0.0,0.0,7.6863,7.6237,7.4641,7.5151,7.5288,0.0,0.0,0.0,0.0,0.0,0.0,7.8484,7.8484,0.0,7.8484,7.7715,7.7715,7.8484,7.8523,7.9408,8.1093,8.1093,8.1093,8.1093,8.1093,8.1093,8.1093,8.1093,8.1093,8.1093,8.1093,8.1093,8.1093,8.1093,8.1093,8.1077,7.9285,7.9862,8.0362,8.0631,8.2054,8.3409,8.3978,8.4739,8.5401,8.567,8.5478,8.5286,8.5286,8.5047,8.4431,0.0,8.2862,8.2362,0.0,8.1477,8.1362,8.1093,8.1093,8.1093,8.1093,8.0823,8.0246,7.94,0.0,0.0,0.0,7.53,7.4824,7.4279,7.4555,7.5339,7.6476,7.6784,7.7522,7.8561,7.9131,7.9708,8.0285,8.0862,8.1093,8.1093,8.1093,8.1093,8.1093,8.1093,8.1093,8.1093,8.1093,8.1093,8.1093,8.1093,8.1093,8.1093,8.1093,8.1093,8.1093,8.1093,8.1093,8.1093,8.1093,8.1045,8.0967,8.0967,8.0918,8.0885,8.088,8.0646,8.0476,8.0496,8.0174,0.0,0.0,0.0,0.0,0.0,7.7682,7.7491,7.7011,7.665,0.0,0.0,0.0,0.0,0.0,0.0,0.0,0.0,7.8292,0.0,7.8484,7.8253,7.8253,7.8523,7.9715,8.0554,8.1093,8.1093,8.1093,8.1093,8.1093,8.1093,8.1093,8.1093,8.1093,8.1093,8.1093,8.1093,8.1093,8.1093,8.1093,8.1069,8.02,8.0746,8.1093,8.1093,8.2208,8.317,8.3439,8.4016,8.4478,8.4632,8.4516,8.4286,8.3978,8.3939,0.0,8.2401,8.2016,8.1631,8.1131,8.1093,8.1093,8.1093,8.1093,8.1093,8.1093,8.1093,0.0,8.0277,7.9977,7.8823,7.6938,7.6938,7.663,7.613,7.613,7.6553,7.733,7.7638,7.8023,7.86,7.9438,8.0008,8.0362,8.09,8.1093,8.1093,8.1093,8.1093,8.1093,8.1093,8.1093,8.1093,8.1093,8.1093,8.1093,8.1093,8.1093,8.1093,8.1093,8.1093,8.1093,8.1093,8.1093,8.1093,8.1093,8.1053,8.0975,8.0975,8.0902,8.086,8.088,8.0877,8.086,8.088,8.0877,8.0651,8.0084,0.0,0.0,0.0,0.0,0.0,0.0,7.7486,7.7097,0.0,0.0,0.0,0.0,0.0,7.7861,7.8823,7.8477,7.8323,7.8484,7.883,7.8977,7.9015,8.0439,8.1093,8.1093,8.1093,8.1093,8.1093,8.1093,8.1093,8.1093,8.1093,8.1093,8.1093,8.1093,8.1093,8.1093,8.1093,8.1069,8.0991,8.0939,8.1093,8.1093,8.1093,8.1785,8.2054,8.1285,8.2516,8.3255,8.2477,8.3024,8.3216,8.2401,8.2285,8.2285,8.2208,0.0,0.0,8.1093,8.1093,8.1093,8.1093,8.1093,8.1093,8.1093,8.1093,8.1093,8.1093,8.0277,7.9438,7.86,7.86,7.8561,7.8484,7.8484,7.8099,7.7445,7.8176,7.8523,7.8677,7.9477,8.0323,8.1093,8.1093,8.1093,8.1093,8.1093,8.1093,8.1093,8.1093,8.1093,8.1093,8.1093,8.1093,8.1093,8.1093,8.1093,8.1093,8.1093,8.1093,8.1093,8.1093,8.1093,8.1093,8.1093,8.1085,8.1085,8.1085,8.0975,8.088,8.088,8.088,8.088,8.088,8.088,8.0888,8.0888,0.0,0.0,0.0,0.0,0.0,7.8731,7.7816,7.6993,0.0,0.0,0.0,0.0,0.0,7.9131,7.7445,7.89,7.9361,7.86,7.94,7.9815,7.9892,8.0708,8.1093,8.1093,8.1093,8.1093,8.1093,8.1093,8.1093,8.1093,8.1093,8.1093,8.1093,8.1093,8.1093,8.1093,8.1093,8.1037,8.0871,0.0,0.0,8.1093,8.1093,8.1785,8.2247,8.2054,8.2362,8.2755,8.3216,8.2909,8.2516,8.2324,8.2285,8.2054,8.1439,8.1208,8.1093,8.1093,8.1093,8.1093,8.1093,8.1093,8.1093,8.1093,8.1093,8.1093,8.1093,8.09,8.0362,7.9477,7.9477,7.9131,7.8484,7.8484,7.8407,7.8215,7.8407,7.8861,7.9515,7.97,8.0323,8.1093,8.1093,8.1093,8.1093,8.1093,8.1093,8.1093,8.1093,8.1093,8.1093,8.1093,8.1093,8.1093,8.1093,8.1093,8.1093,8.1093,8.1093,8.1093,8.1093,8.1093,8.1093,8.1093,8.1007,8.0959,8.0959,8.0885,8.0826,8.0826,8.0826,8.0826,8.0826,8.0885,8.0888,8.0888,8.091,8.0863,0.0,8.0677,8.0451,8.0276,7.9462,7.918,0.0,0.0,7.9046,7.8892,8.0092,8.0015,7.8253,7.86,7.9015,7.9477,7.97,8.0131,8.0785,8.1016,8.1093,8.1093,8.1093,8.1093,8.1093,8.1093,8.1093,8.1093,8.1093,8.1093,8.1093,8.1093,8.1093,8.1093,8.1093,8.1037,8.0871,8.1093,8.1093,8.1093,8.1093,8.1477,8.1747,8.1747,8.1747,8.19,8.2401,8.2054,8.1747,8.1747,8.1747,8.1593,8.1131,8.1093,8.1093,8.1093,8.1093,8.1093,8.1093,8.1093,8.1093,8.1093,8.1093,8.1093,8.1093,8.1093,8.0862,8.04,8.04,8.0131,7.9669,7.9669,7.9485,7.9131,7.9515,7.9746,7.9815,8.0239,8.0669,8.1093,8.1093,8.1093,8.1093,8.1093,8.1093,8.1093,8.1093,8.1093,8.1093,8.1093,8.1093,8.1093,8.1093,8.1093,8.1093,8.1093,8.1093,8.1093,8.1093,8.1093,8.1093,8.1093,8.1053,8.0983,8.0983,8.0918,8.0852,8.0852,8.0852,8.0843,8.0801,8.0868,8.0871,8.0868,8.0868,8.0877,8.088,8.0885,8.0868,8.091,8.015,7.9859,8.036,7.9984,0.0,7.9246,8.0015,7.99,7.8523,7.9254,7.9708,7.9815,8.0208,8.0631,8.1093,8.1093,8.1093,8.1093,8.1093,8.1093,8.1093,8.1093,8.1093,8.1093,8.1093,8.1093,8.1093,8.1093,8.1069,8.0999,8.0999,8.0918,8.0754,8.1093,8.1093,8.1093,8.1093,8.1093,8.1093,8.1093,8.1093,8.1093,8.1093,8.1093,8.1093,8.1093,8.1093,8.1093,8.1093,8.1093,8.1093,8.1093,8.1093,8.1093,8.1093,8.1093,8.1093,8.1093,8.1093,8.1093,8.1093,8.1093,8.1093,8.1093,8.1093,8.1093,8.1093,8.1093,8.0708,8.0046,8.0785,8.0669,8.0046,8.0785,8.1093,8.1093,8.1093,8.1093,8.1093,8.1093,8.1093,8.1093,8.1093,8.1093,8.1093,8.1093,8.1093,8.1093,8.1093,8.1093,8.1093,8.1093,8.1208,8.1285,8.1285,8.1285,8.1285,8.1285,8.1208,8.1093,8.1093,8.0999,8.0904,8.0888,8.0888,8.0893,8.0809,8.0868,8.0893,8.0809,0.0,8.0835,8.0863,8.0863,8.0934,8.1045,8.0369,7.9954,7.9954,7.9969,7.9669,7.8946,7.9592,7.9669,7.8907,8.0208,8.0592,8.0008,8.0746,8.1093,8.1093,8.1093,8.1093,8.1093,8.1093,8.1093,8.1093,8.1093,8.1093,8.1093,8.1093,8.1093,8.1093,8.1077,8.0991,8.0888,8.0871,8.0763,8.0614,8.1093,8.1093,8.1093,8.1093,8.1093,8.1093,8.1093,8.1093,8.1093,8.1093,8.1093,8.1093,8.1093,8.1093,8.1093,8.1093,8.1093,8.1093,8.1093,8.1093,8.1093,8.1093,8.1093,8.1093,8.1093,8.1093,8.1093,8.1093,8.1093,8.1093,8.1093,8.1093,8.1093,8.1093,8.1093,8.1016,8.09,8.1054,8.1016,8.09,8.1054,8.1093,8.1093,8.1093,8.1093,8.1093,8.1093,8.1093,8.1093,8.1093,8.1093,8.1093,8.1093,8.1093,8.1093,8.1093,8.1093,8.1093,8.1093,8.1593,8.2093,8.2093,8.2093,8.2093,8.2093,8.1593,8.1093,8.1093,8.1085,8.1015,8.0934,8.0888,8.0893,8.0809,8.0868,8.0893,8.0809,0.0,8.0885,8.0818,8.0818,8.0818,8.0835,8.0786,8.0712,8.0712,8.0823,8.0823,8.0708,8.0823,8.0823,8.0708,8.0246,8.0277,8.09,8.1016,8.1093,8.1093,8.1093,8.1093,8.1093,8.1093,8.1093,8.1093,8.1093,8.1093,8.1093,8.1093,8.1093,8.1085,8.0975,8.0934,8.088,8.0843,8.0711,8.0614,8.1093,8.1093,8.1093,8.1093,8.1093,8.1093,8.1093,8.1093,8.1093,8.1093,8.1093,8.1093,8.1093,8.1093,8.1093,8.1093,8.1093,8.1093,8.1093,8.1093,8.1093,8.1093,8.1007,8.0967,8.0957,8.0959,8.0967,8.0957,8.0967,8.0959,8.0957,8.0957,8.0943,8.0983,8.0983,8.1007,8.1093,8.1093,8.1093,8.1093,8.1007,8.1053,8.1085,8.1007,8.1053,8.1093,8.1093,8.1093,8.1093,8.1093,8.1093,8.1093,8.1093,8.1093,8.1093,8.1093,8.1093,8.1093,8.1093,8.1708,8.2285,8.2285,8.2639,8.2986,8.2986,8.2362,8.1747,8.1747,8.14,8.1077,8.1007,8.0999,8.0967,8.0877,8.0863,0.0,8.0809,8.0826,8.086,8.086,8.0868,8.0885,8.0934,8.0975,8.0975,8.0888,8.1007,8.1069,8.0991,8.1069,8.1093,8.1093,8.0708,8.0708,8.1093,8.1093,8.1093,8.1093,8.1093,8.1093,8.1093,8.1093,8.1093,8.1093,8.1093,8.1093,8.1093,8.1093,8.1093,8.1085,8.0959,8.0893,8.0843,8.0711,8.0623,8.0532,8.1093,8.1093,8.1093,8.1093,8.1093,8.1093,8.1093,8.1093,8.1093,8.1093,8.1093,8.1093,8.1093,8.1093,8.1093,8.1093,8.1093,8.1093,8.1093,8.1077,8.1069,8.1093,8.0975,8.0885,8.0792,8.086,8.086,8.0792,8.086,8.086,8.0792,8.0792,8.0826,8.0893,8.0893,8.0943,8.1061,8.1045,8.1045,8.1053,8.0934,8.0951,8.1053,8.0951,8.0983,8.1093,8.1093,8.1093,8.1093,8.1093,8.1093,8.1093,8.1093,8.1093,8.1093,8.1093,8.1077,8.1069,8.1085,8.1708,8.2362,8.2554,8.3101,8.364,8.387,8.3216,8.2554,8.2324,8.1823,8.1323,8.1131,8.1093,8.1069,8.0967,0.0,8.0926,8.0835,8.0826,8.0843,8.0855,8.0893,8.0926,8.1029,8.1053,8.0999,8.0896,8.1007,8.1061,8.0959,8.1053,8.1093,8.1093,8.1093,8.1093,8.1093,8.1093,8.1093,8.1093,8.1093,8.1093,8.1093,8.1093,8.1093,8.1093,8.1093,8.1093,8.1093,8.1093,8.1085,8.1053,8.0926,8.0843,8.0749,8.0614,8.0532,8.0506,8.1093,8.1093,8.1093,8.1093,8.1093,8.1093,8.1093,8.1093,8.1093,8.1093,8.1093,8.1093,8.1093,8.1093,8.1093,8.1093,8.1093,8.1093,8.1093,8.0983,8.0975,8.1093,8.0975,8.0885,8.0792,8.0801,8.0801,8.0792,8.0801,8.0801,8.0792,8.0792,8.0801,8.0801,8.0801,8.0852,8.0888,8.0852,8.086,8.0926,8.0843,8.086,8.0896,8.0888,8.0983,8.1093,8.1093,8.1093,8.1093,8.1093,8.1093,8.1093,8.1093,8.1093,8.1093,8.1093,8.0999,8.0951,8.1069,8.1708,8.2477,8.3293,8.3563,8.3832,8.4632,8.4132,8.3293,8.2477,8.2247,8.1977,8.1246,8.1093,8.1093,8.1085,0.0,0.0,8.0926,8.088,8.0885,8.0809,8.0801,8.0809,8.0809,8.0885,8.0896,8.0888,8.1007,8.1093,8.1085,8.1093,8.1093,8.1093,8.1093,8.1093,8.1093,8.1093,8.1093,8.1093,8.1093,8.1093,8.1093,8.1093,8.1093,8.1093,8.1093,8.1093,8.1093,8.1093,8.1045,8.0926,8.0835,8.0749,8.0614,8.0514,8.0515,8.0506,8.1093,8.1093,8.1093,8.1093,8.1093,8.1093,8.1093,8.1093,8.1093,8.1093,8.1093,8.1093,8.1093,8.1093,8.1093,8.1093,8.1007,8.0975,8.0975,8.0893,8.0835,8.0771,8.0737,8.0676,8.0625,8.0641,8.0679,8.0616,8.0143,7.9913,7.986,7.9315,7.9083,7.9135,7.9135,7.9186,7.927,7.9275,7.9552,8.0038,7.9944,8.0302,8.088,8.0868,8.0934,8.1093,8.1093,8.1093,8.1093,8.1093,8.1093,8.1093,8.1093,8.1053,8.0967,8.091,8.0868,8.0852,8.0885,8.198,8.308,8.3329,8.4246,8.5172,8.551,8.4895,8.4203,8.3857,8.3358,8.2718,8.1815,8.1741,8.162,8.1052,0.0,8.1085,8.1007,8.1007,8.0991,8.0997,8.0997,8.0997,8.0997,8.1029,8.0983,8.0888,8.1007,8.1069,8.0975,8.1061,8.1093,8.1093,8.1093,8.1093,8.1093,8.1093,8.1093,8.1093,8.1093,8.1093,8.1093,8.1093,8.1093,8.1093,8.1093,8.1093,8.1093,8.0999,8.0959,8.0871,8.0728,8.065,8.0605,8.0505,8.0506,8.0506,8.1093,8.1093,8.1093,8.1093,8.1093,8.1093,8.1093,8.1093,8.1093,8.1093,8.1093,8.1093,8.1093,8.1093,8.1093,8.1093,8.0975,8.0888,8.0888,8.0818,8.0685,8.0614,8.0614,8.0569,8.0506,8.0532,8.0427,8.0124,7.9624,7.9203,7.8872,7.8557,7.8288,7.8082,7.835,7.8402,7.8258,7.8224,7.8539,7.9063,7.9274,7.9795,8.046,8.0694,8.0885,8.1053,8.1053,8.1069,8.1093,8.1061,8.1053,8.1053,8.1053,8.0959,8.0868,8.0775,8.0749,8.0741,8.0714,8.1819,8.303,8.3255,8.422,8.5309,8.5799,8.5453,8.4954,8.4724,8.4204,8.3513,8.26,8.2322,8.2035,8.1428,8.1207,8.1093,8.1093,8.1093,8.1093,8.1093,8.1093,8.1093,8.1093,8.1093,8.1069,8.0967,8.1061,8.1069,8.0967,8.1061,8.1093,8.1093,8.1093,8.1093,8.1093,8.1093,8.1093,8.1093,8.1093,8.1093,8.1093,8.1093,8.1093,8.1093,8.1061,8.1053,8.1045,8.0918,8.083,8.0788,8.0667,8.0596,8.056,8.0534,8.0506,8.0506,8.1093,8.1093,8.1093,8.1093,8.1093,8.1093,8.1093,8.1093,8.1093,8.1093,8.1093,8.1093,8.1093,8.1093,8.1093,8.1093,8.0975,8.0888,8.088,8.072,8.0614,8.0614,8.0614,8.0569,8.0506,8.0506,8.0095,7.9292,7.9292,7.8834,7.8022,7.8872,7.8796,7.8022,7.891,7.8841,7.8079,7.802,7.8038,7.8194,7.8985,7.9356,7.9521,8.0451,8.0852,8.0888,8.0888,8.0983,8.1077,8.0951,8.0888,8.0888,8.0888,8.086,8.0775,8.0641,8.0614,8.0596,8.0534,8.1201,8.2105,8.3066,8.3285,8.3745,8.5423,8.5777,8.5576,8.4771,8.4659,8.446,8.3568,8.2798,8.2324,8.2285,8.1631,8.1093,8.1093,8.1093,8.1093,8.1093,8.1093,8.1093,8.1093,8.1093,8.1093,8.1093,8.1093,8.1093,8.1093,8.1093,8.1093,8.1093,8.1093,8.1093,8.1093,8.1093,8.1093,8.1093,8.1093,8.1093,8.1093,8.1093,8.1093,8.1085,8.0959,8.0888,8.088,8.0826,8.0741,8.0614,8.0614,8.0551,8.0506,8.0506,8.0506,8.0506,8.1093,8.1093,8.1093,8.1093,8.1007,8.0967,8.0967,8.091,8.0877,8.0877,8.0877,8.0877,8.0877,8.0926,8.0943,8.0877,8.0852,8.0775,8.0643,8.0542,8.0514,8.0514,8.0514,8.0534,8.0506,8.0506,8.0391,8.0133,7.8939,7.8252,7.7975,7.764,7.7038,7.6312,7.7755,7.7926,7.715,7.7764,7.8346,7.8947,7.9187,7.9691,8.0278,8.0535,8.0711,8.0835,8.0835,8.0893,8.0951,8.086,8.0877,8.0863,8.0737,8.0676,8.0641,8.0542,8.0514,8.0658,8.1241,8.1633,8.19,8.2195,8.3169,8.4211,8.4709,8.5293,8.5676,8.5407,8.5397,8.5129,8.4212,8.3894,8.3382,8.2194,8.1952,8.165,8.1044,8.1053,8.1093,8.1093,8.1093,8.1093,8.1093,8.1093,8.1093,8.1093,8.1093,8.1093,8.1093,8.1093,8.1093,8.1093,8.1093,8.1093,8.1093,8.1093,8.1093,8.1093,8.1093,8.1093,8.1093,8.1093,8.1093,8.1085,8.0959,8.0888,8.088,8.072,8.0641,8.0605,8.0542,8.0534,8.0506,8.0506,8.0506,8.0506,8.1007,8.1013,8.0989,8.0989,8.091,8.0877,8.0877,8.0826,8.0792,8.0792,8.0792,8.0792,8.0792,8.0843,8.0852,8.0801,8.0758,8.067,8.0515,8.0506,8.0506,8.0506,8.0506,8.0353,8.0018,8.0353,8.0162,7.9513,7.8825,7.8328,7.8022,7.7793,7.7267,7.6532,7.7908,7.8022,7.7258,7.7793,7.829,7.8834,7.9178,7.9635,8.011,8.049,8.065,8.0741,8.0741,8.0792,8.086,8.0728,8.0737,8.0754,8.0605,8.056,8.0551,8.0525,8.0735,8.1117,8.1652,8.2034,8.2264,8.2264,8.3343,8.4452,8.4758,8.5217,8.5609,8.5609,8.5638,8.5542,8.494,8.4662,8.4162,8.3173,8.2809,8.2394,8.159,8.1523,8.1477,8.1131,8.1093,8.1093,8.1093,8.1093,8.1093,8.1093,8.1093,8.1093,8.1093,8.1093,8.1093,8.1093,8.1093,8.1093,8.1093,8.1093,8.1093,8.1093,8.1093,8.1077,8.1007,8.1007,8.1021,8.0989,8.0822,8.078,8.0771,8.0623,8.056,8.0551,8.0534,8.0506,8.0506,8.0506,8.0506,8.0506,8.088,8.0852,8.0792,8.0792,8.0784,8.0784,8.0784,8.0775,8.0767,8.0767,8.0767,8.0767,8.0767,8.0775,8.0775,8.0767,8.065,8.0569,8.0515,8.0506,8.0506,8.0506,8.0506,8.0124,7.9331,8.0095,7.9704,7.8137,7.891,7.8834,7.8022,7.891,7.8834,7.8061,7.8987,7.8949,7.8137,7.8175,7.8213,7.829,7.9101,7.9407,7.9493,8.0301,8.0605,8.0605,8.0605,8.0667,8.0767,8.0641,8.0605,8.0587,8.0534,8.0506,8.0506,8.0506,8.1117,8.1805,8.1881,8.2493,8.3114,8.3228,8.384,8.4594,8.5244,8.5463,8.5501,8.5501,8.559,8.5695,8.5695,8.511,8.4694,8.4677,8.3926,8.3116,8.2353,8.2231,8.1893,8.1162,8.1085,8.1093,8.1093,8.1093,8.1093,8.1093,8.1093,8.1093,8.1093,8.1093,8.1093,8.1093,8.1093,8.1093,8.1093,8.1093,8.1093,8.1093,8.1085,8.0999,8.0888,8.088,8.0868,8.0784,8.0658,8.0614,8.0605,8.0552,8.0506,8.0506,8.0506,8.0506,8.0506,8.0506,8.0506,8.0506,8.0818,8.0809,8.0792,8.0792,8.0693,8.0641,8.0641,8.0578,8.0571,8.0571,8.0571,8.0571,8.0571,8.0596,8.0614,8.058,8.0552,8.0534,8.0506,8.0506,8.0506,8.0506,8.0506,8.0124,7.9331,8.0095,8.0009,7.9025,7.9216,7.8834,7.8022,7.891,7.8834,7.8061,7.9551,7.9789,7.9063,7.9704,7.9971,7.9971,8.0162,8.0248,8.0248,8.0457,8.0505,8.0505,8.0505,8.056,8.0641,8.0623,8.0569,8.0534,8.0515,8.0506,8.0506,8.0506,8.1117,8.1958,8.2569,8.3381,8.4174,8.4785,8.5091,8.5129,8.4671,8.5053,8.5501,8.5501,8.5521,8.5541,8.5541,8.5408,8.5083,8.45,8.3733,8.2945,8.212,8.1521,8.1143,8.0951,8.1053,8.1093,8.1093,8.1093,8.1093,8.1093,8.1093,8.1093,8.1093,8.1093,8.1093,8.1093,8.1093,8.1093,8.1093,8.1093,8.1093,8.1093,8.0983,8.0943,8.0888,8.0852,8.0809,8.0784,8.0658,8.0614,8.0605,8.0552,8.0506,8.0506,8.0506,8.0506,8.0506,8.0506,8.0506,8.0506,8.0685,8.0688,8.0661,8.0661,8.0616,8.0551,8.0551,8.0505,8.0506,8.0506,8.0506,8.0506,8.0506,8.0514,8.0523,8.0515,8.0506,8.0506,8.0506,8.0506,8.0506,8.0506,8.0506,8.0315,7.9866,8.0277,8.0095,7.9292,7.9292,7.9063,7.8634,7.8672,7.8672,7.8672,7.956,7.9904,7.9904,8.0315,8.0506,8.0506,8.0506,8.0506,8.0506,8.0506,8.0506,8.0506,8.0506,8.0505,8.0551,8.0551,8.0514,8.0506,8.0506,8.0506,8.0506,8.0506,8.1117,8.1996,8.277,8.3649,8.448,8.532,8.5501,8.5397,8.4976,8.5206,8.5501,8.5501,8.5501,8.5501,8.5501,8.5501,8.5368,8.5045,8.4643,8.3963,8.2736,8.2258,8.176,8.0995,8.0967,8.1045,8.1093,8.1093,8.1093,8.1093,8.1093,8.1093,8.1093,8.1093,8.1093,8.1093,8.1093,8.1069,8.0991,8.0991,8.0975,8.0973,8.0926,8.0847,8.0754,8.0711,8.0705,8.0661,8.0569,8.0551,8.0542,8.0525,8.0506,8.0506,8.0506,8.0506,8.0506,8.0506,8.0506,8.0506,8.0357,8.0332,8.0353,8.0468,8.0506,8.0506,8.0506,8.0506,8.0506,8.0506,8.0506,8.0506,8.0506,8.0506,8.0506,8.0506,8.0506,8.0506,8.0506,8.0506,8.0506,8.0506,8.0506,8.0506,8.0506,8.0506,8.0095,7.9292,7.9445,7.9445,7.9292,7.871,7.8825,7.9522,7.9522,7.9866,8.0506,8.0506,8.0506,8.0506,8.0506,8.0506,8.0506,8.0506,8.0506,8.0506,8.0506,8.0506,8.0506,8.0506,8.0506,8.0506,8.0506,8.0506,8.0506,8.0506,8.1194,8.2149,8.2808,8.3725,8.4671,8.532,8.5501,8.5501,8.5501,8.5501,8.5501,8.5501,8.5501,8.5501,8.5501,8.5501,8.5541,8.5667,8.5418,8.4757,8.3452,8.3019,8.2335,8.1047,8.0888,8.0975,8.1085,8.1093,8.1093,8.1093,8.1093,8.1093,8.1093,8.1093,8.1093,8.1093,8.1077,8.1007,8.0951,8.0918,8.0868,8.0792,8.0813,8.0763,8.0614,8.0596,8.0551,8.0506,8.0506,8.0506,8.0506,8.0506,8.0506,8.0506,8.0506,8.0506,8.0506,8.0506,8.0506,8.0506,7.9464,7.9454,7.9675,8.0391,8.0506,8.0506,8.0506,8.0506,8.0506,8.0506,8.0506,8.0506,8.0506,8.0506,8.0506,8.0506,8.0506,8.0506,8.0506,8.0506,8.0506,8.0506,8.0506,8.0506,8.0506,8.0506,8.0095,7.9292,8.0018,7.998,7.9292,7.9895,8.02,8.0353,8.0353,8.0391,8.0506,8.0506,8.0506,8.0506,8.0506,8.0506,8.0506,8.0506,8.0506,8.0506,8.0506,8.0506,8.0506,8.0506,8.0506,8.0506,8.0506,8.0506,8.0506,8.0506,8.1623,8.2846,8.2961,8.4136,8.5349,8.5473,8.5501,8.5501,8.5501,8.5501,8.5501,8.5501,8.5501,8.5501,8.5501,8.5501,8.5511,8.5531,8.4318,8.3295,8.3076,8.185,8.0935,8.0839,8.0989,8.1077,8.1093,8.1093,8.1093,8.1093,8.1093,8.1093,8.1093,8.1093,8.1093,8.1093,8.0983,8.0975,8.1077,8.0885,8.0801,8.0792,8.0685,8.0641,8.0614,8.0532,8.0525,8.0506,8.0506,8.0506,8.0506,8.0506,8.0506,8.0506,8.0506,8.0506,8.0506,8.0506,8.0506,8.0506,7.998,7.998,8.0086,8.043,8.0506,8.0506,8.0506,8.0506,8.0506,8.0506,8.0506,8.0506,8.0506,8.0506,8.0506,8.0506,8.0506,8.0506,8.0506,8.0506,8.0506,8.0506,8.0506,8.0506,8.0506,8.0506,8.0315,7.998,7.9866,7.9636,7.9292,7.9169,7.936,7.9827,7.9827,8.0095,8.0506,8.0506,8.0506,8.0506,8.0506,8.0506,8.0506,8.0506,8.0506,8.0506,8.0506,8.0506,8.0506,8.0506,8.0506,8.0506,8.0506,8.0506,8.0506,8.0506,8.1003,8.1815,8.277,8.3534,8.4327,8.5282,8.5501,8.5501,8.5501,8.5501,8.5501,8.5501,8.5501,8.5501,8.5501,8.5501,8.5501,8.5501,8.49,8.4059,8.3114,8.2387,8.1658,8.089,8.0868,8.0973,8.0975,8.0983,8.0983,8.0983,8.1069,8.1093,8.1093,8.1093,8.1093,8.1093,8.0967,8.0918,8.091,8.0784,8.065,8.0634,8.0551,8.0532,8.0532,8.0525,8.0506,8.0506,8.0506,8.0506,8.0506,8.0506,8.0506,8.0506,8.0506,8.0506,8.0506,8.0506,8.0506,8.0506]}]]